     2              OBSERVATION DATA    GPS                 RINEX VERSION / TYPE
ASRINEXO V2.4.4 UX USGS 21-MAR-97 11:42                     PGM / RUN BY / DATE
                                                            COMMENT
Original Marker Name: edom Edom_2_1974_NCER                 COMMENT
Campaign Name: usgs.coach.monit                             COMMENT
4-Character Station Name: EDOM                              COMMENT
6-Character Antenna Code: ASHL12                            COMMENT
Vertical Measurement Point: BBE                             COMMENT
Vertical Offset to Rinex Ref. Point: 0.0595                 COMMENT
Radial Measurement Point: EGP                               COMMENT
Radial Offset to Rinex Ref. Point: 0.1424                   COMMENT
Antenna Height from Field Measurement: 1.3310 m             COMMENT
Additional Antenna Identification Info.:                    COMMENT
Original Ashtech L1/L2                                      COMMENT
Original XYZ: -2361518.1993 -4758966.2847 3517736.7060      COMMENT
New XYZ position is based on association with SCEC monument COMMENT
E1D0U1U6+0011. Position of that monument is believed to be  COMMENT
valid to within 1 m horizontally; vertical accuracy         COMMENT
should be no worse than 3-times this value.                 COMMENT
                                                            COMMENT
Revised Rinex header created by UCSD GPS archive for        COMMENT
GSAC on 10-Nov-1999 (1999:314) 22:21:29 GMT                 COMMENT
For assistance contact dagnew@ucsd.edu or hjohnson@ucsd.edu COMMENT
                                                            COMMENT
EDOM EDOM_2_1974_NCER                                       MARKER NAME
GDH US GEOLOGICAL SURVEY                                    OBSERVER / AGENCY
434 ASHTECH Z-XII3 1E95                                     REC # / TYPE / VERS
616 ASHTECH GEODETIC L                                      ANT # / TYPE
 -2359882.0000 -4747477.0000  3534774.0000                  APPROX POSITION XYZ
        1.2639        0.0000        0.0000                  ANTENNA: DELTA H/E/N
     1     1     0                                          WAVELENGTH FACT L1/2
     5    C1    L1    L2    P1    P2                        # / TYPES OF OBSERV
    30                                                      INTERVAL
  1997     3    13    15    49    0.000000                  TIME OF FIRST OBS
  1997     3    13    23    59   30.000000                  TIME OF LAST OBS
                                                            END OF HEADER
 97  3 13 15 49  0.0000000  0  8 22 19 18 14  3 27 29 16
  23875283.085      234962.87249    167710.07949  23875282.8164   23875289.0654
  21404476.590     -171267.73449   -124161.38349  21404475.5204   21404480.9464
  20552015.196                                    20552017.404    20552035.5934
  23263559.056      239510.85649    174026.88849  23263558.8834   23263564.9634
  23563494.335     -146497.39949   -101024.78449  23563494.3424   23563500.3804
  24208622.753     -258247.11249   -182227.53849  24208623.2794   24208631.0994
  22841133.386                                    22841131.494    22841124.7424
  21635990.591                                    21635987.817    21635911.4454
 97  3 13 15 49 30.0000000  0  9 22 19 18 14  3 27 31 29 16
  23890683.349      315891.46749    230771.28349  23890682.5554   23890688.7174
  21393244.121     -230287.65549   -170150.94049  21393244.4254   21393249.7714
  20540597.895      -28433.30659                  20540597.260    20540602.1934
  23279523.172      323401.38549    239396.08549  23279522.8924   23279528.1664
  23551768.252     -208118.71849   -149041.41149  23551767.6314   23551773.7764
  24190723.877     -352313.72449   -255526.17149  24190722.7914   24190728.9794
  23606294.950     -206579.78849                  23606294.692    23606300.1704
  22850888.949       24354.10759                  22850889.049    22850894.3734
  21644650.353       28119.80159                  21644649.301    21644655.3654
 97  3 13 15 50  0.0000000  0  9 22 19 18 14  3 27 31 29 16
  23906139.329      397111.73649    294059.74449  23906138.1754   23906145.4544
  21382071.479     -289001.90549   -215902.29349  21382071.6404   21382076.7794
  20529274.315     -293241.66559    -74801.21749  20529273.9494   20529278.6474
  23295535.781      407548.47749    304965.20349  23295534.7174   23295540.9214
  23540150.556     -269167.51049   -196611.87749  23540150.6434   23540156.5454
  24172868.575     -446144.67049   -328641.21849  24172868.2924   24172875.7524
  23586002.962     -401404.76059   -289675.01749  23586002.1014   23586007.5494
  22860724.097      248823.10659     64626.04649  22860723.6804   22860728.2824
  21653409.477      229444.66359     63987.55549  21653408.9074   21653414.6774
 97  3 13 15 50 30.0000000  0  9 22 19 18 14  3 27 31 29 16
  23921656.722      478654.44449    357599.46949  23921656.3624   23921661.5694
  21370969.448     -347344.40249   -261363.97649  21370969.2464   21370974.4434
  20518055.171     -352198.68049   -120741.75249  20518054.9364   20518059.3884
  23311606.085      491999.25649    370770.95049  23311606.3814   23311611.5404
  23528651.918     -329593.66249   -243697.16349  23528651.5044   23528657.6214
  24155064.846     -539703.95149   -401544.49849  24155063.5574   24155070.9224
  23565774.506     -507704.33949   -372505.82949  23565773.9644   23565779.6644
  22870647.170      300969.44349    105259.51249  22870646.7514   22870652.3454
  21662280.480      276062.29949    100312.95849  21662280.0664   21662285.5414
 97  3 13 15 51  0.0000000  0  9 22 19 18 14  3 27 31 29 16
  23937233.834      560512.77949    421385.13949  23937232.4694   23937239.8774
  21359941.914     -405294.70449   -306520.06249  21359941.7404   21359946.9454
  20506940.255     -410608.14849   -166255.63049  20506939.9514   20506944.5764
  23327734.347      576753.68449    436813.31849  23327733.9564   23327739.3934
  23517269.819     -389407.38249   -290305.21549  23517270.5124   23517275.3474
  24137311.366     -633000.11849   -474242.84949  24137309.7584   24137316.5154
  23545611.728     -613660.00549   -455068.65449  23545610.8534   23545616.6874
  22880658.014      353577.16149    146252.48649  22880657.8404   22880662.8594
  21671267.221      323287.77349    137111.99549  21671266.6144   21671272.3354
 97  3 13 15 51 30.0000000  0  9 22 19 18 14  3 27 31 29 16
  23952958.174      643143.90549    485772.95649  23952958.1124   23952963.0644
  21349074.704     -462402.59749   -351019.72149  21349074.6834   21349079.8504
  20496017.974     -468005.25349   -210980.65549  20496017.7324   20496022.2824
  23344010.611      662286.23549    503461.99949  23344010.4084   23344016.7844
  23506091.523     -448150.97649   -336079.43949  23506091.7614   23506096.7514
  24119690.893     -725595.61149   -546395.11349  24119691.1654   24119697.7954
  23525602.194     -718810.49549   -537004.08349  23525601.7454   23525607.7094
  22890844.553      407108.32749    187965.03349  22890844.0984   22890850.1224
  21680457.896      371585.08449    174746.22649  21680457.2924   21680463.2064
 97  3 13 15 52  0.0000000  0  9 22 19 18 14  3 27 31 29 16
  23968743.445      726095.38149    550410.42949  23968743.6544   23968747.0754
  21338281.362     -519122.05649   -395216.70049  21338281.3154   21338286.4884
  20485205.085     -524827.72349   -255257.91349  20485204.7284   20485209.4624
  23360353.772      748169.92749    570384.31949  23360353.5044   23360359.7404
  23495034.009     -506259.55649   -381358.84149  23495033.9764   23495038.9664
  24102115.415     -817955.84349   -618364.14549  24102114.2144   24102119.7194
  23505660.996     -823602.60149   -618660.24249  23505661.2894   23505666.0224
  22901124.144      461127.54549    230057.88149  22901124.1624   22901129.2714
  21689771.204      420526.64949    212882.47649  21689770.8544   21689776.6054
 97  3 13 15 52 30.0000000  0  9 22 19 18 14  3 27 31 29 16
  23984568.463      809255.68449    615210.60649  23984566.9404   23984573.4484
  21327539.743     -575569.87549   -439202.01749  21327539.6924   21327544.6284
  20474476.691     -581205.86449   -299188.93549  20474476.4754   20474481.1674
  23376740.164      834280.93649    637483.75049  23376740.2794   23376745.6494
  23484069.924     -563876.50549   -426255.14249  23484069.4874   23484076.3504
  24084560.561     -910206.51049   -690247.76249  24084561.6054   24084567.8334
  23485763.423     -928165.60949   -700137.87849  23485763.0454   23485767.8214
  22911470.903      515499.47849    272425.57249  22911470.8394   22911476.7724
  21699183.824      469990.33049    251425.57149  21699183.4384   21699189.3104
 97  3 13 15 53  0.0000000  0  9 22 19 18 14  3 27 31 29 16
  24000446.918      892697.32149    680230.02949  24000446.8264   24000452.3494
  21316860.942     -631687.72449   -482930.21049  21316861.0544   21316866.2124
  20463843.933     -637081.75949   -342728.59549  20463843.8864   20463848.1864
  23393182.866      920687.42549    704813.42449  23393183.1464   23393187.5974
  23473211.046     -620939.67949   -470719.92949  23473210.9744   23473217.1974
  24067042.018    -1002267.54149   -761983.61349  24067041.4644   24067046.2014
  23465924.832    -1032418.04149   -781373.53949  23465923.7394   23465929.6254
  22921895.451      570280.52949    315112.07049  22921895.3124   22921901.3734
  21708701.985      520008.49849    290400.73149  21708701.8184   21708707.4754
 97  3 13 15 53 30.0000000  0  9 22 19 18 14  3 27 31 29 16
  24016402.555      976543.80449    745564.91249  24016401.9014   24016408.5654
  21306267.093     -687358.94749   -526310.39749  21306267.0184   21306272.2794
  20453332.928     -692317.59849   -385769.51349  20453332.7424   20453337.3574
  23409705.250     1007512.72549    772469.43649  23409705.0384   23409711.1694
  23462484.869     -677305.93949   -514641.64649  23462484.6404   23462490.8884
  24049587.414    -1093993.15749   -833458.12249  24049588.2374   24049593.3314
  23446171.616    -1136221.58349   -862259.37149  23446170.7744   23446176.9514
  22932422.612      625601.03449    358218.89849  22932422.7644   22932428.9544
  21718349.939      570708.50949    329907.20149  21718349.5894   21718355.5074
 97  3 13 15 54  0.0000000  0  9 22 19 18 14  3 27 31 29 16
  24032431.318     1060775.19449    811199.69949  24032431.7744   24032435.1094
  21295751.250     -742620.12349   -569371.04449  21295751.1984   21295756.5474
  20442939.064     -746937.76449   -428330.68249  20442938.7284   20442943.3754
  23426295.925     1094697.06949    840405.23149  23426295.8234   23426301.9214
  23451883.634     -733016.34649   -558052.32949  23451883.3794   23451889.6984
  24032191.832    -1185407.12949   -904689.73049  24032192.2404   24032195.1774
  23426497.808    -1239608.04849   -942820.22849  23426497.8534   23426503.4324
  22943042.500      681408.09249    401704.87249  22943042.3424   22943048.2694
  21728122.255      622062.19249    369923.02849  21728121.7144   21728128.1964
 97  3 13 15 54 30.0000000  0  9 22 19 18 14  3 27 31 29 16
  24048512.444     1145281.37349    877048.63749  24048510.4834   24048517.2864
  21285291.337     -797587.47549   -612202.74349  21285291.1404   21285296.4574
  20432642.208     -801048.43349   -470494.84149  20432641.9364   20432646.5494
  23442929.062     1182104.63149    908514.96649  23442928.7284   23442935.1794
  23441382.777     -788199.33349   -601052.06249  23441382.6984   23441388.8544
  24014834.156    -1276623.26249   -975767.25849  24014832.4874   24014840.9674
  23406883.323    -1342683.03949  -1023138.38049  23406883.5124   23406889.1144
  22953730.617      737574.16349    445470.60249  22953731.1134   22953736.0454
  21737992.750      673931.92949    410340.98449  21737992.3514   21737998.1024
 97  3 13 15 55  0.0000000  0  9 22 19 18 14  3 27 31 29 16
  24064654.490     1230108.12149    943147.33649  24064653.8274   24064659.3184
  21274898.317     -852203.26049   -654760.50049  21274898.2344   21274903.3904
  20422454.859     -854583.41549   -512210.41749  20422454.6594   20422459.2684
  23459613.726     1269783.13449    976835.81949  23459614.1274   23459620.0234
  23430995.719     -842784.10349   -643585.63649  23430994.8304   23431000.5234
  23997525.658    -1367579.26649  -1046642.01949  23997525.6194   23997530.8624
  23387338.568    -1445391.52549  -1103170.93949  23387338.1834   23387344.5934
  22964500.843      794171.62749    489572.48849  22964501.0974   22964506.5204
  21747973.921      726383.31449    451212.16849  21747973.1314   21747979.4014
 97  3 13 15 55 30.0000000  0  9 22 19 18 14  3 27 31 29 16
  24080857.954     1315257.83949   1009497.71849  24080857.4594   24080863.6264
  21264573.263     -906461.92949   -697039.97549  21264573.0524   21264578.2774
  20412378.993     -907532.59849   -553469.52749  20412378.6644   20412383.2704
  23476346.545     1357713.95949   1045353.28449  23476346.1144   23476352.9994
  23420720.967     -896778.25849   -685658.97449  23420720.8524   23420726.1564
  23980265.257    -1458283.88849  -1117320.93249  23980264.5584   23980271.4904
  23367859.563    -1547754.27449  -1182934.09749  23367858.8084   23367865.2054
  22975356.004      851216.00549    534022.60949  22975356.6124   22975361.8444
  21758069.725      779436.76549    492552.48849  21758069.3024   21758075.5084
 97  3 13 15 56  0.0000000  0  9 22 19 18 14  3 27 31 29 16
  24097129.784     1400766.93849   1076128.13949  24097128.6354   24097135.7734
  21254326.011     -960311.67949   -739000.81449  21254325.7864   21254330.9414
  20402420.319     -959865.90349   -594248.73049  20402419.8894   20402424.6254
  23493136.064     1445943.02549   1114103.15049  23493136.2604   23493142.6054
  23410565.797     -950144.63349   -727243.14649  23410565.5334   23410571.6344
  23963057.304    -1548712.50549  -1187784.78149  23963056.5914   23963062.1804
  23348455.383    -1649723.64549  -1262390.73849  23348454.8914   23348460.8304
  22986303.205      908743.70849    578849.34649  22986302.6644   22986309.0014
  21768282.607      833105.72849    534372.42249  21768282.1824   21768288.1774
 97  3 13 15 56 30.0000000  0  9 22 19 18 14  3 27 31 29 16
  24113460.607     1486585.88749   1142999.97049  24113459.1704   24113464.8884
  21244156.348    -1013753.55249   -780643.84549  21244156.2574   21244161.4914
  20392573.972    -1011608.87149   -634567.92949  20392573.5954   20392578.2724
  23509983.222     1534474.92349   1183088.97249  23509983.0674   23509988.7494
  23400531.540    -1002875.52849   -768332.14549  23400531.5094   23400537.0394
  23945897.658    -1638885.78249  -1258049.65049  23945897.6704   23945904.9424
  23329125.641    -1751302.40449  -1341542.99349  23329125.8624   23329131.1274
  22997343.637      966761.62749    624058.07649  22997344.2904   22997348.8264
  21778605.808      887354.30649    576644.01149  21778605.3854   21778611.3814
 97  3 13 15 57  0.0000000  0  9 22 19 18 14  3 27 31 29 16
  24129843.782     1572679.67749   1210086.02249  24129843.6374   24129849.3134
  21234060.616    -1066807.06849   -821984.25249  21234060.4164   21234065.7494
  20382835.459    -1062785.11449   -674445.52649  20382835.1074   20382839.9074
  23526884.714     1623292.92549   1252297.73249  23526884.7374   23526890.0754
  23390616.481    -1054979.48849   -808932.61149  23390615.6344   23390622.1884
  23928784.412    -1728817.00549  -1328125.89049  23928783.9284   23928789.5514
  23309866.220    -1852511.38949  -1420407.11449  23309866.4154   23309871.3554
  23008475.550     1025260.36549    669641.45149  23008475.9744   23008481.0454
  21789036.940      942170.07849    619357.57449  21789036.4244   21789042.3494
 97  3 13 15 57 30.0000000  0  9 22 19 18 14  3 27 31 29 16
  24146280.459     1659055.10649   1277391.46149  24146279.8184   24146286.3384
  21224036.665    -1119483.29749   -863030.66649  21224036.4354   21224041.7464
  20373206.014    -1113388.10449   -713876.43449  20373205.7434   20373210.2984
  23543841.375     1712400.11049   1321731.84049  23543840.6084   23543848.0644
  23380821.311    -1106453.56649   -849042.26449  23380821.2944   23380826.2404
  23911717.725    -1818502.87749  -1398011.00049  23911718.6624   23911722.6464
  23290680.485    -1953333.45549  -1498969.73249  23290680.2384   23290685.5134
  23019695.672     1084222.52249    715585.95749  23019696.1564   23019700.6114
  21799571.781      997530.89949    662495.84649  21799571.2214   21799577.3114
 97  3 13 15 58  0.0000000  0  9 22 19 18 14  3 27 31 29 16
  24162773.394     1745725.26549   1344926.64649  24162773.0204   24162777.8404
  21214089.170    -1171757.81749   -903764.06449  21214088.9924   21214094.4684
  20363692.731    -1163380.95949   -752831.91249  20363692.4894   20363697.0854
  23560859.520     1801830.91849   1391418.12849  23560859.5264   23560866.0474
  23371154.633    -1157252.70449   -888626.00349  23371154.1574   23371160.2064
  23894702.703    -1907917.58249  -1467684.74149  23894702.1424   23894706.9264
  23271576.914    -2053723.54549  -1577195.74449  23271575.5434   23271582.3934
  23031006.942     1143663.40349    761903.47349  23031007.5354   23031013.0714
  21810214.091     1053456.60749    706074.28049  21810213.6434   21810219.8844
 97  3 13 15 58 30.0000000  0  9 22 19 18 14  3 27 31 29 16
  24179324.831     1832703.92449   1412702.15549  24179323.2434   24179330.1454
  21204218.828    -1223627.04349   -944181.64849  21204218.7754   21204223.9804
  20354298.491    -1212748.00249   -791299.74249  20354298.4024   20354302.9054
  23577936.184     1891569.34649   1461344.10649  23577936.1244   23577942.3584
  23361616.981    -1207373.58249   -927681.23749  23361616.2604   23361622.5954
  23877742.867    -1997041.90649  -1537132.26549  23877741.3244   23877748.2014
  23252555.592    -2153680.84049  -1655084.51149  23252555.3914   23252560.8054
  23042410.368     1203588.83249    808598.56149  23042409.6624   23042416.1504
  21820968.876     1109972.87549    750112.89549  21820968.1284   21820974.7154
 97  3 13 15 59  0.0000000  0  9 22 19 18 14  3 27 31 29 16
  24195942.173     1920028.19349   1480746.96949  24195941.8184   24195946.4634
  21194423.066    -1275104.55849   -984293.99749  21194423.0264   21194428.0774
  20345023.293    -1261489.96149   -829280.50149  20345023.0044   20345027.7964
  23595069.134     1981603.60449   1531500.60049  23595068.5144   23595075.9414
  23352206.416    -1256826.26949   -966215.78449  23352205.6844   23352212.7724
  23860841.323    -2085859.26349  -1606340.56549  23860841.0634   23860846.3734
  23233616.061    -2253208.84849  -1732638.76149  23233615.5534   23233621.4334
  23053904.330     1263989.47149    855663.95049  23053903.9144   23053910.2094
  21831836.589     1167082.97849    794614.23849  21831836.0544   21831842.5284
 97  3 13 15 59 30.0000000  0  9 22 19 18 14  3 27 31 29 16
  24212626.932     2007706.46149   1549067.65649  24212627.0674   24212632.3494
  21184703.879    -1326179.39749  -1024092.57649  21184703.7254   21184708.7444
  20335867.519    -1309604.09249   -866772.04049  20335867.3124   20335871.8714
  23612261.786     2071951.28149   1601901.31249  23612261.3724   23612267.6694
  23342924.677    -1305601.82949  -1004222.68749  23342924.4104   23342930.2594
  23843997.998    -2174371.36549  -1675311.03949  23843998.6034   23844004.9384
  23214759.618    -2352300.55049  -1809853.02649  23214759.6264   23214764.9644
  23065490.164     1324873.55749    903106.04149  23065489.1844   23065495.9574
  21842817.564     1224787.84049    839579.03949  21842816.9724   21842822.9384
 97  3 13 16  0  0.0000000  0  9 22 19 18 14  3 27 31 29 16
  24229376.444     2095724.83049   1617653.32649  24229375.8724   24229382.1544
  21175060.597    -1376855.25249  -1063580.25749  21175060.3914   21175065.8584
  20326826.484    -1357115.13649   -903793.64049  20326826.1714   20326830.9174
  23629512.690     2162605.25749   1672540.71149  23629512.6294   23629518.8314
  23333770.877    -1353705.14249  -1041705.76249  23333769.9474   23333775.9364
  23827210.638    -2262590.51349  -1744053.21149  23827210.1964   23827219.1444
  23195984.511    -2450964.27749  -1886733.80849  23195983.3854   23195990.0324
  23077169.942     1386251.31649    950932.80649  23077171.0474   23077176.5764
  21853911.651     1283087.51449    885007.31949  21853911.1824   21853917.4104
 97  3 13 16  0 30.0000000  0  9 22 19 18 14  3 27 31 29 16
  24246193.752     2184099.78349   1686516.85649  24246193.4504   24246198.1944
  21165493.791    -1427129.35349  -1102754.88749  21165493.7144   21165499.1174
  20317900.785    -1404019.90449   -940342.82149  20317900.6604   20317905.4654
  23646824.147     2253576.54849   1743427.36349  23646824.1144   23646831.2754
  23324746.246    -1401129.82949  -1078660.05949  23324745.7154   23324750.9354
  23810481.228    -2350503.90849  -1812557.18349  23810481.2074   23810488.9884
  23177295.084    -2549177.53349  -1963263.57949  23177294.4734   23177299.8824
  23088947.619     1448142.58949    999159.72349  23088948.3644   23088953.4484
  21865119.896     1341987.17949    930903.12549  21865119.5834   21865125.7464
 97  3 13 16  1  0.0000000  0  9 22 19 18 14  3 27 31 29 16
  24263079.909     2272836.28049   1755662.12949  24263079.3804   24263085.7204
  21156003.898    -1476999.29249  -1141614.58349  21156003.6934   21156009.0824
  20309093.647    -1450301.90649   -976406.72849  20309093.5374   20309098.1164
  23664200.053     2344887.56149   1814578.73349  23664200.8954   23664206.4944
  23315853.484    -1447861.43949  -1115074.30049  23315853.6304   23315858.3334
  23793810.755    -2438107.99949  -1880820.07349  23793809.6584   23793818.4414
  23158695.404    -2646919.00549  -2039425.72149  23158694.4194   23158700.7834
  23100825.303     1510559.92049   1047796.53449  23100825.3014   23100831.9744
  21876442.880     1401489.57249    977268.59649  21876442.3544   21876448.4874
 97  3 13 16  1 30.0000000  0  9 22 19 18 14  3 27 31 29 16
  24280027.577     2361897.41749   1825060.32749  24280026.5574   24280032.0514
  21146589.123    -1526474.13349  -1180166.40849  21146588.9214   21146594.4534
  20300405.151    -1495960.39949  -1011984.78649  20300405.1024   20300409.6864
  23681636.270     2436515.20049   1885976.82249  23681636.7044   23681643.0014
  23307090.296    -1493912.50349  -1150958.24249  23307090.3074   23307095.3414
  23777193.880    -2525431.05849  -1948864.02749  23777192.6124   23777201.1464
  23140184.447    -2744195.04849  -2115225.18749  23140183.5244   23140189.9674
  23112800.086     1573487.51849   1096830.96949  23112799.6124   23112806.0854
  21887876.636     1461574.25949   1024087.79849  21887875.9294   21887882.2294
 97  3 13 16  2  0.0000000  0  9 22 19 18 14  3 27 31 29 16
  24297035.889     2451276.04149   1894705.99249  24297035.3424   24297041.4554
  21137247.063    -1575566.94849  -1218420.54949  21137246.9684   21137252.2814
  20291834.252    -1541000.77249  -1047081.19149  20291833.9464   20291838.6834
  23699125.978     2528423.58449   1957593.67349  23699126.0564   23699131.6404
  23298454.187    -1539296.31749  -1186322.23849  23298454.0664   23298459.6074
  23760628.499    -2612482.94249  -2016696.65849  23760628.7794   23760634.6454
  23121761.175    -2841010.60949  -2190665.82949  23121760.2884   23121766.7684
  23124867.108     1636900.48549   1146243.60349  23124867.5474   23124873.3354
  21899417.800     1522223.18149   1071346.66349  21899417.4294   21899423.5034
 97  3 13 16  2 30.0000000  0  9 22 19 18 14  3 27 31 29 16
  24314104.200     2540970.83949   1964597.95149  24314103.3374   24314110.6074
  21127979.410    -1624269.04849  -1256370.23249  21127979.2444   21127984.3934
  20283383.900    -1585407.72049  -1081684.01749  20283383.7864   20283388.3464
  23716667.760     2620605.89849   2029423.97749  23716667.5134   23716674.4114
  23289945.110    -1584012.06249  -1221165.66849  23289944.9374   23289951.0124
  23744113.738    -2699268.75249  -2084321.95649  23744114.9814   23744120.1094
  23103422.859    -2937378.87149  -2265757.92749  23103422.6434   23103428.2264
  23137023.006     1700779.43449   1196019.35949  23137023.6524   23137029.7394
  21911066.160     1583435.38449   1119044.44749  21911065.5954   21911072.0254
 97  3 13 16  3  0.0000000  0  8 22 19 14  3 27 31 29 16
  24331231.812     2630976.39349   2034732.12349  24331231.1394   24331236.3634
  21118789.115    -1672564.42549  -1294002.98749  21118788.9274   21118794.1574
  23734262.883     2713068.41349   2101472.61249  23734262.7224   23734268.7854
  23281565.465    -1628046.87149  -1255478.49549  23281564.8084   23281570.7124
  23727650.716    -2785782.81649  -2151735.52949  23727650.8294   23727655.9744
  23085167.529    -3033310.75249  -2340509.98849  23085166.3324   23085172.1984
  23149265.472     1765113.65149   1246149.85249  23149265.3474   23149271.6704
  21922820.475     1645204.36149   1167176.07649  21922820.0374   21922826.0314
 97  3 13 16  3 30.0000000  0  9 22 19 18 14  3 27 31 29 16
  24348413.767     2721268.92049   2105089.84249  24348413.1144   24348419.4064
  21109673.932    -1720465.21849  -1331328.27549  21109673.7374   21109678.7264
  20266847.290                                    20266849.332    20266789.1494
  23751908.521     2805796.66149   2173728.31149  23751908.3864   23751915.4774
  23273314.722    -1671403.35649  -1289262.75149  23273312.9614   23273320.3874
  23711237.283    -2872035.33449  -2218945.24649  23711237.0124   23711243.0864
  23066990.812    -3128829.65849  -2414940.27749  23066990.4254   23066995.9054
  23161589.482     1829876.18749   1296614.09749  23161589.4554   23161594.9904
  21934677.714     1707513.96749   1215728.98249  21934677.4294   21934683.2834
 97  3 13 16  4  0.0000000  0  9 22 19 18 14  3 27 31 29 16
  24365650.554     2811848.90549   2175671.59249  24365650.8514   24365655.9914
  21100634.560    -1767967.44849  -1368343.00149  21100634.3654   21100639.7864
  20258759.541                                    20258761.471    20258761.4954
  23769607.941     2898807.05749   2246203.85949  23769607.9534   23769613.8274
  23265195.457    -1714070.25549  -1322509.69349  23265196.4704   23265202.0064
  23694876.625    -2958010.86749  -2285939.13749  23694875.4194   23694880.1364
  23048894.448    -3223926.35349  -2489041.55149  23048893.9034   23048900.0624
  23173995.676     1895070.81949   1347415.05349  23173996.4564   23174001.5294
  21946641.825     1770385.74949   1264719.95149  21946641.5764   21946647.5214
 97  3 13 16  4 30.0000000  0  9 22 19 18 14  3 27 31 29 16
  24382943.702     2902725.23449   2246484.25149  24382942.5804   24382948.0644
  21091673.855    -1815056.42249  -1405035.70849  21091673.3884   21091678.7174
  20250797.185       -8934.55459                  20250796.735    20250801.4824
  23787366.295     2992127.69149   2318921.15549  23787365.9194   23787373.6384
  23257210.226    -1756033.79449  -1355208.55649  23257210.8984   23257216.9254
  23678574.802    -3043677.59049  -2352692.41349  23678574.5944   23678580.5864
  23030883.611    -3318574.06749  -2562792.97249  23030883.0614   23030888.4324
  23186488.914     1960722.85649   1398572.42149  23186488.8984   23186494.8784
  21958717.208     1833842.21149   1314166.52549  21958716.5574   21958723.3824
 97  3 13 16  5  0.0000000  0  9 22 19 18 14  3 27 31 29 16
  24400294.881     2993906.05349   2317534.18249  24400294.8974   24400301.1174
  21082791.453    -1861733.58849  -1441407.52449  21082791.3774   21082796.3664
  20242962.806      -63962.00349    -41015.46249  20242962.3794   20242967.0114
  23805185.678     3085768.17549   2391887.69449  23805185.5534   23805192.0814
  23249360.720    -1797283.53149  -1387351.19749  23249360.3234   23249366.8684
  23662335.375    -3129016.32249  -2419190.11549  23662335.8264   23662340.0904
  23012964.726    -3412738.44249  -2636167.78049  23012964.1064   23012969.9514
  23199074.259     2026858.69449   1450106.77049  23199073.8854   23199079.9384
  21970905.477     1897892.07449   1364075.47949  21970904.6494   21970910.8374
 97  3 13 16  5 30.0000000  0  8 22 19 14  3 27 31 29 16
  24417699.471     3085366.64349   2388802.11849  24417697.1304   24417704.4774
  21073983.308    -1908020.95149  -1477475.60249  21073983.3554   21073988.5194
  23823059.022     3179692.83249   2465075.66549  23823059.0594   23823065.1654
  23241639.159    -1837859.80349  -1418969.03549  23241638.3894   23241644.9634
  23646153.140    -3214054.44749  -2485453.55049  23646152.8794   23646158.6314
  22995135.796    -3506430.33349  -2709174.41149  22995135.3894   22995140.6334
  23211751.330     2093476.99949   1502017.07549  23211751.3294   23211757.5064
  21983204.166     1962522.12449   1414436.52749  21983203.6954   21983210.1284
 97  3 13 16  6  0.0000000  0  9 22 19 18 14  3 27 31 29 16
  24435163.768     3177142.68649   2460315.84449  24435164.3584   24435168.9154
  21065258.098    -1953872.30849  -1513203.93049  21065257.9554   21065263.3614
  20227666.950      -27148.70349                  20227666.758    20227671.6194
  23840992.294     3273932.24349   2538508.89949  23840992.3444   23840998.9674
  23234050.837    -1877735.94149  -1450041.38349  23234050.1924   23234056.2614
  23630032.775    -3298767.46649  -2551463.67749  23630032.1694   23630039.1724
  22977406.467    -3599597.65549  -2781772.28649  22977405.8734   22977411.7864
  23224529.337     2160625.71249   1554340.67649  23224529.7134   23224534.9184
  21995618.964     2027761.99649   1465272.76949  21995618.3704   21995625.0604
 97  3 13 16  6 30.0000000  0  9 22 19 18 14  3 27 31 29 16
  24452693.181     3269259.82049   2532095.38249  24452691.7244   24452699.4554
  21056620.226    -1999264.62149  -1548574.55849  21056620.0054   21056625.2804
  20220216.529      -84899.31559    -57657.75349  20220216.2264   20220221.1064
  23858986.263     3368490.56149   2612190.62049  23858986.2784   23858992.1704
  23226601.555    -1916882.19549  -1480544.93049  23226602.7774   23226606.7944
  23613976.747    -3383142.35949  -2617210.33549  23613976.2144   23613982.3174
  22959782.907    -3692209.96249  -2853937.69949  22959783.1434   22959788.0524
  23237412.488     2228326.86749   1607094.75849  23237412.3344   23237419.4974
  22008151.255     2093619.88149   1516590.57249  22008150.7744   22008156.9584
 97  3 13 16  7  0.0000000  0  9 22 19 18 14  3 27 31 29 16
  24470282.438     3361693.79949   2604121.72649  24470283.7554   24470288.9234
  21048065.699    -2044218.94149  -1583603.88949  21048065.3984   21048070.7194
  20212892.450     -123388.17849    -87649.08149  20212892.1164   20212896.9414
  23877033.879     3463331.25149   2686092.38849  23877033.9934   23877040.3494
  23219289.420    -1955308.44449  -1510487.49949  23219289.8804   23219295.3044
  23597978.297    -3467214.87349  -2682721.36249  23597978.7194   23597984.9194
  22942258.953    -3784298.83549  -2925695.25049  22942257.5164   22942264.3434
  23250394.542     2296547.97049   1660253.99549  23250395.3564   23250400.2474
  22020794.291     2160059.13849   1568361.39049  22020793.8924   22020800.2284
 97  3 13 16  7 30.0000000  0  9 22 19 18 14  3 27 31 29 16
  24487926.146     3454410.48349   2676368.49249  24487925.3424   24487931.6754
  21039588.455    -2088767.05049  -1618316.70149  21039588.2264   21039593.6404
  20205688.045     -161245.36149   -117148.18649  20205688.2234   20205692.8534
  23895128.503     3558419.01949   2760186.66649  23895128.2374   23895134.8284
  23212108.326    -1993045.33649  -1539892.85049  23212108.5624   23212114.6104
  23582032.520    -3551011.26149  -2748017.19749  23582031.8894   23582038.1744
  22924827.444    -3875901.35649  -2997073.79649  22924826.5934   22924832.8864
  23263466.090     2365239.10749   1713779.49549  23263465.5584   23263472.1554
  22033542.339     2227050.08749   1620562.09249  22033541.9664   22033548.1104
 97  3 13 16  8  0.0000000  0  9 22 19 18 14  3 27 31 29 16
  24505627.035     3547429.75249   2748850.93749  24505625.7484   24505633.7324
  21031187.093    -2132916.54749  -1652718.90449  21031186.8424   21031192.1914
  20198608.145     -198451.97149   -146140.35349  20198608.1154   20198612.8174
  23913270.535     3653755.79749   2834474.98949  23913271.5574   23913277.1234
  23205062.733    -2030069.72749  -1568743.02149  23205062.2104   23205068.8304
  23566141.295    -3634520.81849  -2813089.58649  23566140.3114   23566146.6244
  22907491.939    -3966999.85949  -3068059.63649  22907490.7944   22907497.2854
  23276624.923     2434388.84549   1767662.34249  23276624.5284   23276631.1364
  22046397.451     2294604.08149   1673201.53849  22046396.7674   22046402.8764
 97  3 13 16  8 30.0000000  0  9 22 19 18 14  3 27 31 29 16
  24523382.284     3640733.32049   2821554.94049  24523382.2164   24523387.8054
  21022856.841    -2176692.42249  -1686829.97349  21022856.7194   21022861.8814
  20191649.248     -235021.53949   -174636.12549  20191648.9124   20191653.7174
  23931456.862     3749325.27749   2908944.61849  23931457.5974   23931463.3314
  23198150.835    -2066392.27849  -1597046.30849  23198150.4654   23198156.4034
  23550304.119    -3717745.12149  -2877939.67549  23550304.2544   23550307.7194
  22890247.856    -4057617.18149  -3138670.49949  22890247.6314   22890253.0664
  23289867.067     2503976.31449   1821886.28349  23289867.5604   23289872.4024
  22059357.012     2362706.69349   1726268.48949  22059356.7654   22059362.4844
 97  3 13 16  9  0.0000000  0  9 22 19 18 14  3 27 31 29 16
  24541189.503     3734310.62449   2894472.25749  24541190.0384   24541194.7024
  21014597.920    -2220093.16949  -1720648.72549  21014597.6774   21014602.9484
  20184809.494     -270964.42149   -202643.57149  20184809.2674   20184814.0624
  23949690.615     3845144.35249   2983608.74749  23949690.5544   23949696.6704
  23191368.981    -2102030.98249  -1624816.72549  23191368.8294   23191374.8204
  23534520.121    -3800689.88649  -2942571.90949  23534520.6304   23534526.5264
  22873094.309    -4147759.77649  -3208911.46549  22873094.3464   22873099.8934
  23303193.242     2574005.72949   1876454.59249  23303193.3354   23303199.3814
  22072419.794     2431351.99349   1779758.31349  22072419.6824   22072425.7684
 97  3 13 16  9 30.0000000  0  9 22 19 18 14  3 27 31 29 16
  24559047.771     3828155.58749   2967598.14149  24559047.1454   24559053.7094
  21006410.654    -2263117.50849  -1754174.18049  21006410.3454   21006415.6864
  20178091.808     -306266.30449   -230151.53849  20178091.7284   20178096.3254
  23967972.389     3941215.26849   3058469.11349  23967972.2884   23967979.0764
  23184716.158    -2136991.01049  -1652058.29349  23184715.4454   23184722.8804
  23518787.215    -3883366.98249  -3006995.62149  23518785.9934   23518791.8734
  22856032.305    -4237421.64549  -3278777.82849  22856032.7084   22856037.4154
  23316604.950     2644484.79149   1931373.28249  23316605.4804   23316611.6514
  22085587.108     2500546.55949   1833676.12649  22085586.4774   22085592.7604
 97  3 13 16 10  0.0000000  0  9 22 19 18 14  3 27 31 29 16
  24576956.732     3922267.22649   3040931.80249  24576955.6984   24576962.4054
  20998297.880    -2305750.37949  -1787394.59449  20998297.4814   20998302.8574
  20171496.570     -340924.65549   -257158.05349  20171496.3544   20171501.1074
  23986299.771     4037525.80349   3133516.19949  23986299.5604   23986306.3754
  23178193.460    -2171268.15649  -1678767.74349  23178193.8504   23178200.1404
  23503102.503    -3965790.31049  -3071221.58549  23503101.9014   23503107.9524
  22839062.594    -4326598.76249  -3348266.47949  22839062.7164   22839067.3974
  23330102.509     2715414.81749   1986643.35649  23330103.0664   23330108.4964
  22098855.946     2570274.36549   1888009.44649  22098855.7704   22098861.5004
 97  3 13 16 10 30.0000000  0  9 22 19 18 14  3 27 31 29 16
  24594907.533     4016599.99349   3114437.83149  24594907.8704   24594913.2984
  20990257.181    -2348004.58649  -1820319.95249  20990257.0474   20990262.4554
  20165016.821     -374976.01749   -283691.59249  20165016.6994   20165021.5144
  24004666.978     4134046.17549   3208726.78449  24004667.2754   24004673.9114
  23171796.776    -2204884.60749  -1704962.38849  23171797.1794   23171802.8314
  23487462.301    -4047979.49849  -3135265.07149  23487461.4294   23487468.9404
  22822179.185    -4415321.51649  -3417401.05649  22822178.4654   22822184.7514
  23343682.756     2786779.33949   2042252.00949  23343682.9454   23343688.7314
  22112215.658     2640480.01349   1942715.10849  22112215.3024   22112221.7394
 97  3 13 16 11  0.0000000  0  9 22 19 18 14  3 27 31 29 16
  24612907.851     4111192.77749   3188146.38849  24612907.7984   24612913.1784
  20982295.280    -2389844.77649  -1852922.70249  20982295.1594   20982300.2714
  20158659.590     -408383.70449   -309723.56149  20158659.3314   20158664.2524
  24023076.744     4230790.11749   3284111.58449  24023076.8404   24023083.5014
  23165533.992    -2237795.82649  -1730607.49849  23165532.9554   23165539.4874
  23471871.625    -4129908.59349  -3199105.89649  23471871.8914   23471876.1824
  22805390.976    -4503543.62949  -3486145.53849  22805390.8964   22805396.9434
  23357353.844     2858620.67149   2098232.20049  23357354.7104   23357360.1894
  22125669.528     2711180.52749   1997806.37749  22125669.2084   22125675.8864
 97  3 13 16 11 30.0000000  0  8 19 18 14  3 27 31 29 16
  20974406.034    -2431303.02949  -1885227.82749  20974406.0014   20974411.0544
  20152421.389     -441165.68749   -335267.97149  20152421.3694   20152426.0184
  24041520.772     4327713.90749   3359636.51049  24041520.4924   24041527.3874
  23159403.433    -2270010.90449  -1755710.15049  23159403.9684   23159408.6724
  23456329.296    -4211584.34849  -3262749.33749  23456327.8624   23456338.2994
  22788694.496    -4591283.63549  -3554514.35449  22788693.9854   22788699.5334
  23371110.108     2930909.66049   2154561.21949  23371109.8474   23371116.9154
  22139213.872     2782356.85449   2053268.42449  22139213.5914   22139219.3764
 97  3 13 16 12  0.0000000  0  8 19 18 14  3 27 31 29 16
  20966589.172    -2472380.68349  -1917236.38249  20966588.8834   20966594.1424
  20146303.471     -473315.83649   -360320.04449  20146303.0554   20146307.9074
  24060003.583     4424841.32249   3435320.13149  24060003.8964   24060010.3704
  23153409.841    -2301507.62949  -1780253.04949  23153410.0684   23153416.3014
  23440842.158    -4292970.14649  -3326166.81549  23440841.2134   23440846.8314
  22772093.674    -4678521.07349  -3622491.55949  22772093.2784   22772098.7304
  23384955.463     3003667.37749   2211255.47549  23384955.8224   23384961.5094
  22152848.900     2854009.31649   2109101.48249  22152848.5724   22152854.5834
 97  3 13 16 12 30.0000000  0  8 19 18 14  3 27 31 29 16
  20958842.179    -2513091.43849  -1948959.04949  20958841.8864   20958847.2444
  20140307.727     -504823.78449   -384871.69749  20140307.5054   20140312.2964
  24078529.502     4522195.18749   3511180.19549  24078529.3314   24078537.2514
  23147555.607    -2332272.39649  -1804225.60049  23147555.6014   23147561.8784
  23425410.007    -4374066.38849  -3389358.66349  23425410.2664   23425417.1024
  22755590.476    -4765246.29449  -3690069.64649  22755590.4834   22755595.6054
  23398892.861     3076908.96749   2268326.75949  23398893.0234   23398898.5864
  22166577.400     2926153.06449   2165317.35649  22166577.2384   22166583.6844
 97  3 13 16 13  0.0000000  0  8 19 18 14  3 27 31 29 16
  20951156.404    -2553480.56649  -1980431.09949  20951156.3164   20951161.6974
  20134429.776     -535712.62649   -408940.93249  20134429.5944   20134434.3414
  24097093.516     4619749.37049   3587196.34049  24097093.5894   24097101.3944
  23141830.997    -2362355.52749  -1827666.99849  23141830.5244   23141836.9494
  23410022.700    -4454927.00949  -3452366.91949  23410022.3694   23410028.0894
  22739177.271    -4851498.29149  -3757278.96449  22739177.6254   22739182.4974
  23412912.505     3150582.06049   2325734.30149  23412911.7984   23412919.1304
  22180396.971     2998775.16049   2221905.97649  22180396.6214   22180403.0424
 97  3 13 16 13 30.0000000  0  8 19 18 14  3 27 31 29 16
  20943537.953    -2593515.85749  -2011627.42849  20943537.5714   20943542.8864
  20128675.763     -565950.43749   -432502.87249  20128675.7384   20128680.4014
  24115702.588     4717541.24049   3663397.70449  24115702.1574   24115709.6064
  23136238.287    -2391743.55549  -1850566.72549  23136238.4054   23136244.5354
  23394684.459    -4535530.11349  -3515174.47849  23394683.8774   23394690.0684
  22722859.031    -4937252.18349  -3824100.15649  22722859.0824   22722864.8934
  23427015.795     3224694.64949   2383484.28949  23427016.2844   23427022.1824
  22194316.136     3071920.66949   2278902.43849  22194315.9554   22194322.0004
 97  3 13 16 14  0.0000000  0  8 19 18 14  3 27 31 29 16
  20935988.930    -2633186.25449  -2042539.43649  20935988.8274   20935993.8574
  20123048.104     -595523.83149   -455547.08549  20123047.7944   20123052.5944
  24134354.499     4815557.54749   3739773.94649  24134354.8544   24134362.1784
  23130779.327    -2420431.68649  -1872921.14449  23130779.5154   23130785.7304
  23379391.145    -4615897.15349  -3577798.16649  23379391.0744   23379398.0544
  22706635.856    -5022505.22149  -3890531.07349  22706635.6634   22706641.2114
  23441199.967     3299232.83349   2441565.92749  23441200.4554   23441206.2584
  22208331.914     3145573.87449   2336294.51049  22208331.4924   22208337.7304
 97  3 13 16 14 30.0000000  0  8 19 18 14  3 27 31 29 16
  20928513.568    -2672469.78049  -2073149.97649  20928513.5324   20928518.8624
  20117545.870     -624438.33349   -478077.87849  20117545.7034   20117550.3944
  24153041.809     4913759.14249   3816294.57649  24153042.1474   24153050.1564
  23125450.674    -2448434.86349  -1894741.79649  23125450.1344   23125456.5164
  23364137.931    -4696053.10749  -3640257.30649  23364136.5554   23364142.8644
  22690508.287    -5107256.14549  -3956570.73649  22690508.4184   22690513.0894
  23455460.186     3374170.44549   2499958.78849  23455461.0724   23455465.2564
  22222442.143     3219723.39349   2394073.32249  22222441.9144   22222448.2454
 97  3 13 16 15  0.0000000  0  8 19 18 14  3 27 31 29 16
  20921114.328    -2711353.00049  -2103448.58649  20921114.1744   20921119.3764
  20112165.962     -652709.92649   -500107.70049  20112165.5974   20112170.2514
  24171758.731     5012116.65549   3892936.69049  24171758.3404   24171766.1074
  23120248.702    -2475770.99949  -1916042.67649  23120248.5554   23120255.3314
  23348926.547    -4775988.57049  -3702544.66949  23348928.8934   23348932.4804
  22674474.976    -5191511.57549  -4022224.29949  22674475.1574   22674480.6044
  23469794.015     3449494.38549   2558652.68649  23469794.2404   23469799.9084
  22236641.848     3294343.28949   2452218.66349  22236641.2244   22236647.8934
 97  3 13 16 15 30.0000000  0  8 19 18 14  3 27 31 29 16
  20913791.315    -2749835.70849  -2133435.11049  20913791.3244   20913796.5854
  20106907.874     -680341.49049   -521638.79749  20106907.8374   20106912.3864
  24190502.391     5110615.12249   3969688.65249  24190502.8634   24190509.9564
  23115176.456    -2502424.73349  -1936811.80749  23115176.3664   23115182.5974
  23333759.924    -4855689.79549  -3764649.48249  23333758.6454   23333764.9604
  22658536.116    -5275270.74649  -4087491.17249  22658535.8524   22658541.5584
  23484201.636     3525206.37649   2617648.95849  23484202.6254   23484207.4874
  22250927.008     3369412.17049   2510713.86849  22250926.5444   22250932.8204
 97  3 13 16 16  0.0000000  0  8 19 18 14  3 27 31 29 16
  20906541.116    -2787935.75249  -2163123.46249  20906540.9334   20906546.2814
  20101769.494     -707344.13049   -542679.82849  20101769.2454   20101774.0654
  24209271.904     5209248.17549   4046545.49749  24209272.8094   24209278.5724
  23110233.338    -2528400.58449  -1957052.74549  23110233.3284   23110238.3424
  23318638.142    -4935155.36749  -3826570.67749  23318636.4244   23318643.6484
  22642689.961    -5358542.78349  -4152378.44749  22642689.6924   22642695.8184
  23498681.105     3601295.74249   2676939.28649  23498682.2114   23498687.3284
  22265290.351     3444891.55849   2569528.93149  22265289.9904   22265296.1814
 97  3 13 16 16 29.9990000  0  8 19 18 14  3 27 31 29 16
  20899367.937    -2825631.11549  -2192496.47949  20899367.8594   20899373.1924
  20096754.902     -733696.03449   -563213.78949  20096754.6764   20096759.3974
  24228076.825     5308068.07749   4123547.93949  24228077.0514   24228084.4914
  23105423.029    -2553679.35749  -1976750.50849  23105422.9494   23105428.2354
  23303572.336    -5014326.43549  -3888262.43249  23303572.0034   23303578.3194
  22626942.900    -5441294.25249  -4216860.09449  22626943.0334   22626948.4424
  23513241.260     3677808.89949   2736559.86849  23513241.3024   23513247.5034
  22279739.870     3520824.25549   2628697.23049  22279739.9274   22279745.6474
 97  3 13 16 16 59.9990000  0  8 19 18 14  3 27 31 29 16
  20892258.320    -2862992.50149  -2221609.24649  20892258.3704   20892263.3434
  20091860.241     -759417.55849   -583256.54449  20091860.2354   20091864.9604
  24246916.986     5407073.54849   4200694.98349  24246917.9284   24246924.2354
  23100739.092    -2578293.58449  -1995930.40749  23100739.8014   23100745.4674
  23288556.990    -5093232.21449  -3949747.40849  23288557.7374   23288562.5194
  22611285.075    -5523577.09749  -4280976.57449  22611284.9034   22611290.4584
  23527876.162     3754715.45849   2796486.97849  23527875.9404   23527882.1734
  22294272.505     3597193.54349   2688205.73449  22294272.3064   22294278.1484
 97  3 13 16 17 29.9990000  0  8 19 18 14  3 27 31 29 16
  20885210.891    -2900027.07249  -2250467.35949  20885210.7894   20885215.9094
  20087087.023     -784501.26749   -602802.29849  20087086.9994   20087091.5384
  24265793.462     5506269.09549   4277990.13849  24265793.5514   24265800.1914
  23096184.467    -2602229.22049  -2014581.55649  23096184.8444   23096191.0224
  23273593.489    -5171865.79349  -4011020.28849  23273594.5564   23273600.3514
  22595719.984    -5605372.48149  -4344713.20849  22595719.7694   22595725.2114
  23542586.090     3832016.96649   2856721.85349  23542586.2474   23542590.9924
  22308890.482     3674011.37749   2748063.74649  22308890.1574   22308896.0654
 97  3 13 16 17 59.9990000  0  8 19 18 14  3 27 31 29 16
  20878226.221    -2936731.75149  -2279068.41349  20878226.2254   20878231.5004
  20082434.068     -808952.99249   -621855.59649  20082433.8904   20082438.6114
  24284706.540     5605657.83249   4355435.81249  24284706.4984   24284713.4634
  23091758.164    -2625489.73049  -2032706.62449  23091757.9594   23091763.9244
  23258682.493    -5250223.80549  -4072078.44449  23258681.6804   23258689.4624
  22580252.442    -5686654.71949  -4408049.98949  22580252.2174   22580257.4424
  23557373.794     3909726.76049   2917274.86149  23557373.8994   23557379.6364
  22323596.142     3751290.00049   2808280.82549  22323595.7564   22323602.0754
 97  3 13 16 18 29.9990000  0  8 19 18 14  3 27 31 29 16
  20871302.668    -2973115.19149  -2307419.15349  20871302.4884   20871307.8964
  20077898.777     -832786.06549   -640426.83649  20077898.6004   20077903.3504
  24303652.982     5705221.97449   4433018.16549  24303653.0514   24303659.8764
  23087460.892    -2648071.53849  -2050302.85249  23087460.0744   23087467.1014
  23243820.892    -5328322.58449  -4132934.62849  23243821.2074   23243826.0124
  22564884.447    -5767413.77149  -4470979.10249  22564883.9564   22564889.3804
  23572241.569     3987857.46549   2978155.85249  23572241.5074   23572247.2034
  22338391.350     3829039.46049   2868864.77849  22338391.2344   22338397.2494
 97  3 13 16 18 59.9990000  0  8 19 18 14  3 27 31 29 16
  20864441.443    -3009171.07049  -2335514.64949  20864441.2884   20864446.5704
  20073480.215     -856005.54649   -658519.94949  20073480.0194   20073484.7504
  24322629.499     5804943.22449   4510722.95749  24322629.1944   24322636.0884
  23083295.433    -2669961.06749  -2067359.61249  23083296.2874   23083302.3954
  23229003.903    -5406186.27449  -4193607.59249  23229003.6054   23229009.8784
  22549619.214    -5847633.08549  -4533487.62049  22549619.2434   22549623.9944
  23587189.687     4066410.79449   3039366.16049  23587189.8184   23587195.8194
  22353273.825     3907246.98749   2929805.66949  22353273.4714   22353279.8024
 97  3 13 16 19 29.9990000  0  8 19 18 14  3 27 31 29 16
  20857646.629    -3044878.17549  -2363338.37949  20857646.6424   20857651.6684
  20069174.916     -878630.17249   -676149.54249  20069174.7294   20069179.4444
  24341633.120     5904808.52649   4588539.97349  24341633.4284   24341640.6184
  23079262.400    -2691155.15849  -2083874.48949  23079262.7894   23079268.4114
  23214230.047    -5483823.37949  -4254104.02349  23214230.2534   23214235.9864
  22534459.985    -5927295.61649  -4595562.29949  22534459.3384   22534464.9694
  23602219.739     4145393.61249   3100911.12649  23602219.8534   23602226.5254
  22368241.749     3985903.84549   2991096.70049  22368241.0294   22368247.7404
 97  3 13 16 19 59.9990000  0  8 19 18 14  3 27 31 29 16
  20850920.547    -3080224.28349  -2390880.80449  20850920.5884   20850925.6314
  20064986.620     -900639.91949   -693300.00549  20064986.5694   20064991.2824
  24360666.675     6004829.70749   4666478.47549  24360666.8614   24360673.4674
  23075362.106    -2711651.92549  -2099845.99249  23075362.3094   23075367.7134
  23199497.939    -5561241.24049  -4314429.59049  23199498.0624   23199503.3224
  22519405.720    -6006406.06549  -4657206.76649  22519405.2904   22519411.5934
  23617333.751     4224818.14849   3162800.29049  23617334.4304   23617340.4234
  22383294.615     4065006.95749   3052735.45149  22383294.0284   22383300.6194
 97  3 13 16 20 29.9990000  0  8 19 18 14  3 27 31 29 16
  20844259.772    -3115227.02749  -2418155.67249  20844259.7094   20844264.8854
  20060916.646     -922028.01249   -709966.06149  20060916.4374   20060921.0674
  24379726.494     6104989.29649   4744524.81149  24379726.1074   24379734.0924
  23071590.222    -2731473.76549  -2115291.56849  23071590.1114   23071596.0904
  23184801.903    -5638469.28549  -4374607.24549  23184801.7864   23184808.4834
  22504450.836    -6084995.20649  -4718445.03649  22504449.9934   22504455.6904
  23632526.404     4304655.36249   3225011.03549  23632526.9524   23632532.6324
  22398427.746     4144531.70149   3114702.74949  22398427.3114   22398433.3574
 97  3 13 16 20 59.9990000  0  8 19 18 14  3 27 31 29 16
  20837671.004    -3149851.19749  -2445135.53849  20837670.7214   20837675.9044
  20056972.004     -942757.13749   -726118.63549  20056971.9474   20056976.6544
  24398816.086     6205305.30049   4822693.04849  24398816.1414   24398823.7914
  23067949.406    -2750605.63049  -2130199.51049  23067949.4314   23067955.3434
  23170147.240    -5715480.04849  -4434615.61349  23170146.4314   23170152.2274
  22489595.487    -6163060.10649  -4779274.79649  22489595.0974   22489600.8014
  23647796.688     4384900.74749   3287539.82249  23647797.1214   23647803.2054
  22413643.513     4224490.88549   3177008.57149  22413642.7984   22413649.5324
 97  3 13 16 21 29.9990000  0  8 19 18 14  3 27 31 29 16
  20831150.607    -3184116.20049  -2471835.54749  20831150.5654   20831155.6154
  20053154.670     -962817.50649   -741750.10349  20053154.7204   20053159.4194
  24417932.166     6305760.56549   4900969.78349  24417933.1874   24417938.8344
  23064435.045    -2769073.82249  -2144590.29649  23064435.5644   23064440.4664
  23155533.205    -5792277.61249  -4494457.84349  23155533.2284   23155538.4934
  22474833.647    -6240634.01349  -4839721.95949  22474833.3474   22474839.5724
  23663138.010     4465519.29849   3350359.39349  23663138.0104   23663144.1144
  22428937.239     4304860.27949   3239634.02949  22428937.1304   22428943.1624
 97  3 13 16 21 59.9990000  0  8 19 18 14  3 27 31 29 16
  20824695.166    -3218039.83449  -2498269.54649  20824695.1944   20824700.2274
  20049465.038     -982206.71349   -756858.58649  20049464.7844   20049469.6614
  24437072.416     6406342.51449   4979345.21449  24437071.0384   24437079.0544
  23061045.386    -2786886.45949  -2158470.27749  23061044.4314   23061051.7394
  23140961.034    -5868854.84649  -4554128.39649  23140959.8074   23140966.7674
  22460162.357    -6317732.04349  -4899798.31949  22460161.8044   22460167.4684
  23678548.123     4546499.57149   3413460.82749  23678548.1224   23678554.5024
  22444306.641     4385626.69049   3302568.86149  22444306.6204   22444312.7374
 97  3 13 16 22 29.9990000  0  8 19 18 14  3 27 31 29 16
  20818307.635    -3251606.66249  -2524425.51349  20818307.6064   20818312.4734
  20045904.612    -1000916.93949   -771437.99249  20045904.4794   20045908.9234
  24456236.540     6507051.59549   5057819.70049  24456236.0204   24456244.3034
  23057786.592    -2804010.06449  -2171813.30849  23057785.8674   23057793.5404
  23126436.655    -5945180.77249  -4613603.12449  23126436.8114   23126442.3184
  22445588.665    -6394316.78749  -4959474.70749  22445588.4424   22445593.8114
  23694028.183     4627847.76349   3476848.93949  23694029.0154   23694034.7464
  22459755.810     4466812.19249   3365830.25549  22459755.1354   22459761.9034
 97  3 13 16 22 59.9990000  0  8 19 18 14  3 27 31 29 16
  20811986.137    -3284826.51349  -2550311.11949  20811985.8824   20811990.8904
  20042466.570    -1018984.24449   -785516.42449  20042466.1894   20042470.9534
  24475420.620     6607865.33049   5136375.73449  24475421.6584   24475428.5284
  23054659.727    -2820441.80549  -2184617.25049  23054659.7814   23054665.8254
  23111959.148    -6021260.10749  -4672885.69049  23111959.2344   23111964.6904
  22431112.283    -6470390.06049  -5018752.55949  22431112.3044   22431118.3324
  23709575.994     4709551.79449   3540514.33649  23709576.4024   23709582.1804
  22475279.454     4548389.69249   3429397.08849  22475279.1384   22475286.0664
 97  3 13 16 23 29.9990000  0  8 19 18 14  3 27 31 29 16
  20805727.019    -3317718.29949  -2575941.08549  20805726.7854   20805731.9854
  20039146.698    -1036430.45849   -799110.88549  20039146.4984   20039151.1784
  24494624.250     6708781.88449   5215011.89549  24494623.8754   24494632.1924
  23051664.416    -2836182.48749  -2196882.72649  23051663.9554   23051670.3354
  23097528.207    -6097095.44049  -4731978.11549  23097528.0044   23097534.4064
  22416737.155    -6545931.93349  -5077616.32849  22416736.8064   22416742.4844
  23725193.104     4791619.71849   3604463.27449  23725193.3704   23725199.5284
  22490875.383     4630346.65849   3493259.61749  22490874.9114   22490881.2504
 97  3 13 16 23 59.9990000  0  9 19 18 14  3 27  2 31 29 16
  20799532.059    -3350273.02549  -2601308.40249  20799532.0244   20799537.2044
  20035941.644    -1053273.05949   -812234.99949  20035941.5364   20035946.0324
  24513848.112     6809804.49749   5293730.71949  24513848.1264   24513856.6674
  23048805.379    -2851206.44249  -2208589.68849  23048805.3744   23048812.2424
  23083145.030    -6172679.62349  -4790874.86349  23083144.2324   23083150.0714
  24920394.993    -3019213.92549  -2078271.85549  24920394.7304   24920402.9864
  22402467.895    -6620917.43849  -5136046.56149  22402466.8654   22402473.9974
  23740882.743     4874069.14149   3668709.49749  23740881.6304   23740888.1254
  22506545.289     4712692.81749   3557425.41649  22506544.8234   22506551.5894
 97  3 13 16 24 29.9990000  0  9 19 18 14  3 27  2 31 29 16
  20793400.422    -3382495.03549  -2626416.46649  20793400.1894   20793405.3224
  20032852.251    -1069507.87049   -824885.51149  20032852.0854   20032856.7904
  24533091.903     6910931.06749   5372530.53749  24533092.6134   24533100.7174
  23046082.609    -2865515.06749  -2219739.25149  23046083.4084   23046089.3394
  23068807.232    -6248025.09949  -4849585.61549  23068806.4784   23068812.3844
  24900953.110    -3121381.65549  -2157883.02749  24900952.4994   24900960.9394
  22388305.584    -6695340.44849  -5194038.49149  22388305.5394   22388311.1354
  23756643.093     4956890.48849   3733245.52949  23756644.1184   23756649.5164
  22522286.911     4795415.27649   3621884.43449  22522286.2964   22522292.8904
 97  3 13 16 24 59.9990000  0  9 19 18 14  3 27  2 31 29 16
  20787326.259    -3414414.73149  -2651288.95949  20787326.1844   20787331.2014
  20029875.333    -1085151.84749   -837075.63549  20029875.2664   20029879.7864
  24552353.462     7012150.54249   5451402.73649  24552353.5894   24552361.6224
  23043489.848    -2879140.77449  -2230356.69349  23043489.2444   23043495.5764
  23054508.589    -6323164.69449  -4908135.90649  23054507.9364   23054515.2404
  24881566.113    -3223260.54149  -2237269.12449  24881565.8204   24881573.1134
  22374242.263    -6769243.65449  -5251625.38149  22374241.3454   22374247.2044
  23772470.145     5040061.84649   3798054.27649  23772470.8814   23772475.6734
  22538095.019     4878487.12449   3686615.69149  22538094.7724   22538101.2194
 97  3 13 16 25 29.9990000  0  9 19 18 14  3 27  2 31 29 16
  20781311.067    -3446024.84849  -2675920.22049  20781311.1184   20781316.0944
  20027013.917    -1100188.76549   -848792.72449  20027013.9574   20027018.5374
  24571633.679     7113468.27349   5530351.51449  24571633.9924   24571641.9634
  23041025.257    -2892091.38849  -2240448.07049  23041025.6404   23041031.4694
  23040249.404    -6398097.12649  -4966524.80549  23040249.8974   23040255.4844
  24862237.052    -3324835.17849  -2316418.13649  24862236.5824   24862244.4214
  22360276.426    -6842634.57149  -5308813.08849  22360276.7734   22360282.8324
  23788364.771     5123588.90449   3863140.19249  23788365.3674   23788371.8234
  22553974.126     4961932.16749   3751637.76349  22553974.1494   22553980.9964
 97  3 13 16 25 59.9990000  0  9 19 18 14  3 27  2 31 29 16
  20775355.434    -3477321.91149  -2700307.54049  20775355.1714   20775360.4204
  20024271.441    -1114600.65449   -860022.77049  20024271.2454   20024275.8354
  24590930.313     7214872.02949   5609367.32749  24590931.6024   24590937.7104
  23038690.086    -2904362.88049  -2250010.27949  23038689.8974   23038696.6854
  23026029.427    -6472823.75349  -5024753.31349  23026029.1824   23026034.1974
  24842965.711    -3426107.24549  -2395331.38949  24842965.2034   24842972.7584
  22346407.796    -6915515.19249  -5365603.16849  22346407.7144   22346413.6524
  23804328.059     5207476.05549   3928506.71849  23804328.4164   23804335.7314
  22569925.454     5045756.56649   3816955.42149  22569925.1164   22569932.0284
 97  3 13 16 26 29.9990000  0  9 19 18 14  3 27  2 31 29 16
  20769459.457    -3508305.50449  -2724450.60249  20769459.4224   20769464.5584
  20021651.388    -1128368.96849   -870751.33149  20021651.3594   20021656.0204
  24610242.452     7316357.28949   5688446.67849  24610243.3034   24610250.2854
  23036481.556    -2915968.54749  -2259053.64949  23036481.8654   23036488.2414
  23011847.854    -6547348.18049  -5082824.27249  23011848.0694   23011854.3794
  24823750.955    -3527081.98649  -2474012.97649  24823750.6954   24823758.2804
  22332637.746    -6987876.97949  -5421988.96249  22332636.9274   22332642.9674
  23820358.674     5291717.18549   3994149.05949  23820359.1884   23820365.5704
  22585950.206     5129966.80349   3882573.73949  22585950.0424   22585956.8714
 97  3 13 16 26 59.9990000  0  8 19 18  3 27  2 31 29 16
  20763627.557    -3538952.20949  -2748331.15449  20763627.4704   20763632.6914
  20019153.166    -1141497.35449   -880981.25249  20019153.0694   20019157.6484
  23034400.434    -2926905.63049  -2267576.06149  23034401.1564   23034406.6634
  22997706.352    -6621661.93949  -5140731.06549  22997706.8294   22997711.4014
  24804590.753    -3627769.72049  -2552470.90449  24804590.2694   24804598.1174
  22318970.473    -7059699.01349  -5477954.17149  22318970.0494   22318975.2604
  23836460.201     5376330.69049   4060081.58749  23836460.8924   23836466.9764
  22602052.520     5214584.98049   3948509.93449  22602052.5554   22602058.5534
 97  3 13 16 27 29.9990000  0  8 19 18  3 27  2 31 29 16
  20757858.550    -3569268.75449  -2771954.43349  20757858.6244   20757863.7414
  20016775.362    -1153993.03549   -890718.15049  20016775.1454   20016779.7784
  23032443.065    -2937191.73149  -2275591.20349  23032442.4624   23032449.4764
  22983604.338    -6695768.21149  -5198476.17949  22983603.8724   22983609.6264
  24785481.622    -3728189.06549  -2630719.71249  24785480.8694   24785488.8074
  22305409.994    -7130959.47449  -5533481.77549  22305410.0464   22305415.4364
  23852630.171     5461303.95749   4126294.44349  23852630.8274   23852638.0204
  22618228.791     5299591.51949   4014748.75549  22618228.5164   22618235.2324
 97  3 13 16 27 59.9990000  0  8 19 18  3 27  2 31 29 16
  20752147.007    -3599283.27449  -2795342.37149  20752146.9184   20752151.9784
  20014515.032    -1165871.04249   -899973.74849  20014514.8604   20014519.4574
  23030607.153    -2946838.79249  -2283108.37649  23030606.9534   23030613.8094
  22969536.703    -6769693.99249  -5256080.66449  22969536.2614   22969542.4884
  24766417.642    -3828370.50049  -2708783.11049  24766416.4674   24766426.2104
  22291956.535    -7201657.99049  -5588571.51949  22291956.5004   22291961.9874
  23868864.202     5546614.29849   4192769.92549  23868865.0094   23868871.5364
  22634471.835     5384949.20349   4081261.18949  22634471.5414   22634478.4314
 97  3 13 16 28 29.9990000  0  8 19 18  3 27  2 31 29 16
  20746493.013    -3628995.26949  -2818494.57549  20746492.9524   20746497.9714
  20012370.323    -1177141.72949   -908756.11649  20012370.1744   20012374.8634
  23028890.752    -2955859.59849  -2290137.59849  23028891.8704   23028897.0604
  22955501.904    -6843447.65649  -5313551.02149  22955501.5974   22955507.4234
  24747396.526    -3928326.39949  -2786670.79849  24747395.6844   24747404.4044
  22278607.438    -7271808.08949  -5643233.90749  22278606.8614   22278612.6644
  23885160.190     5632249.64949   4259498.68549  23885160.3484   23885166.8064
  22650778.298     5470640.10649   4148033.27149  22650778.3324   22650784.7264
 97  3 13 16 28 59.9990000  0  8 19 18  3 27  2 31 29 16
  20740892.050    -3658428.63049  -2841429.66049  20740891.8694   20740897.3534
  20010336.823    -1187827.77149   -917082.91549  20010336.6824   20010341.3514
  23027292.173    -2964260.72349  -2296683.93149  23027291.0384   23027298.7264
  22941496.391    -6917046.70849  -5370900.89149  22941495.9534   22941501.4154
  24728413.688    -4028081.24149  -2864401.85049  24728413.8454   24728419.8624
  22265355.420    -7341447.85149  -5697498.63549  22265355.4654   22265360.5364
  23901514.095     5718189.49349   4326464.70749  23901514.2664   23901520.1004
  22667141.344     5556628.04549   4215036.81449  22667141.0054   22667148.0584
 97  3 13 16 29 29.9990000  0  8 19 18  3 27  2 31 29 16
  20735348.176    -3687561.63249  -2864130.69849  20735347.9574   20735353.0904
  20008422.961    -1197885.19049   -924919.87549  20008422.7474   20008427.5834
  23025821.658    -2971987.33449  -2302704.66549  23025822.1154   23025827.6734
  22927528.477    -6990448.51949  -5428097.07049  22927527.8734   22927534.3724
  24709479.311    -4127583.10849  -2941935.81149  24709479.1044   24709485.8384
  22252204.607    -7410555.88349  -5751349.03749  22252203.9004   22252209.7884
  23917933.461     5804473.43949   4393698.86849  23917934.0194   23917941.1324
  22683564.309     5642930.96849   4282285.79449  22683564.7754   22683570.1284
 97  3 13 16 29 59.9990000  0  8 19 18  3 27  2 31 29 16
  20729860.043    -3716401.95149  -2886603.67549  20729859.7474   20729865.1594
  20006623.913    -1207339.21549   -932286.65249  20006623.6334   20006628.3724
  23024480.072    -2979038.28849  -2308198.93049  23024481.1734   23024485.8214
  22913595.471    -7063666.65149  -5485150.14149  22913595.1684   22913600.9334
  24690590.700    -4226844.02449  -3019281.99849  24690590.2604   24690596.9044
  22239147.679    -7479170.37249  -5804814.85449  22239147.6384   22239152.7004
  23934415.837     5891088.05549   4461190.66849  23934415.8894   23934422.5874
  22700044.599     5729534.99449   4349769.41149  22700043.7674   22700050.0974
 97  3 13 16 30 29.9990000  0  8 19 18  3 27  2 31 29 16
  20724431.943    -3744926.90049  -2908830.91449  20724431.7944   20724437.0724
  20004941.135    -1216182.12549   -939177.24049  20004940.9584   20004945.6524
  23023268.908    -2985403.37949  -2313158.75449  23023269.5624   23023274.5274
  22899702.018    -7136677.17449  -5542041.44349  22899701.8264   22899707.6094
  24671751.167    -4325845.43849  -3096425.93449  24671750.2234   24671758.1494
  22226184.761    -7547290.87349  -5857895.74849  22226184.4634   22226189.9504
  23950962.471     5978040.88849   4528946.03849  23950963.2334   23950969.5164
  22716582.977     5816444.33749   4417490.92449  22716582.6274   22716589.3624
 97  3 13 16 30 59.9990000  0  8 19 18  3 27  2 31 29 16
  20719065.264    -3773129.09849  -2930806.65249  20719065.2404   20719070.4204
  20003376.182    -1224406.22449   -945585.63749  20003376.0714   20003380.7774
  23022189.909    -2991074.10049  -2317577.50549  23022189.3804   23022196.9584
  22885847.848    -7209480.99449  -5598771.65449  22885847.5474   22885853.0774
  24652964.944    -4424566.72549  -3173351.58749  24652964.6284   24652972.7364
  22213319.571    -7614897.30549  -5910576.06049  22213319.2294   22213324.9994
  23967572.733     6065327.90249   4596961.79649  23967572.9944   23967578.9744
  22733180.956     5903667.42849   4485456.92349  22733180.3674   22733187.5344
 97  3 13 16 31 29.9990000  0  9 19 18 10  3 27  2 31 29 16
  20713760.528    -3801005.65849  -2952528.64649  20713760.5324   20713765.8454
  20001927.260    -1232020.51649   -951518.86049  20001927.2044   20001932.0184
  24673305.911    -4718561.79649  -3664152.45649  24673302.5184   24673310.7634
  23021239.133    -2996070.40149  -2321470.72649  23021238.5284   23021244.3174
  22872030.718    -7282090.15849  -5655350.20449  22872030.6534   22872036.2434
  24634233.601    -4523000.20049  -3250052.99049  24634232.6964   24634240.4114
  22200553.841    -7681981.50549  -5962849.44349  22200553.2274   22200559.5404
  23984244.210     6152937.12349   4665228.60749  23984243.7944   23984250.9504
  22749837.850     5991200.25349   4553664.27049  22749837.8254   22749843.8904
 97  3 13 16 31 59.9990000  0  9 19 18 10  3 27  2 31 29 16
  20708517.659    -3828557.10049  -2973997.29849  20708517.3124   20708522.8104
  20000594.015    -1239026.73249   -956978.26549  20000593.8474   20000598.5714
  24659123.465    -4793091.26949  -3722227.39649  24659121.3754   24659129.2684
  23020410.825    -3000423.35949  -2324862.66349  23020410.5614   23020416.2894
  22858246.507    -7354526.47249  -5711794.06049  22858246.0464   22858251.9884
  24615553.438    -4621165.27049  -3326545.26849  24615552.7474   24615560.6854
  22187887.889    -7748540.88749  -6014713.87249  22187887.2654   22187893.3384
  24000971.047     6240837.09649   4733721.99549  24000971.6134   24000978.4604
  22766551.758     6079032.09549   4622104.64049  22766551.3144   22766557.4194
 97  3 13 16 32 29.9990000  0  9 19 18 10  3 27  2 31 29 16
  20703335.640    -3855788.47849  -2995216.55449  20703335.5494   20703340.9164
  19999380.320    -1245404.79849   -961948.20149  19999380.2874   19999384.9374
  24645038.591    -4867107.34349  -3779902.27249  24645038.5954   24645044.8274
  23019703.125    -3004142.76049  -2327760.91049  23019702.9914   23019709.3514
  22844494.549    -7426793.34049  -5768105.88349  22844494.5364   22844500.0594
  24596927.111    -4719047.47749  -3402817.15449  24596926.7924   24596933.1284
  22175325.946    -7814554.11349  -6066152.72549  22175325.1824   22175331.6544
  24017752.638     6329024.08149   4802439.01449  24017753.2454   24017759.8364
  22783323.790     6167169.68549   4690783.24449  22783323.3534   22783329.7184
 97  3 13 16 32 59.9990000  0  9 19 18 10  3 27  2 31 29 16
  20698210.725    -3882720.16949  -3016202.29149  20698210.6574   20698215.9774
  19998283.825    -1251167.04249   -966438.27749  19998283.6464   19998288.3354
  24631055.660    -4940588.19049  -3837160.05949  24631055.0154   24631061.0214
  23019116.240    -3007226.50249  -2330163.81149  23019115.3684   23019121.6564
  22830775.755    -7498885.97349  -5824281.93149  22830775.9434   22830781.4834
  24578353.957    -4816649.60549  -3478870.76049  24578352.8804   24578361.0444
  22162869.361    -7880013.49749  -6117160.01549  22162868.8954   22162874.7744
  24034590.443     6417506.93349   4871386.58849  24034590.7294   24034597.8094
  22800155.604     6255621.44749   4759706.63749  22800155.0514   22800162.1274
 97  3 13 16 33 29.9990000  0  9 19 18 10  3 27  2 31 29 16
  20693142.054    -3909356.37449  -3036957.76849  20693141.7064   20693146.9834
  19997305.852    -1256306.35449   -970442.94349  19997305.7234   19997310.4184
  24617177.837    -5013516.88349  -3893987.61249  24617178.7024   24617184.7854
  23018651.461    -3009669.42449  -2332067.39349  23018651.9794   23018657.3164
  22817094.341    -7570782.03349  -5880304.81549  22817094.0744   22817100.4244
  24559832.678    -4913979.13049  -3554711.87649  24559831.3734   24559840.3114
  22150519.696    -7944911.01649  -6167729.49449  22150519.1254   22150526.1314
  24051488.732     6506307.69449   4940581.89149  24051488.2614   24051495.7084
  22817048.497     6344394.51649   4828880.39949  22817048.0864   22817055.1124
 97  3 13 16 33 59.9990000  0  9 19 18 10  3 27  2 31 29 16
  20688130.511    -3935692.04549  -3057479.07549  20688130.3454   20688135.7434
  19996449.351    -1260807.27649   -973950.17049  19996449.2464   19996453.8614
  24603408.774    -5085873.35449  -3950369.27149  24603408.6954   24603414.5294
  23018312.625    -3011450.22549  -2333455.04249  23018312.1644   23018318.4854
  22803454.618    -7642459.02049  -5936156.99849  22803454.7774   22803460.3354
  24541366.851    -5011017.89049  -3630326.46949  24541366.9154   24541375.1904
  22138281.786    -8009221.49049  -6217841.53249  22138281.7464   22138287.8704
  24068452.598     6595453.10249   5010045.72349  24068452.1374   24068459.7564
  22834005.726     6433504.88649   4898317.00949  22834005.2474   22834012.1474
 97  3 13 16 34 29.9990000  0  9 19 18 10  3 27  2 31 29 16
  20683170.842    -3961755.39949  -3077788.17749  20683170.7594   20683176.1464
  19995708.700    -1264699.45949   -976983.05549  19995708.4894   19995713.3464
  24589743.248    -5157687.47349  -4006328.31249  24589741.4264   24589747.9174
  23018100.492    -3012565.08949  -2334323.76849  23018100.7504   23018105.9824
  22789855.743    -7713921.51349  -5991842.02449  22789855.6514   22789861.8564
  24522953.887    -5107779.44749  -3705725.08749  24522953.3934   24522961.2574
  22126153.421    -8072956.20749  -6267504.92549  22126152.9834   22126159.5834
  24085482.463     6684945.94949   5079780.28849  24085482.1184   24085489.9834
  22851023.669     6522934.67449   4968002.50349  22851022.7864   22851030.8734
 97  3 13 16 34 59.9990000  0  9 19 18 10  3 27  2 31 29 16
  20678262.997    -3987546.45649  -3097885.09849  20678263.0364   20678267.9114
  19995081.257    -1267996.63049   -979552.28949  19995081.2334   19995085.9654
  24576177.587    -5228974.79949  -4061876.88349  24576176.6574   24576184.6804
  23018013.029    -3013025.88549  -2334682.84349  23018012.5814   23018018.8924
  22776297.082    -7785172.91049  -6047362.55449  22776296.7584   22776302.9004
  24504589.271    -5204285.78149  -3780924.79749  24504588.2274   24504596.0004
  22114132.465    -8136126.48049  -6316728.50249  22114132.4154   22114138.4404
  24102576.638     6774775.84349   5149777.50349  24102576.9134   24102583.8384
  22868098.224     6612661.99049   5037919.83449  22868097.7354   22868104.7944
 97  3 13 16 35 29.9990000  0  9 19 18 10  3 27  2 31 29 16
  20673408.765    -4013055.59949  -3117762.34549  20673408.6474   20673413.7604
  19994568.801    -1270689.75649   -981650.83949  19994568.7084   19994573.4474
  24562710.545    -5299744.75149  -4117022.27749  24562709.5904   24562715.3954
  23018048.086    -3012841.64149  -2334539.26049  23018047.8374   23018054.3284
  22762772.958    -7856242.75349  -6102741.64049  22762773.0904   22762778.6304
  24486274.818    -5300529.03549  -3855919.53549  24486274.2954   24486281.9514
  22102219.394    -8198729.90949  -6365510.37449  22102218.9924   22102225.7764
  24119728.684     6864910.30149   5220012.01049  24119728.0404   24119736.0744
  22885225.141     6702664.05249   5108051.26449  22885224.9384   22885231.5364
 97  3 13 16 35 59.9990000  0  9 19 18 10  3 27  2 31 29 16
  20668611.639    -4038264.67249  -3137405.77749  20668611.5784   20668616.7824
  19994172.774    -1272771.05949   -983272.63549  19994172.5324   19994177.4184
  24549343.872    -5369988.32049  -4171757.54949  24549343.8234   24549350.3634
  23018209.005    -3011995.33149  -2333879.80549  23018207.7464   23018215.1364
  22749282.851    -7927133.77049  -6157981.35749  22749282.9994   22749288.3944
  24468012.923    -5396496.10949  -3930699.03549  24468013.2474   24468019.9394
  22090415.792    -8260757.27649  -6413843.36049  22090414.6344   22090421.5954
  24136937.066     6955340.56849   5290477.02049  24136936.6364   24136944.8974
  22902403.837     6792938.03749   5178394.57749  22902403.6764   22902410.0134
 97  3 13 16 36 29.9990000  0  9 19 18 10  3 27  2 31 29 16
  20663874.232    -4063159.85049  -3156804.61549  20663874.1684   20663879.5664
  19993896.405    -1274223.30949   -984404.26749  19993896.4544   19993901.3544
  24536080.242    -5439688.95649  -4226069.70349  24536080.6154   24536085.9334
  23018495.294    -3010489.96149  -2332706.77649  23018495.6374   23018500.4654
  22735827.003    -7997844.81549  -6213080.86149  22735827.2344   22735832.3914
  24449803.275    -5492188.66049  -4005264.64649  24449802.9844   24449810.1744
  22078720.304    -8322216.48749  -6461733.63649  22078720.1504   22078726.8064
  24154198.414     7046049.50849   5361159.20049  24154198.3564   24154205.2184
  22919633.879     6883481.97449   5248948.24149  22919633.6784   22919640.0004
 97  3 13 16 36 59.9990000  0  9 19 18 10  3 27  2 31 29 16
  20659192.839    -4087760.85349  -3175974.22049  20659192.7284   20659197.9914
  19993736.577    -1275063.48549   -985058.96349  19993736.4844   19993741.2514
  24522920.288    -5508845.17249  -4279957.65449  24522918.7374   24522926.9294
  23018900.866    -3008359.66549  -2331046.81949  23018901.1664   23018906.6994
  22722398.764    -8068410.90049  -6268067.39149  22722398.9014   22722404.7804
  24431645.346    -5587609.00749  -4079618.13549  24431644.4944   24431652.8324
  22067127.074    -8383138.40049  -6509205.23549  22067126.5164   22067133.6444
  24171506.296     7137003.23749   5432032.09949  24171506.6944   24171513.7204
  22936910.454     6974270.93549   5319692.84649  22936909.9084   22936917.5484
 97  3 13 16 37 29.9990000  0  9 19 18 10  3 27  2 31 29 16
  20654566.558    -4112072.01849  -3194917.97949  20654566.6614   20654571.7874
  19993694.579    -1275284.12349   -985230.89149  19993694.5734   19993699.2874
  24509864.617    -5577453.35649  -4333418.58649  24509864.0644   24509869.7974
  23019429.305    -3005583.02449  -2328883.21449  23019428.3814   23019434.6204
  22708998.909    -8138827.48449  -6322937.42349  22708998.2684   22709003.8264
  24413541.512    -5682744.75349  -4153749.85849  24413539.8484   24413549.3244
  22055636.646    -8443520.74249  -6556256.38949  22055636.7904   22055643.5054
  24188863.250     7228214.00249   5503105.28449  24188863.3884   24188870.6294
  22954234.018     7065306.81549   5390629.84549  22954234.1044   22954240.9414
 97  3 13 16 37 59.9990000  0  9 19 18 10  3 27  2 31 29 16
  20649993.496    -4136103.84949  -3213644.08149  20649993.4474   20649998.6534
  19993771.494    -1274879.69649   -984915.76249  19993771.4104   19993776.3364
  24496911.983    -5645519.48749  -4386457.12949  24496911.7114   24496918.1594
  23020081.515    -3002154.77449  -2326211.84549  23020080.6104   23020087.5394
  22695632.051    -8209070.70649  -6377672.38149  22695631.5114   22695637.3194
  24395488.528    -5777613.85649  -4227673.81449  24395487.7854   24395495.3884
  22044247.250    -8503372.69049  -6602894.25449  22044247.3454   22044254.6254
  24206273.703     7319705.67249   5574397.37849  24206275.1844   24206281.3264
  22971605.600     7156595.06249   5461763.48849  22971606.4484   22971612.1014
 97  3 13 16 38 29.9990000  0  9 19 18 10  3 27  2 31 29 16
  20645474.067    -4159853.48549  -3232150.28649  20645473.9264   20645479.1544
  19993966.835    -1273853.28149   -984115.96849  19993966.7254   19993971.4904
  24484061.108    -5713052.28649  -4439080.07249  24484059.0394   24484066.0764
  23020857.212    -2998078.18349  -2323035.28249  23020856.8024   23020863.5254
  22682298.511    -8279138.51549  -6432270.65249  22682298.3324   22682303.6424
  24377488.257    -5872206.83849  -4301382.63849  24377488.7564   24377495.7094
  22032958.198    -8562696.68649  -6649120.71749  22032958.3304   22032965.4764
  24223739.508     7411487.73449   5645915.74549  24223740.3444   24223746.4094
  22989025.592     7248137.50249   5533095.20549  22989025.2294   22989032.0264
 97  3 13 16 38 59.9990000  0  9 19 18 10  3 27  2 31 29 16
  20641010.201    -4183311.19549  -3250429.01749  20641010.0464   20641015.3194
  19994280.130    -1272206.82449   -982833.02649  19994280.0984   19994284.8754
  24471312.417    -5780046.86149  -4491283.65049  24471311.4444   24471319.2394
  23021762.186    -2993322.28149  -2319329.38149  23021761.7564   23021768.0774
  22669000.910    -8349017.62049  -6486721.86549  22669000.8574   22669006.4674
  24359541.191    -5966519.74149  -4374873.20049  24359540.6314   24359548.6784
  22021774.530    -8621468.04749  -6694916.57749  22021774.6934   22021781.6424
  24241265.015     7503584.24649   5717679.14149  24241265.5214   24241272.0304
  23006495.605     7339942.73649   5604631.70249  23006495.5454   23006502.2954
 97  3 13 16 39 29.9990000  0  9 19 18 10  3 27  2 31 29 16
  20636611.190    -4206428.07149  -3268442.17549  20636611.0714   20636616.3644
  19994719.838    -1269896.22449   -981032.57049  19994719.9834   19994724.6114
  24458671.017    -5846477.89549  -4543048.09649  24458669.7654   24458674.9394
  23022805.244    -2987840.93449  -2315058.19249  23022805.6034   23022810.7554
  22655748.047    -8418661.90649  -6540990.12149  22655747.7224   22655753.5894
  24341648.979    -6060543.25949  -4448138.25249  24341648.2084   24341657.7534
  22010708.192    -8679622.70449  -6740231.88349  22010708.5144   22010715.1974
  24258857.653     7596034.07249   5789717.85949  24258857.9124   24258865.9034
  23024022.510     7432046.86549   5676401.09849  23024022.0714   23024029.2454
 97  3 13 16 39 59.9990000  0  9 19 18 10  3 27  2 31 29 16
  20632273.226    -4229224.12949  -3286205.34049  20632273.0754   20632278.2904
  19995279.563    -1266955.10049   -978740.79749  19995279.5164   19995284.2734
  24446133.107    -5912364.52549  -4594388.33949  24446132.9844   24446138.4144
  23023980.160    -2981667.68649  -2310247.88549  23023979.9804   23023985.6194
  22642534.883    -8488097.24249  -6595095.55049  22642535.1194   22642540.7754
  24323808.005    -6154298.24749  -4521194.05649  24323807.9484   24323815.2004
  21999758.182    -8737166.31149  -6785071.05049  21999758.3244   21999764.4104
  24276511.672     7688806.10049   5862007.62749  24276511.8214   24276519.0914
  23041601.717     7524425.57149   5748384.44649  23041601.6014   23041607.8514
 97  3 13 16 40 29.9990000  0  9 19 18 10  3 27  2 31 29 16
  20627995.686    -4251702.92349  -3303721.28649  20627995.6364   20628000.8884
  19995955.467    -1263403.27849   -975973.15849  19995955.1884   19995960.1474
  24433701.818    -5977691.71649  -4645292.64549  24433700.2914   24433706.2394
  23025283.935    -2974816.43049  -2304909.26049  23025282.9684   23025288.3234
  22629357.638    -8557344.27249  -6649054.23749  22629357.6824   22629363.0714
  24306020.006    -6247774.67449  -4594032.82749  24306019.6734   24306028.3274
  21988926.670    -8794086.18849  -6829424.18149  21988926.5234   21988933.0974
  24294223.747     7781883.05549   5934535.02249  24294223.4094   24294230.4984
  23059232.108     7617073.58449   5820577.64549  23059231.7364   23059238.1294
 97  3 13 16 40 59.9990000  0  9 19 18 10  3 27  2 31 29 16
  20623772.114    -4273898.07849  -3321016.21349  20623771.9504   20623777.2974
  19996745.658    -1259250.82749   -972737.49849  19996745.4714   19996750.3684
  24421375.334    -6042468.41349  -4695768.00249  24421374.4744   24421381.6554
  23026711.964    -2967311.06749  -2299060.92549  23026711.3894   23026717.4964
  22616215.200    -8626408.60749  -6702870.58249  22616215.0804   22616220.6064
  24288281.030    -6340993.51449  -4666670.87049  24288280.7434   24288290.1484
  21978214.071    -8850382.11749  -6873291.12449  21978214.4594   21978219.8874
  24311990.719     7875249.08149   6007287.65749  24311991.2394   24311997.5514
  23076909.571     7709969.16049   5892963.76849  23076908.7594   23076915.7854
 97  3 13 16 41 29.9990000  0  9 19 18 10  3 27  2 31 29 16
  20619601.824    -4295813.17149  -3338092.91249  20619601.7474   20619607.0194
  19997652.325    -1254486.25249   -969024.85649  19997652.1344   19997656.9894
  24409155.573    -6106683.55849  -4745805.79649  24409156.8824   24409160.9104
  23028260.948    -2959171.26249  -2292718.22349  23028260.7174   23028266.6344
  22603107.278    -8695290.84549  -6756545.03149  22603106.6554   22603112.6044
  24270595.702    -6433929.97449  -4739088.87249  24270596.1364   24270604.3664
  21967620.144    -8906054.42449  -6916672.13549  21967620.0334   21967625.9724
  24329813.946     7968910.07149   6080270.12249  24329814.7104   24329821.2034
  23094634.110     7803112.17949   5965542.70049  23094633.4184   23094641.0254
 97  3 13 16 41 59.9990000  0  9 19 18 10  3 27  2 31 29 16
  20615481.346    -4317466.36249  -3354965.53049  20615481.1894   20615486.4634
  19998673.300    -1249121.11549   -964844.24549  19998673.1674   19998677.9354
  24397043.430    -6170333.16449  -4795402.87449  24397043.5284   24397047.8984
  23029926.837    -2950417.28049  -2285896.94849  23029926.5444   23029933.5074
  22590032.353    -8763999.57149  -6810084.27949  22590031.4174   22590037.7384
  24252969.164    -6526557.35949  -4811265.98649  24252968.7594   24252977.4914
  21957139.303    -8961132.18249  -6959589.86049  21957139.4094   21957144.6564
  24347691.818     8062858.24549   6153476.37449  24347691.2744   24347698.7354
  23112401.746     7896481.66549   6038298.09349  23112401.1584   23112408.2554
 97  3 13 16 42 29.9990000  0  9 19 18 10  3 27  2 31 29 16
  20611414.974    -4338835.33749  -3371616.67949  20611414.8044   20611420.1614
  19999814.708    -1243122.99949   -960170.39549  19999814.6264   19999819.3484
  24385042.301    -6233399.50949  -4844545.48949  24385042.0274   24385047.7274
  23031713.071    -2941030.27449  -2278582.39849  23031712.7374   23031719.3114
  22576992.899    -8832522.07749  -6863478.41549  22576992.6634   22576998.3944
  24235404.713    -6618858.96349  -4883189.27749  24235404.3394   24235412.1894
  21946772.468    -9015610.57849  -7002040.54349  21946772.1364   21946778.1114
  24365627.782     8157112.19949   6226920.91849  24365628.3074   24365635.4314
  23130213.724     7990084.30049   6111235.14949  23130213.1774   23130220.4674
 97  3 13 16 42 59.9990000  0  9 19 18 10  3 27  2 31 29 16
  20607404.373    -4359911.21249  -3388039.43949  20607404.3614   20607409.6134
  20001078.542    -1236481.56849   -954995.26649  20001078.4914   20001083.2994
  24373149.993    -6295894.75449  -4893243.09649  24373148.8404   24373156.5364
  23033621.636    -2931000.65249  -2270767.12449  23033622.2654   23033627.1804
  22563989.393    -8900856.09849  -6916725.67349  22563989.1354   22563995.4024
  24217898.728    -6710853.43549  -4954873.28649  24217897.7184   24217905.4124
  21936516.849    -9069504.18049  -7044035.55349  21936516.6864   21936522.2904
  24383620.577     8251664.74149   6300598.12249  24383621.0704   24383627.8544
  23148068.156     8083909.30849   6184345.49449  23148068.8754   23148074.9394
 97  3 13 16 43 29.9990000  0  9 19 18 10  3 27  2 31 29 16
  20603450.658    -4380687.97049  -3404229.12149  20603450.6384   20603455.9184
  20002463.598    -1229202.96749   -949323.64749  20002463.4734   20002468.5054
  24361365.651    -6357821.33349  -4941497.56449  24361365.8574   24361370.9244
  23035653.062    -2920325.19449  -2262448.58949  23035651.9204   23035657.9514
  22551016.143    -8969031.02349  -6969848.97949  22551015.8574   22551021.9054
  24200449.634    -6802547.76349  -5026323.37749  24200448.2684   24200455.2634
  21926369.473    -9122828.70549  -7085587.11549  21926369.2204   21926375.2304
  24401663.580     8346480.52149   6374480.43049  24401665.0094   24401670.1964
  23165963.643     8177950.23149   6257624.09849  23165963.0674   23165970.5784
 97  3 13 16 43 59.9990000  0  9 19 18 10  3 27  2 31 29 16
  20599556.257    -4401153.11549  -3420175.98649  20599556.0644   20599561.3524
  20003970.332    -1221284.98149   -943153.79949  20003970.2004   20003975.2244
  24349690.023    -6419177.31749  -4989307.42349  24349687.8024   24349696.0324
  23037812.699    -2908975.26049  -2253604.50549  23037812.7644   23037817.7114
  22538075.395    -9037034.86149  -7022838.96949  22538075.7654   22538081.0114
  24183054.949    -6893956.78349  -5097551.13449  24183055.4494   24183060.4984
  21916334.142    -9175564.67549  -7126680.06449  21916334.0284   21916339.4884
  24419754.324     8441547.40549   6448558.39549  24419754.2764   24419760.7894
  23183902.120     8272217.54249   6331079.09449  23183901.6294   23183909.3274
 97  3 13 16 44 29.9990000  0  9 19 18 10  3 27  2 31 29 16
  20595724.598    -4421288.63449  -3435865.99349  20595724.4474   20595729.9434
  20005597.706    -1212733.16849   -936490.05949  20005597.6234   20005602.4974
  24338123.030    -6479962.86549  -5036672.79749  24338123.8174   24338128.6354
  23040104.225    -2896933.62849  -2244221.43449  23040104.7074   23040110.7034
  22525168.296    -9104862.18849  -7075691.40449  22525168.4404   22525173.0404
  24165709.654    -6985107.94049  -5168577.97449  24165708.7084   24165716.3724
  21906413.340    -9227699.08849  -7167304.26949  21906412.7564   21906418.3764
  24437891.281     8536857.08849   6522825.57049  24437890.4604   24437898.6424
  23201886.736     8366727.22549   6404722.93849  23201886.6584   23201893.5644
 97  3 13 16 44 59.9990000  0  9 19 18 10  3 27  2 31 29 16
  20591951.619    -4441115.93349  -3451315.83549  20591951.7984   20591956.9864
  20007339.978    -1203577.61749   -929355.87349  20007339.9574   20007345.0794
  24326662.638    -6540188.40949  -5083601.80249  24326662.3624   24326668.6374
  23042524.424    -2884216.58949  -2234312.05849  23042524.5124   23042530.6834
  22512292.595    -9172524.48949  -7128415.25649  22512292.7744   22512298.3444
  24148410.784    -7076014.49149  -5239414.20549  24148409.2144   24148416.6154
  21896604.968    -9279242.50349  -7207467.95149  21896604.2964   21896610.4174
  24456070.735     8632389.95449   6597266.65749  24456071.7044   24456078.7354
  23219915.214     8461466.96049   6478546.06049  23219915.0074   23219922.2164
 97  3 13 16 45 29.9990000  0  9 19 18 10  3 27  2 31 29 16
  20588235.809    -4460642.82649  -3466531.59449  20588235.5714   20588240.7974
  20009195.379    -1193827.37049   -921758.29249  20009195.1324   20009200.0954
  24315307.538    -6599860.93649  -5130099.89449  24315306.1944   24315312.7604
  23045070.499    -2870836.00849  -2223885.63849  23045070.0804   23045077.4594
  22499448.465    -9240020.70749  -7181009.68449  22499448.1064   22499454.2294
  24131162.386    -7166654.87149  -5310043.03449  24131162.6044   24131168.0854
  21886911.043    -9330184.26949  -7247162.81849  21886910.4774   21886916.1494
  24474295.898     8728163.15949   6671894.97649  24474296.8674   24474302.6234
  23237985.283     8556425.18649   6552539.44049  23237985.4774   23237992.2894
 97  3 13 16 45 59.9990000  0  9 19 18 10  3 27  2 31 29 16
  20584581.254    -4479847.52049  -3481496.29149  20584581.1314   20584586.2834
  20011167.421    -1183464.27249   -913683.17649  20011167.4674   20011172.1264
  24304059.910    -6658966.30749  -5176156.03649  24304061.6984   24304064.8754
  23047743.969    -2856786.56749  -2212938.02049  23047743.6894   23047751.0194
  22486643.090    -9307313.31749  -7233445.47549  22486642.8314   22486648.6284
  24113968.176    -7257011.19249  -5380450.53549  24113968.8774   24113976.0024
  21877335.680    -9380502.75849  -7286372.01749  21877335.2564   21877340.8504
  24492576.465     8824227.01149   6746749.78049  24492577.9114   24492584.3314
  23256096.351     8651599.16249   6626700.93049  23256095.8504   23256102.2504
 97  3 13 16 46 29.9990000  0  8 19 18 10  3 27  2 31 16
  20580988.211    -4498728.97349  -3496209.10449  20580988.1484   20580993.3614
  20013259.282    -1172471.65049   -905117.52649  20013259.1794   20013264.1894
  24292921.816    -6717497.51249  -5221764.75449  24292920.0314   24292926.9214
  23050542.234    -2842081.69049  -2201479.68049  23050542.1024   23050548.2464
  22473876.303    -9374402.94949  -7285723.09949  22473875.6904   22473881.4354
  24096832.508    -7347060.19849  -5450618.56549  24096832.6504   24096840.7544
  21867880.051    -9430192.34049  -7325091.16149  21867879.7424   21867884.9894
  23274246.722     8746980.65949   6701024.12249  23274246.1854   23274253.2174
 97  3 13 16 46 59.9990000  0  8 19 18 10  3 27  2 31 16
  20577446.500    -4517340.75049  -3510711.78649  20577446.3704   20577451.6334
  20015464.923    -1160880.55649   -896085.52949  20015465.0224   20015469.9714
  24281885.293    -6775494.09849  -5266956.90449  24281885.2714   24281890.9354
  23053457.048    -2826764.27849  -2189544.04749  23053456.5944   23053462.8954
  22461139.074    -9441337.42749  -7337879.81449  22461139.1274   22461144.4324
  24079751.706    -7436819.67349  -5520560.94249  24079751.3754   24079759.1834
  21858538.309    -9479282.72949  -7363343.39549  21858537.3694   21858543.3914
  23292427.990     8842524.05849   6775473.46249  23292428.3574   23292434.4894
 97  3 13 16 47 29.9990000  0  8 19 18 10  3 27  2 31 16
  20573959.503    -4535664.78449  -3524990.25049  20573959.3644   20573964.4544
  20017788.586    -1148669.78649   -886570.65549  20017788.7434   20017793.4114
  24270953.188    -6832942.35449  -5311721.76349  24270952.5594   24270960.5374
  23056492.045    -2810815.60949  -2177116.53849  23056492.2334   23056498.3874
  22448434.971    -9508097.83049  -7389900.88749  22448434.5524   22448440.4924
  24062728.426    -7526277.44349  -5590268.23749  24062727.9604   24062733.9224
  21849315.047    -9527750.75249  -7401110.66949  21849314.7944   21849320.3514
  23310642.466     8938241.61449   6850058.51149  23310642.4884   23310649.3694
 97  3 13 16 47 59.9990000  0  8 19 18 10  3 27  2 31 16
  20570527.300    -4553701.26049  -3539044.64449  20570527.4004   20570532.4304
  20020232.006    -1135829.69149   -876565.40249  20020232.0224   20020236.8734
  24260128.192    -6889827.20149  -5356047.62949  24260127.5934   24260134.0424
  23059648.559    -2794229.04049  -2164191.96149  23059648.5384   23059654.0854
  22435764.175    -9574683.34549  -7441785.67949  22435764.3044   22435769.8224
  24045761.845    -7615437.37549  -5659743.50249  24045761.9554   24045765.7044
  21840210.118    -9575597.11649  -7438393.52149  21840210.3974   21840215.6234
  23328893.843     9034152.64549   6924794.31949  23328893.6734   23328900.7704
 97  3 13 16 48 29.9990000  0  8 19 18 10  3 27  2 31 16
  20567150.745    -4571445.37149  -3552871.22049  20567150.8684   20567155.8024
  20022796.081    -1122355.42349   -866065.99349  20022796.0574   20022801.1344
  24249413.737    -6946133.49949  -5399922.67949  24249411.6324   24249419.9574
  23062930.837    -2776980.24649  -2150751.35949  23062930.5154   23062936.6604
  22423126.906    -9641092.72149  -7493533.22649  22423126.9424   22423132.6004
  24028854.373    -7704287.50749  -5728977.34549  24028852.5824   24028858.0764
  21831223.428    -9622822.61449  -7475192.59549  21831223.1294   21831228.5924
  23347188.243     9130290.23249   6999706.66649  23347187.9084   23347195.2204
 97  3 13 16 48 59.9990000  0  8 19 18 10  3 27  2 31 16
  20563830.943    -4588891.13449  -3566465.32149  20563830.7264   20563835.8694
  20025481.962    -1108241.18749   -855067.89249  20025482.0774   20025486.8234
  24238810.579    -7001853.65749  -5443341.00349  24238810.5814   24238815.2894
  23066341.320    -2759057.88849  -2136785.88549  23066340.1154   23066348.3664
  22410525.636    -9707312.93249  -7545133.37349  22410524.9864   22410531.1924
  24012005.912    -7792826.79849  -5797968.98249  24012004.9354   24012010.6534
  21822353.793    -9669432.20549  -7511511.73849  21822353.7994   21822359.4454
  23365528.018     9226666.74749   7074805.19649  23365528.4314   23365534.5814
 97  3 13 16 49 29.9990000  0  8 19 18 10  3 27  2 31 16
  20560565.686    -4606050.08549  -3579835.93349  20560565.5374   20560570.7424
  20028287.782    -1093496.62049   -843578.62449  20028287.8054   20028292.5514
  24228316.993    -7056997.86349  -5486310.49049  24228315.9864   24228321.4934
  23069874.828    -2740488.11849  -2122315.93049  23069874.1884   23069880.9724
  22397960.226    -9773344.43549  -7596586.47849  22397959.9054   22397965.2684
  23995211.844    -7881079.20649  -5866737.00449  23995212.0604   23995217.3674
  21813596.724    -9715451.26449  -7547370.72349  21813597.2514   21813602.7374
  23383909.296     9323260.98549   7150073.38449  23383909.4564   23383916.4734
 97  3 13 16 49 59.9990000  0  8 19 18 10  3 27  2 31 16
  20557355.825    -4622917.96849  -3592979.73749  20557355.8094   20557361.0444
  20031217.042    -1078103.26949   -831583.82349  20031217.0774   20031222.0694
  24217935.512    -7111551.62849  -5528819.91649  24217934.9824   24217941.4664
  23073532.794    -2721264.84249  -2107336.74649  23073533.2454   23073539.2454
  22385432.471    -9839177.92849  -7647885.28949  22385432.4184   22385437.8104
  23978474.016    -7969037.12949  -5935275.66249  23978473.6584   23978482.1554
  21804954.202    -9760868.73049  -7582760.95749  21804954.6244   21804959.8154
  23402334.569     9420086.41049   7225521.71349  23402335.0914   23402342.0034
 97  3 13 16 50 29.9990000  0  8 19 18 10  3 27  2 31 16
  20554202.626    -4639488.15449  -3605891.57249  20554202.4724   20554207.5324
  20034269.206    -1062064.03549   -819085.73649  20034269.2944   20034274.2494
  24207667.965    -7165508.26549  -5570864.06349  24207667.1814   24207672.9334
  23077314.708    -2701392.81149  -2091852.06749  23077315.4274   23077320.7534
  22372942.980    -9904810.48549  -7699027.52549  22372942.9144   22372948.7134
  23961792.344    -8056699.90949  -6003584.26549  23961791.1374   23961798.1444
  21796427.694    -9805675.87649  -7617675.60149  21796427.6274   21796433.6494
  23420802.714     9517136.48249   7301145.06449  23420803.2354   23420809.9734
 97  3 13 16 50 59.9990000  0  8 19 18 10  3 27  2 31 16
  20551104.548    -4655768.75549  -3618577.74949  20551104.5964   20551109.4694
  20037443.035    -1045385.48549   -806089.47649  20037442.8074   20037447.9884
  24197515.344    -7218861.13449  -5612437.73449  24197513.8404   24197520.4584
  23081217.943    -2680882.59149  -2075870.09949  23081218.6354   23081223.5184
  22360492.234    -9970239.63849  -7750011.25149  22360492.0234   22360497.8624
  23945167.707    -8144062.77449  -6071659.23949  23945168.3654   23945172.0854
  21788020.746    -9849855.20449  -7652101.03949  21788020.3974   21788026.3794
  23439309.027     9614387.71349   7376925.18049  23439308.5544   23439315.6394
 97  3 13 16 51 29.9990000  0  8 19 18 10  3 27  2 31 16
  20548063.254    -4671750.84049  -3631031.32249  20548062.9924   20548068.1524
  20040736.332    -1028079.21149   -792604.08449  20040736.2074   20040741.3454
  24187479.573    -7271598.02649  -5653531.41449  24187478.5274   24187486.5384
  23085244.329    -2659724.67049  -2059383.42149  23085244.7284   23085249.0414
  22348079.875   -10035466.84149  -7800837.62049  22348079.5964   22348085.7204
  23928601.305    -8231119.19749  -6139495.39549  23928602.7334   23928608.2474
  21779736.286    -9893390.65349  -7686024.75549  21779736.1124   21779742.0724
  23457852.723     9711835.30649   7452858.32649  23457852.2774   23457859.5934
 97  3 13 16 51 59.9990000  0  8 19 18 10  3 27  2 31 16
  20545075.797    -4687449.82249  -3643264.29649  20545075.8904   20545081.0114
  20044144.994    -1010166.62549   -778646.23649  20044145.0274   20044150.1074
  24177558.630    -7323733.80849  -5694156.70649  24177559.2644   24177563.8824
  23089392.876    -2637923.92549  -2042395.84049  23089391.6974   23089397.4284
  22335701.623   -10100514.89749  -7851524.40649  22335700.9864   22335707.2784
  23912093.580    -8317868.27249  -6207092.02949  23912091.7834   23912103.5994
  21771573.561    -9936286.13349  -7719449.78749  21771573.3334   21771579.0004
  23476429.016     9809454.02149   7528924.78749  23476429.1264   23476435.3384
 97  3 13 16 52 29.9990000  0  8 19 18 10  3 27  2 31 16
  20542139.711    -4702879.27349  -3655287.24349  20542139.6634   20542144.7934
  20047663.145     -991678.75049   -764240.10949  20047663.1524   20047668.0534
  24167748.561    -7375286.16149  -5734327.35649  24167749.1254   24167756.1054
  23093661.887    -2615488.19249  -2024913.44149  23093661.2514   23093667.5874
  22323353.675   -10165404.23349  -7902087.50949  22323353.4944   22323358.6894
  23895643.429    -8404314.14349  -6274452.40649  23895644.3004   23895651.9304
  21763530.351    -9978553.68649  -7752385.52949  21763530.0824   21763536.0124
  23495031.257     9907209.50149   7605097.84249  23495030.6194   23495038.3294
 97  3 13 16 52 59.9990000  0  8 19 18 10  3 27  2 31 16
  20539256.544    -4718030.25549  -3667093.20649  20539256.4094   20539261.4374
  20051293.611     -972600.50949   -749373.96349  20051293.4284   20051298.4644
  24158047.423    -7426266.11649  -5774051.98049  24158047.6324   24158053.8324
  23098055.902    -2592396.16249  -2006919.65049  23098055.9994   23098062.0534
  22311036.946   -10230128.90149  -7952522.29649  22311036.7614   22311042.1104
  23879251.689    -8490453.20449  -6341573.73249  23879249.4004   23879256.5024
  21755608.056   -10020185.46249  -7784825.86549  21755607.5564   21755612.9264
  23513657.469    10005090.97149   7681369.04249  23513657.4444   23513663.5474
 97  3 13 16 53 29.9990000  0  8 19 18 10  3 27  2 31 16
  20536429.951    -4732884.28749  -3678667.77949  20536429.9654   20536435.0814
  20055044.671     -952888.41049   -734013.90849  20055044.5224   20055049.6944
  24148454.247    -7476680.71149  -5813336.11149  24148452.8344   24148458.2994
  23102578.371    -2568631.45149  -1988401.69549  23102578.9674   23102584.7614
  22298755.827   -10294666.69549  -8002811.46349  22298755.2534   22298760.9484
  23862920.653    -8576273.07149  -6408446.32749  23862920.6944   23862926.5354
  21747809.707   -10061165.98849  -7816758.73349  21747809.4154   21747814.9964
  23532310.774    10103114.30749   7757750.78949  23532309.5114   23532317.8864
 97  3 13 16 53 59.9990000  0  8 19 18 10  3 27  2 31 16
  20533659.731    -4747442.14449  -3690011.56449  20533659.7334   20533664.8684
  20058919.616     -932525.33749   -718146.59249  20058919.7894   20058924.7284
  24138966.825    -7526535.10749  -5852183.67549  24138965.0924   24138972.1864
  23107229.283    -2544191.83749  -1969357.84249  23107229.7384   23107235.7104
  22286511.030   -10359013.28349  -8052951.64549  22286510.8904   22286516.4914
  23846649.540    -8661778.72749  -6475074.06849  23846649.6084   23846655.4694
  21740135.659   -10101493.21449  -7848182.52649  21740135.4774   21740141.0594
  23550990.977    10201279.76349   7834243.29749  23550991.1084   23550998.6744
 97  3 13 16 54 29.9990000  0  8 19 18 10  3 27  2 31 16
  20530948.549    -4761689.50849  -3701113.40549  20530948.5904   20530953.7504
  20062922.115     -911492.36849   -701757.28449  20062922.2584   20062927.1744
  24129588.257    -7575819.66849  -5890587.25249  24129588.0944   24129595.2854
  23112010.347    -2519067.95849  -1949780.81649  23112010.3184   23112016.3614
  22274304.638   -10423158.03449  -8102934.55349  22274304.5404   22274309.7974
  23830437.907    -8746970.85949  -6541457.51749  23830438.1814   23830442.6334
  21732586.709   -10141163.41749  -7879094.36849  21732586.7634   21732591.4424
  23569701.444    10299604.34549   7910859.79149  23569699.8664   23569708.0084
 97  3 13 16 54 59.9990000  0  8 19 18 10  3 27  2 31 16
  20528291.766    -4775651.06049  -3711992.53649  20528291.6494   20528296.7914
  20067050.130     -889799.84149   -684854.03649  20067050.1304   20067055.0024
  24120315.099    -7624551.41449  -5928560.04349  24120313.8644   24120321.0794
  23116915.336    -2493291.35749  -1929695.16449  23116914.6234   23116920.8404
  22262135.104   -10487109.46249  -8152766.82549  22262134.9454   22262140.7124
  23814281.745    -8831871.58049  -6607613.93049  23814280.2674   23814286.5234
  21725156.352   -10180210.31449  -7909520.51449  21725156.0474   21725161.9064
  23588441.643    10398084.90149   7987597.81649  23588440.9424   23588448.3494
 97  3 13 16 55 29.9990000  0  8 19 18 10  3 27  2 31 16
  20525688.590    -4789330.76049  -3722652.03849  20525688.5224   20525693.8274
  20071300.869     -867462.06949   -667448.00049  20071300.6184   20071305.6664
  24111151.853    -7672702.81649  -5966080.61749  24111150.7984   24111157.6614
  23121941.587    -2466876.70049  -1909112.31949  23121940.4044   23121947.2214
  22250002.450   -10550866.89149  -8202447.92349  22250002.2544   22250008.2974
  23798184.139    -8916464.72349  -6673530.61249  23798183.0614   23798191.9764
  21717845.880   -10218626.79449  -7939455.41649  21717845.7284   21717850.8504
  23607213.891    10496733.26049   8064466.60949  23607214.5754   23607221.2094
 97  3 13 16 55 59.9990000  0  8 19 18 10  3 27  2 31 16
  20523142.247    -4802711.74449  -3733078.77449  20523142.1444   20523147.5264
  20075669.299     -844505.81049   -649560.02149  20075669.3434   20075674.4184
  24102106.040    -7720240.12049  -6003122.67849  24102106.2694   24102113.2524
  23127090.850    -2439816.07749  -1888026.11449  23127091.0184   23127097.5064
  22237905.289   -10614437.90649  -8251983.75849  22237905.3284   22237911.0114
  23782146.558    -9000742.22049  -6739201.33749  23782145.9634   23782153.7164
  21710657.069   -10256404.20549  -7968892.34449  21710656.8554   21710662.5274
  23626019.437    10595556.14749   8141471.39449  23626018.9974   23626027.6764
 97  3 13 16 56 29.9990000  0  8 19 18 10  3 27  2 31 16
  20520651.967    -4815798.00949  -3743275.85949  20520652.0984   20520657.3974
  20080153.916     -820939.23749   -631196.47149  20080154.0294   20080158.9414
  24093176.403    -7767166.06549  -6039688.36049  24093175.4824   24093183.0394
  23132359.987    -2412126.07549  -1866449.50249  23132360.4104   23132365.7794
  22225842.660   -10677827.35449  -8301378.12349  22225842.5794   22225848.0314
  23766168.295    -9084708.66249  -6804629.73649  23766166.6954   23766174.9964
  21703591.724   -10293532.93049  -7997823.81049  21703591.1664   21703596.7444
  23644857.275    10694548.79149   8218608.44049  23644858.0454   23644865.7334
 97  3 13 16 56 59.9990000  0  8 19 18 10  3 27  2 31 16
  20518213.278    -4828613.59949  -3753262.03249  20518213.4064   20518218.5544
  20084748.887     -796792.58249   -612380.91749  20084748.7384   20084753.8274
  24084359.045    -7813500.22049  -6075792.86449  24084359.0654   24084364.1174
  23137744.955    -2383829.06149  -1844399.90149  23137746.3624   23137751.4814
  22213810.373   -10741057.86749  -8350648.62949  22213810.2594   22213815.6164
  23750244.422    -9168388.72949  -6869834.97049  23750245.4674   23750253.6934
  21696647.498   -10330024.74649  -8026258.97549  21696646.7744   21696652.6654
  23663722.522    10793685.69249   8295857.91849  23663722.5464   23663730.4554
 97  3 13 16 57 29.9990000  0  8 19 18 10  3 27  2 31 16
  20515827.916    -4841148.97449  -3763029.85649  20515827.9884   20515833.1594
  20089454.042     -772066.93249   -593114.18149  20089453.9204   20089458.9524
  24075652.506    -7859254.52249  -6111445.57949  24075650.9644   24075657.8354
  23143245.853    -2354923.58649  -1821876.17449  23143247.0734   23143251.9804
  22201804.954   -10804146.78249  -8399808.80049  22201804.4714   22201810.6754
  23734372.938    -9251794.10149  -6934826.11449  23734372.8964   23734379.9294
  21689827.412   -10365864.28849  -8054185.87649  21689827.1854   21689832.9844
  23682611.079    10892945.53449   8373203.18249  23682610.9104   23682617.3864
 97  3 13 16 57 59.9990000  0  8 19 18 10  3 27  2 31 16
  20513495.738    -4853404.70749  -3772579.77449  20513495.6924   20513500.7924
  20094272.362     -746746.48049   -573383.96949  20094272.1854   20094277.4344
  24067053.521    -7904443.78949  -6146658.02149  24067052.3164   24067058.7494
  23148863.262    -2325405.42549  -1798875.01849  23148863.6854   23148869.4164
  22189825.990   -10867096.63749  -8448860.62149  22189825.7834   22189831.5924
  23718549.896    -9334943.84149  -6999618.08249  23718550.0594   23718557.0354
  21683130.655   -10401055.96849  -8081607.94549  21683130.8414   21683136.3434
  23701523.035    10992328.24749   8450644.19149  23701522.2984   23701530.5364
 97  3 13 16 58 29.9990000  0  8 19 18 10  3 27  2 31 16
  20511218.801    -4865370.09249  -3781903.45449  20511218.6194   20511223.5764
  20099212.049     -720788.16749   -553156.73249  20099211.8654   20099217.1894
  24058564.769    -7949052.87849  -6181418.35949  24058563.7534   24058571.6924
  23154597.771    -2295270.05349  -1775392.92049  23154597.9054   23154603.8414
  22177876.881   -10929889.45549  -8497790.06849  22177876.7454   22177882.2444
  23702781.329    -9417807.72049  -7064187.30049  23702780.2274   23702787.6824
  21676559.873   -10435586.34849  -8108514.72949  21676559.6904   21676564.9444
  23720462.238    11091854.02849   8528196.69349  23720462.3764   23720470.0854
 97  3 13 16 58 59.9990000  0  8 19 18 10  3 27  2 31 16
  20508993.697    -4877062.94149  -3791014.76849  20508993.6194   20508998.8284
  20104267.525     -694221.67249   -532455.58649  20104267.4754   20104272.5594
  24050183.625    -7993093.53049  -6215735.71349  24050182.2454   24050190.8194
  23160447.361    -2264529.78749  -1751439.46349  23160445.9574   23160452.6854
  22165953.901   -10992545.18349  -8546612.69349  22165954.0594   22165959.3544
  23687067.630    -9500384.24249  -7128532.63649  23687068.2544   23687074.1954
  21670109.043   -10469485.37749  -8134929.54449  21670108.3064   21670115.0924
  23739422.428    11191489.94949   8605835.00149  23739423.1394   23739429.5054
 97  3 13 16 59 29.9990000  0  8 19 18 10  3 27  2 31 16
  20506830.203    -4888432.18449  -3799873.91149  20506830.0774   20506835.4264
  20109447.175     -667002.39749   -511245.77449  20109447.1694   20109452.1624
  24041920.649    -8036515.42149  -6249570.96849  24041920.9544   24041926.4434
  23166422.029    -2233131.07549  -1726972.94549  23166421.0904   23166426.9464
  22154066.877   -11055011.98249  -8595288.09249  22154066.5394   22154072.3564
  23671419.804    -9582614.11649  -7192607.82849  23671419.6574   23671426.6884
  21663789.381   -10502695.54149  -8160807.58049  21663789.4014   21663795.0744
  23758411.498    11291277.58949   8683591.53449  23758410.4954   23758418.4064
 97  3 13 16 59 59.9990000  0  8 19 18 10  3 27  2 31 16
  20504719.984    -4899521.49549  -3808514.93349  20504720.1084   20504725.1204
  20114742.717     -639173.92649   -489561.25849  20114742.5834   20114747.6694
  24033773.103    -8079331.64149  -6282934.22749  24033771.9364   24033779.1884
  23172514.533    -2201113.93349  -1702024.54249  23172515.5414   23172518.9704
  22142211.098   -11117314.23649  -8643835.28049  22142211.0364   22142216.1304
  23655835.141    -9664512.25949  -7256424.49449  23655835.3064   23655842.3144
  21657591.980   -10535263.66449  -8186185.33149  21657591.6414   21657597.1344
  23777422.453    11391181.30849   8761438.50549  23777422.6434   23777428.8944
 97  3 13 17  0 29.9990000  0  8 19 18 10  3 27  2 31 16
  20502663.808    -4910326.83949  -3816934.68149  20502663.7714   20502668.9874
  20120149.037     -610763.38149   -467423.18849  20120149.1014   20120154.1114
  24025741.551    -8121538.10149  -6315822.38149  24025741.0364   24025747.1804
  23178726.090    -2168473.15149  -1676590.19149  23178726.5524   23178731.1354
  22130389.003   -11179439.42549  -8692244.49549  22130389.2304   22130394.1824
  23640316.817    -9746062.39549  -7319970.06049  23640317.3594   23640324.0704
  21651517.106   -10567187.45749  -8211060.99749  21651516.4074   21651522.5184
  23796452.407    11491184.24749   8839362.79549  23796451.2504   23796459.4914
 97  3 13 17  0 59.9990000  0  8 19 18 10  3 27  2 31 16
  20500664.863    -4920831.40249  -3825120.05449  20500664.7254   20500669.9274
  20125665.057     -581776.90049   -444836.32849  20125665.1324   20125670.2254
  24017826.996    -8163129.22449  -6348231.03849  24017826.0654   24017833.3614
  23185060.645    -2135186.13849  -1650652.28649  23185061.7964   23185065.7164
  22118606.551   -11241356.62449  -8740491.64449  22118606.6974   22118611.9404
  23624865.100    -9827261.27349  -7383241.87449  23624864.0474   23624872.3764
  21645568.026   -10598449.30249  -8235420.86149  21645567.2364   21645573.1764
  23815500.307    11591281.35749   8917360.45749  23815499.8234   23815508.3174
 97  3 13 17  1 29.9990000  0  8 19 18 10  3 27  2 31 16
  20498721.831    -4931041.93549  -3833076.31449  20498721.5904   20498726.8614
  20131293.539     -552199.38049   -421788.92849  20131293.4964   20131298.6344
  24010028.127    -8204111.08349  -6380164.95249  24010027.4744   24010034.3774
  23191515.153    -2101268.35649  -1624222.88349  23191514.7384   23191520.4594
  22106863.296   -11303067.85749  -8788578.29449  22106863.2574   22106868.4554
  23609477.107    -9908125.51649  -7446252.96949  23609477.7694   23609483.9664
  21639744.622   -10629051.05449  -8259266.36549  21639743.4074   21639749.5904
  23834565.469    11691468.94749   8995428.66749  23834565.5444   23834573.0444
 97  3 13 17  1 59.9990000  0  8 19 18 10  3 27  2 31 16
  20496834.680    -4940958.79149  -3840803.73449  20496834.3374   20496839.6964
  20137034.943     -522028.23849   -398278.96549  20137035.0614   20137040.0484
  24002345.779    -8244483.30449  -6411623.83649  24002345.5624   24002352.0914
  23198085.491    -2066740.60449  -1597318.15449  23198085.2604   23198092.1434
  22095158.767   -11364575.39949  -8836506.22649  22095158.1904   22095163.9314
  23594152.189    -9988659.01549  -7509006.31649  23594153.0384   23594158.2414
  21634043.938   -10659007.89049  -8282609.34549  21634043.8134   21634049.0074
  23853648.099    11791748.32149   9073568.37549  23853647.4244   23853655.1574
 97  3 13 17  2 29.9990000  0  8 19 18 10  3 27  2 31 16
  20495000.603    -4950597.00849  -3848314.03149  20495000.6264   20495005.7924
  20142890.407     -491257.83949   -374302.04249  20142890.3074   20142895.4314
  23994772.163    -8284281.99749  -6442635.80449  23994771.8754   23994778.7674
  23204767.493    -2031625.36349  -1569955.64649  23204766.5544   23204773.2344
  22083487.457   -11425908.09149  -8884297.90149  22083487.2404   22083493.2954
  23578882.982   -10068899.44049  -7571531.28749  23578882.4494   23578889.7234
  21628466.865   -10688316.97149  -8305447.59049  21628466.8644   21628472.1304
  23872745.809    11892107.17349   9151769.99149  23872746.1524   23872753.6084
 97  3 13 17  2 59.9990000  0  8 19 18 10  3 27  2 31 16
  20493216.719    -4959971.59449  -3855618.90849  20493216.7114   20493222.0274
  20148864.018     -459866.41749   -349841.20649  20148863.8824   20148869.1154
  23987304.021    -8323526.70749  -6473216.09349  23987303.8954   23987311.5874
  23211557.778    -1995940.34449  -1542149.14749  23211557.5434   23211564.6614
  22071845.157   -11487088.59049  -8931970.99549  22071845.3694   22071850.4364
  23563665.599   -10148866.64849  -7633843.36149  23563664.4754   23563673.8034
  21623011.525   -10716984.67349  -8327786.03749  21623010.8814   21623016.0484
  23891858.014    11992541.87149   9230030.73649  23891858.4614   23891863.9634
 97  3 13 17  3 29.9990000  0  8 19 18 10  3 27  2 31 16
  20491483.449    -4969080.05249  -3862716.40949  20491483.5514   20491488.8704
  20154960.154     -427830.77449   -324878.38349  20154960.1614   20154965.3524
  23979944.753    -8362201.09949  -6503351.99049  23979944.0504   23979950.7574
  23218460.945    -1959663.30249  -1513881.30649  23218460.9844   23218468.0434
  22060232.013   -11548116.02349  -8979524.81749  22060231.8594   22060237.8974
  23548501.685   -10228554.35249  -7695937.66849  23548501.0324   23548509.2474
  21617680.523   -10744998.85949  -8349615.26649  21617680.4214   21617685.3084
  23910991.569    12093088.50049   9308378.71149  23910991.0654   23911001.0564
 97  3 13 17  3 59.9990000  0  8 19 18 10  3 27  2 31 16
  20489799.573    -4977929.16649  -3869611.82649  20489799.5274   20489804.7254
  20161176.294     -395164.64149   -299424.26749  20161176.1784   20161181.4994
  23972692.921    -8400310.23449  -6533047.42449  23972692.1614   23972699.0604
  23225478.644    -1922785.34749  -1485145.24649  23225480.1454   23225486.2354
  22048646.446   -11608998.38749  -9026965.59549  22048646.3204   22048651.6764
  23533389.595   -10307969.09549  -7757819.25349  23533389.5134   23533395.8284
  21612472.675   -10772366.58149  -8370940.75449  21612472.4874   21612477.9724
  23930145.878    12193744.45049   9386811.82249  23930146.3044   23930151.9734
 97  3 13 17  4 29.9990000  0  8 19 18 10  3 27  2 31 16
  20488163.336    -4986527.59149  -3876311.89749  20488163.3204   20488168.4754
  20167510.552     -361878.00749   -273486.64049  20167510.5534   20167515.7984
  23965546.672    -8437862.57249  -6562308.98549  23965546.0384   23965552.5624
  23232611.885    -1885301.25349  -1455936.87049  23232612.6874   23232618.4164
  22037086.386   -11669746.79149  -9074301.98349  22037086.3234   22037091.6124
  23518325.668   -10387130.19849  -7819503.18949  23518325.5424   23518331.6464
  21607387.263   -10799090.62249  -8391764.67049  21607387.0474   21607392.2734
  23949315.680    12294482.23949   9465308.72749  23949315.6344   23949322.5524
 97  3 13 17  4 59.9990000  0  8 19 18 10  3 27  2 31 16
  20486576.876    -4994864.44449  -3882808.14649  20486576.9084   20486581.9024
  20173958.067     -327996.32749   -247085.34749  20173958.0994   20173963.1494
  23958511.704    -8474833.37549  -6591117.42749  23958512.0974   23958518.2784
  23239862.768    -1847198.95549  -1426246.78449  23239863.3774   23239868.3744
  22025552.878   -11730355.81049  -9121529.77849  22025552.5574   22025558.5754
  23503311.936   -10466027.95449  -7880981.94049  23503311.8164   23503319.7334
  21602421.962   -10825183.39049  -8412096.69349  21602421.4654   21602426.7234
  23968498.916    12395291.06049   9543860.99549  23968498.6944   23968505.4254
 97  3 13 17  5 29.9990000  0  8 19 18 10  3 27  2 31 16
  20485043.119    -5002924.37449  -3889088.61849  20485043.0504   20485048.2694
  20180519.133     -293517.67749   -220218.88349  20180519.2074   20180524.4254
  23951592.704    -8511193.93549  -6619450.33349  23951593.4874   23951598.3734
  23247233.214    -1808468.79849  -1396067.46349  23247233.8354   23247238.6124
  22014047.686   -11790816.15549  -9168641.71649  22014047.5424   22014053.1754
  23488352.872   -10544638.01949  -7942236.50549  23488351.0934   23488361.3354
  21597579.895   -10850627.71549  -8431923.43149  21597579.4874   21597585.1524
  23987697.866    12496182.44249   9622477.59849  23987697.1634   23987705.7854
 97  3 13 17  5 59.9990000  0  8 19 18 10  3 27  2 31 16
  20483560.697    -5010714.70249  -3895159.00549  20483560.6664   20483565.5574
  20187186.121     -258482.56849   -192918.81349  20187186.0524   20187191.3354
  23944785.306    -8546967.76149  -6647326.03149  23944784.6614   23944792.1374
  23254713.563    -1769160.24549  -1365437.44149  23254713.6274   23254718.5824
  22002564.475   -11851160.85249  -9215663.53849  22002564.4724   22002569.5964
  23473444.069   -10622983.82649  -8003285.14849  23473443.4334   23473451.7364
  21592857.085   -10875446.54849  -8451262.77149  21592857.1564   21592862.9184
  24006903.280    12597106.87449   9701119.93049  24006903.1574   24006910.8444
 97  3 13 17  6 29.9990000  0  8 19 18 10  3 27  2 31 16
  20482133.613    -5018213.91349  -3901002.54749  20482133.3544   20482138.8444
  20193962.467     -222872.82549   -165170.97349  20193962.4714   20193967.5674
  23938091.994    -8582140.47349  -6674733.34449  23938090.9844   23938097.4784
  23262305.897    -1729262.13949  -1334348.02649  23262305.6614   23262311.4564
  21991107.629   -11911366.93649  -9262577.35149  21991107.5134   21991113.0664
  23458589.476   -10701045.54349  -8064112.41249  23458588.2674   23458595.6214
  21588258.455   -10899612.42849  -8470093.31949  21588258.5804   21588263.8284
  24026119.563    12698088.70349   9779806.97849  24026120.6334   24026127.2624
 97  3 13 17  6 59.9990000  0  8 19 18 10  3 27  2 31 16
  20480758.366    -5025440.72649  -3906633.83649  20480758.3264   20480763.5014
  20200846.514     -186696.75349   -136981.84449  20200846.4554   20200851.8824
  23931511.828    -8616718.97649  -6701677.63449  23931511.7094   23931517.1314
  23270010.085    -1688775.93549  -1302800.34749  23270009.4884   23270016.3224
  21979677.374   -11971433.20549  -9309382.20749  21979677.2064   21979682.8974
  23443791.929   -10778807.08049  -8124705.80649  23443791.6814   23443798.3864
  21583785.376   -10923118.80949  -8488409.97149  21583785.7964   21583790.6714
  24045349.348    12799141.65549   9858549.44149  24045349.8914   24045357.5954
 97  3 13 17  7 29.9990000  0  8 19 18 10  3 27  2 31 16
  20479433.858    -5032401.03149  -3912057.45149  20479433.8434   20479439.0234
  20207839.433     -149948.62049   -108346.94649  20207839.6844   20207844.7604
  23925040.745    -8650727.38249  -6728177.71149  23925040.6294   23925046.4734
  23277825.597    -1647705.13849  -1270797.14649  23277824.2984   23277831.4294
  21968276.621   -12031344.28949  -9356066.15449  21968276.3394   21968281.9904
  23429052.186   -10856264.48849  -8185062.18049  23429052.7744   23429059.4524
  21579438.652   -10945961.77649  -8506209.67149  21579438.2064   21579444.0434
  24064592.484    12900265.09249   9937346.85049  24064591.9504   24064599.8664
 97  3 13 17  7 59.9990000  0  8 19 18 10  3 27  2 31 16
  20478161.687    -5039086.55649  -3917266.96049  20478161.8544   20478167.0534
  20214941.595     -112626.52349    -79264.81049  20214941.6474   20214946.9914
  23918675.115    -8684178.36649  -6754243.42049  23918671.9884   23918681.5854
  23285754.789    -1606036.01549  -1238327.73749  23285754.7374   23285761.9194
  21956908.554   -12091083.67849  -9402616.31849  21956908.5984   21956914.2324
  23414368.798   -10933426.71049  -8245188.55149  23414368.8204   23414375.4384
  21575217.010   -10968146.80749  -8523496.71049  21575216.7084   21575221.9324
  24083846.332    13001444.32449  10016187.71949  24083847.0804   24083853.4004
 97  3 13 17  8 29.9990000  0  8 19 18 10  3 27  2 31 16
  20476938.763    -5045513.09249  -3922274.65149  20476938.7904   20476943.9364
  20222154.030      -74725.21249    -49731.33649  20222154.1144   20222159.4184
  23912414.043    -8717076.10249  -6779878.02449  23912413.0414   23912420.6574
  23293799.352    -1563761.29549  -1205386.40349  23293798.7094   23293806.6524
  21945574.513   -12150643.99549  -9449026.93849  21945574.0454   21945580.0244
  23399741.903   -11010291.45449  -8305083.12449  23399741.6764   23399748.0324
  21571119.834   -10989677.73249  -8540274.05049  21571119.6854   21571124.8724
  24103108.333    13102667.60649  10095062.91249  24103108.5354   24103116.5994
 97  3 13 17  8 59.9990000  0  8 19 18 10  3 27  2 31 16
  20475769.586    -5051657.06749  -3927062.16949  20475769.5704   20475775.0254
  20229480.339      -36225.53349    -19731.60049  20229480.5924   20229485.6104
  23906262.962    -8749399.92049  -6805065.41849  23906263.3084   23906269.1574
  23301960.963    -1520871.04649  -1171965.47149  23301961.3384   23301967.2754
  21934276.783   -12210013.75449  -9495289.06949  21934276.4864   21934282.5574
  23385175.335   -11086838.35049  -8364730.03649  23385175.4204   23385182.0094
  21567148.938   -11010544.95949  -8556534.22049  21567148.4844   21567153.7114
  24122376.894    13203924.46449  10173964.26949  24122378.1454   24122385.0184
 97  3 13 17  9 29.9990000  0  8 19 18 10  3 27  2 31 16
  20474658.456    -5057496.10749  -3931612.07349  20474658.2094   20474663.5904
  20236922.935        2885.83849     10744.77349  20236922.8504   20236928.0214
  23900223.490    -8781138.70849  -6829796.96549  23900223.4204   23900229.1384
  23310240.737    -1477360.43849  -1138061.12049  23310239.9574   23310249.1874
  21923016.714   -12269185.90649  -9541397.22749  21923016.4324   21923022.2214
  23370668.844   -11163070.94349  -8424132.03149  23370668.1934   23370676.2934
  21563304.333   -11030748.36949  -8572277.13049  21563303.7954   21563309.4084
  24141651.353    13305212.08349  10252889.60949  24141650.8134   24141659.6894
 97  3 13 17  9 59.9990000  0  8 19 18 10  3 27  2 31 16
  20473601.587    -5063049.85049  -3935939.66649  20473601.5014   20473606.9814
  20244480.616       42601.81949     41692.28349  20244480.4984   20244485.9674
  23894298.278    -8812276.57549  -6854060.24049  23894299.0114   23894304.7234
  23318633.707    -1433254.57049  -1103692.94849  23318634.3854   23318639.8974
  21911789.355   -12328186.14149  -9587371.42349  21911789.4444   21911794.8214
  23356220.000   -11239000.08849  -8483297.56649  23356219.1564   23356226.6714
  21559584.962   -11050293.84149  -8587507.35949  21559584.6604   21559590.0264
  24160929.893    13406521.10949  10331831.63549  24160929.5674   24160937.4574
 97  3 13 17 10 29.9990000  0  8 19 18 10  3 27  2 31 16
  20472595.857    -5068335.03749  -3940057.99649  20472595.7874   20472601.0644
  20252152.779       82919.03449     73108.28849  20252152.8164   20252158.0304
  23888489.708    -8842800.12749  -6877844.84249  23888490.1124   23888495.9434
  23327136.094    -1388574.94449  -1068877.65849  23327134.7614   23327143.0754
  21900591.970   -12387028.70149  -9633222.76049  21900591.9564   21900597.2304
  23341831.337   -11314612.46749  -8542216.27149  23341830.2874   23341837.4234
  21555991.797   -11069175.92449  -8602220.66349  21555991.1384   21555997.1434
  24180215.138    13507864.96149  10410800.78149  24180214.2264   24180223.1514
 97  3 13 17 10 59.9990000  0  8 19 18 10  3 27  2 31 16
  20471637.528    -5073371.12549  -3943982.22149  20471637.6804   20471642.8544
  20259936.782      123823.92449    104982.21649  20259936.7784   20259941.9364
  23882794.778    -8872729.60549  -6901166.51449  23882795.0454   23882800.9414
  23335744.292    -1343337.36849  -1033627.65449  23335744.0214   23335750.3664
  21889420.775   -12445733.60349  -9678966.82849  21889420.5204   21889426.2334
  23327501.100   -11389918.54549  -8600896.31849  23327500.6274   23327507.3954
  21552524.082   -11087398.54849  -8616420.10549  21552523.4094   21552529.5194
  24199506.363    13609241.26349  10489795.21749  24199507.3104   24199514.2484
 97  3 13 17 11 29.9990000  0  8 19 18 10  3 27  2 31 16
  20470724.300    -5078170.17549  -3947721.74949  20470724.1534   20470729.5804
  20267829.555      165300.52449    137301.63049  20267829.3844   20267834.8044
  23877213.586    -8902060.12249  -6924021.48249  23877212.8204   23877218.9304
  23344457.901    -1297546.98549   -997946.84949  23344457.5184   23344462.4374
  21878276.775   -12504295.64849  -9724599.57749  21878276.4544   21878282.2634
  23313225.965   -11464934.87349  -8659350.57749  23313225.2304   23313232.2124
  21549180.496   -11104968.81149  -8630111.20649  21549180.0034   21549185.6904
  24218805.539    13710659.12449  10568822.01849  24218806.3894   24218812.9684
 97  3 13 17 11 59.9990000  0  8 19 18 10  3 27  2 31 16
  20469860.175    -5082711.38349  -3951260.35649  20469860.2714   20469865.5004
  20275833.614      207362.23249    170076.97149  20275833.6624   20275838.8824
  23871749.961    -8930769.94749  -6946392.75649  23871748.8324   23871755.8514
  23353276.567    -1251203.86649   -961835.35749  23353276.1234   23353281.8834
  21867162.827   -12562699.65949  -9770109.18849  21867162.9384   21867168.0854
  23299009.226   -11539643.91049  -8717565.36349  23299007.8434   23299015.7834
  21545963.720   -11121872.82649  -8643283.15149  21545963.4104   21545968.8504
  24238113.056    13812120.64949  10647882.83949  24238113.2634   24238121.6794
 97  3 13 17 12 29.9990000  0  8 19 18 10  3 27  2 31 16
  20469047.168    -5086983.61949  -3954589.38149  20469047.2034   20469052.5484
  20283948.599      250006.64949    203306.37249  20283948.5054   20283953.7354
  23866399.453    -8958887.14749  -6968302.31249  23866399.6654   23866406.0544
  23362201.856    -1204300.22849   -925287.10049  23362200.5554   23362207.1904
  21856079.036   -12620945.70449  -9815495.70549  21856079.1914   21856084.3104
  23284849.712   -11614052.81349  -8775546.31349  23284849.1544   23284857.1324
  21542871.469   -11138122.62249  -8655945.32549  21542871.0214   21542876.3574
  24257425.712    13913609.26149  10726964.78749  24257426.2534   24257432.8564
 97  3 13 17 12 59.9990000  0  8 19 18 10  3 27  2 31 16
  20468289.281    -5090966.33449  -3957692.79949  20468289.2984   20468294.6434
  20292174.600      293234.60549    236990.47949  20292174.6904   20292180.0964
  23861162.488    -8986408.21949  -6989747.28449  23861159.9834   23861167.8264
  23371237.171    -1156818.83649   -888288.62549  23371236.0004   23371242.6334
  21845029.771   -12679010.12849  -9860740.70349  21845029.5014   21845035.2554
  23270745.623   -11688170.02249  -8833299.95549  23270744.1894   23270753.5154
  21539905.041   -11153711.15049  -8668092.21349  21539904.5444   21539910.2374
  24276741.764    14015114.78449  10806059.92549  24276741.6714   24276749.5684
 97  3 13 17 13 29.9990000  0  8 19 18 10  3 27  2 31 16
  20467587.859    -5094652.51249  -3960565.14649  20467587.9044   20467593.1564
  20300509.485      337034.61349    271120.33949  20300509.6404   20300514.8214
  23856037.669    -9013335.99149  -7010729.96249  23856035.6304   23856045.1384
  23380380.510    -1108769.25249   -850847.42549  23380379.9404   23380387.1024
  21834013.871   -12736898.96549  -9905848.88649  21834013.6874   21834019.2834
  23256695.859   -11762001.51349  -8890830.93349  23256696.0344   23256703.4574
  21537061.818   -11168652.01949  -8679734.42549  21537061.7624   21537067.6674
  24296058.426    14116623.47549  10885157.52949  24296058.1994   24296066.6144
 97  3 13 17 13 59.9990000  0  8 19 18 10  3 27  2 31 16
  20466938.341    -5098065.67149  -3963224.75549  20466938.1344   20466943.7084
  20308951.973      381400.07249    305690.80349  20308951.9154   20308957.1334
  23851017.646    -9039716.45949  -7031286.20549  23851017.4044   23851025.0204
  23389629.298    -1060166.85449   -812975.43549  23389629.3174   23389635.8114
  21823024.613   -12794647.87849  -9950848.03649  21823024.7044   21823029.7954
  23242701.131   -11835544.16949  -8948136.90049  23242701.1234   23242707.5354
  21534342.121   -11182944.72349  -8690871.58749  21534342.0454   21534347.2714
  24315370.733    14218109.17649  10964237.19449  24315371.3094   24315378.2324
 97  3 13 17 14 29.9990000  0  8 19 18 10  3 27  2 31 16
  20466340.390    -5101207.81749  -3965673.19149  20466340.3774   20466345.7464
  20317503.163      426336.72149    340706.35949  20317503.1354   20317508.3144
  23846100.413    -9065558.93449  -7051423.22949  23846100.2984   23846107.0224
  23398987.286    -1010990.55249   -774656.27949  23398987.5784   23398994.2444
  21812063.194   -12852250.49449  -9995733.18949  21812063.2434   21812068.6104
  23228763.611   -11908785.71649  -9005208.18449  23228763.6224   23228769.5824
  21531751.398   -11196559.07349  -8701480.15849  21531750.9694   21531756.6304
  24334683.165    14319595.70249  11043317.50549  24334681.9904   24334690.7634
 97  3 13 17 14 59.9990000  0  8 19 18 10  3 27  2 31 16
  20465793.671    -5104080.97249  -3967912.01949  20465793.7064   20465799.0154
  20326164.606      471852.72049    376173.36149  20326164.5894   20326169.7344
  23841290.327    -9090838.06449  -7071121.26649  23841290.1584   23841295.7464
  23408457.177     -961227.14649   -735879.61349  23408456.9724   23408463.7434
  21801132.155   -12909693.54749 -10040494.00349  21801131.9704   21801137.4694
  23214887.921   -11981703.70949  -9062027.39249  23214889.0474   23214894.7364
  21529295.294   -11209465.70849  -8711537.26849  21529294.8894   21529300.5024
  24354000.199    14421106.86449  11122417.00249  24353999.9574   24354008.2864
 97  3 13 17 15 29.9990000  0  8 19 18 10  3 27  2 31 16
  20465295.688    -5106698.05249  -3969951.30049  20465295.6614   20465301.1214
  20334934.542      517939.11349    412084.83349  20334934.5684   20334939.9474
  23836584.219    -9115567.90649  -7090391.27849  23836582.5174   23836589.6184
  23418036.226     -910889.38849   -696655.42949  23418037.6504   23418043.3694
  21790226.839   -12967001.14849 -10085149.26649  21790226.4204   21790232.1594
  23201074.317   -12054294.71349  -9118591.76849  23201072.9014   23201080.9774
  21526972.428   -11221672.77149  -8721049.25549  21526972.2174   21526977.9924
  24373320.588    14522636.45749  11201530.88249  24373320.8914   24373328.9994
 97  3 13 17 15 59.9990000  0  8 19 18 10  3 27  2 31 16
  20464846.832    -5109056.86649  -3971789.33949  20464846.8414   20464852.0854
  20343813.880      564600.26249    448444.15749  20343813.7314   20343818.9384
  23831984.764    -9139735.04549  -7109222.79149  23831983.8514   23831991.4354
  23427726.377     -859969.51949   -656977.63249  23427726.5524   23427733.5144
  21779350.431   -13024157.31449 -10129686.53049  21779350.5494   21779355.8754
  23187321.632   -12126565.13349  -9174906.34149  23187320.8224   23187327.8414
  21524783.415   -11233176.02949  -8730012.82049  21524783.0734   21524788.8874
  24392643.922    14624180.61849  11280656.10949  24392643.8644   24392649.8504
 97  3 13 17 16 29.9990000  0  8 19 18 10  3 27  2 31 16
  20464447.048    -5111157.84349  -3973426.47549  20464447.0384   20464452.3074
  20352798.665      611815.77049    485235.44249  20352798.6614   20352803.9454
  23827498.599    -9163311.33349  -7127593.95249  23827500.1554   23827503.4154
  23437525.722     -808475.35749   -616852.32949  23437528.3574   23437532.5924
  21768504.314   -13081154.02649 -10174099.55249  21768504.0584   21768509.5704
  23173624.692   -12198543.53649  -9230993.39549  23173624.7134   23173631.1014
  21522722.489   -11244006.03349  -8738451.77949  21522722.6894   21522727.8404
  24411968.801    14725732.50149  11359787.40149  24411967.3474   24411977.4274
 97  3 13 17 16 59.9990000  0  8 19 18 10  3 27  2 31 16
  20464097.660    -5112993.84249  -3974857.13249  20464097.5404   20464102.9714
  20361887.362      659577.15449    522452.08549  20361887.4694   20361892.7084
  23823129.482    -9186277.59949  -7145489.77549  23823129.3014   23823132.7344
  23447433.460     -756411.85549   -576283.41049  23447434.6394   23447440.6664
  21757689.469   -13137986.57249 -10218384.64449  21757689.2254   21757695.0874
  23159981.969   -12270236.44149  -9286857.93649  23159981.0394   23159988.6294
  21520787.094   -11254176.76849  -8746377.02549  21520786.5694   21520792.1294
  24431293.231    14827282.69549  11438917.35949  24431292.6284   24431300.8444
 97  3 13 17 17 29.9990000  0  8 19 18 10  3 27  2 31 16
  20463802.590    -5114544.51349  -3976065.45449  20463802.4844   20463807.7394
  20371079.278      707880.77949    560091.25249  20371079.3154   20371084.3544
  23818875.098    -9208635.54649  -7162911.58349  23818872.7874   23818880.4744
  23457447.950     -703786.23049   -535276.44849  23457448.0674   23457453.2744
  21746908.154   -13194642.92949 -10262532.44649  21746908.0594   21746913.7214
  23146391.218   -12341656.10149  -9342509.60149  23146391.6864   23146397.7324
  21518975.391   -11263696.95249  -8753795.34149  21518975.0444   21518980.9844
  24450615.817    14928824.12549  11518040.46049  24450616.2014   24450625.1304
 97  3 13 17 17 59.9990000  0  8 19 18 10  3 27  2 31 16
  20463562.642    -5115805.37249  -3977047.94749  20463562.5904   20463567.8944
  20380379.574      756754.08349    598174.32949  20380379.3874   20380384.5634
  23814739.208    -9230363.21949  -7179842.20749  23814736.5814   23814747.8584
  23467571.189     -650588.85449   -493823.96049  23467569.9594   23467578.6634
  21736164.421   -13251101.48149 -10306526.10449  21736164.1574   21736169.5564
  23132854.148   -12412794.17549  -9397941.83749  23132852.9094   23132860.6454
  21517289.098   -11272558.00549  -8760700.04849  21517288.7714   21517294.3584
  24469940.375    15030375.48649  11597171.28449  24469940.7334   24469948.4394
 97  3 13 17 18 29.9990000  0  8 19 18 10  3 27  2 31 16
  20463378.179    -5116774.76349  -3977803.31949  20463378.3684   20463383.3044
  20389790.955      806211.13949    636712.27749  20389791.1614   20389796.3714
  23810724.226    -9251461.22349  -7196282.23749  23810725.1484   23810732.1574
  23477800.498     -596832.49549   -451935.93749  23477800.8274   23477805.7774
  21725458.093   -13307363.39049 -10350366.54549  21725457.6694   21725463.5724
  23119374.474   -12483629.44749  -9453138.09149  23119374.0604   23119382.4034
  21515732.167   -11280739.57049  -8767075.29249  21515732.3984   21515737.4154
  24489269.330    15131949.26249  11676319.56549  24489269.1624   24489278.3694
 97  3 13 17 18 59.9990000  0  8 19 18 10  3 27  2 31 16
  20463244.216    -5117478.92249  -3978352.02149  20463244.3914   20463249.7654
  20399309.748      856232.53549    675689.97149  20399309.8424   20399315.0844
  23806822.784    -9271968.61849  -7212262.07549  23806822.8104   23806827.3824
  23488129.714     -542551.72349   -409639.26449  23488127.5984   23488136.0454
  21714783.972   -13363456.09149 -10394075.13449  21714784.0684   21714789.6494
  23105950.611   -12554172.70049  -9508106.84149  23105949.9844   23105956.9994
  21514301.607   -11288257.48049  -8772933.40649  21514301.4294   21514307.1004
  24508596.343    15233512.81349  11755459.86449  24508595.9424   24508605.1814
 97  3 13 17 19 29.9990000  0  8 19 18 10  3 27  2 31 16
  20463159.001    -5117926.82149  -3978701.03449  20463159.0704   20463164.1314
  20408939.176      906835.47349    715120.81649  20408939.0854   20408944.5834
  23803032.965    -9291887.64749  -7227783.41849  23803033.3134   23803036.7554
  23498558.558     -487747.22049   -366934.48549  23498557.8574   23498565.6004
  21704140.398   -13419388.44449 -10437658.77649  21704140.2364   21704145.6974
  23092583.399   -12624417.62849  -9562843.09149  23092582.2084   23092589.7694
  21512997.412   -11295111.22649  -8778273.98649  21512997.1824   21513003.3434
  24527920.759    15335063.13149  11834589.86249  24527921.1344   24527930.6144
 97  3 13 17 19 59.9990000  0  8 19 18 10  3 27  2 31 16
  20463120.635    -5118128.33649  -3978858.05549  20463120.5464   20463125.9474
  20418681.150      958029.73549    755012.43649  20418681.2914   20418686.3314
  23799357.405    -9311205.29149  -7242836.16849  23799357.0184   23799360.9134
  23509087.553     -432415.54149   -323818.92549  23509087.1984   23509094.1534
  21693525.609   -13475169.61249 -10481124.61049  21693525.2754   21693530.9794
  23079275.782   -12694349.30549  -9617335.27749  23079275.7404   23079282.3844
  21511822.763   -11301283.78149  -8783083.76449  21511822.2354   21511828.1394
  24547242.697    15436599.70849  11913709.17249  24547242.3684   24547250.7964
 97  3 13 17 20 29.9990000  0  8 19 18 10  3 27  2 31 16
  20463127.457    -5118092.63449  -3978830.24349  20463127.6814   20463132.9854
  20428526.698     1009768.41449    795328.27849  20428526.6554   20428531.9074
  23795788.244    -9329959.12949  -7257449.54449  23795784.8714   23795792.0374
  23519712.213     -376582.94349   -280313.05049  23519712.3224   23519719.0604
  21682932.675   -13530835.87249 -10524500.90949  21682932.4684   21682938.0714
  23066022.453   -12763995.98849  -9671605.35549  23066021.1964   23066029.1724
  21510775.309   -11306787.89849  -8787372.68749  21510775.1804   21510780.8784
  24566553.130    15538075.93449  11992781.45949  24566553.4094   24566560.9584
 97  3 13 17 20 59.9990000  0  8 19 18 10  3 27  2 31 16
  20463182.787    -5117801.89549  -3978603.69249  20463182.8134   20463188.2924
  20438477.435     1062059.89449    836074.88149  20438477.3674   20438482.5394
  23792327.974    -9348136.76549  -7271613.92549  23792326.4954   23792334.3054
  23530438.298     -320217.28749   -236391.79249  23530438.6864   23530444.4354
  21672362.093   -13586384.54649 -10567785.59049  21672362.1464   21672367.6574
  23052822.706   -12833360.45649  -9725655.57149  23052822.1734   23052828.6404
  21509857.106   -11311613.25849  -8791132.70349  21509856.7664   21509862.3504
  24585850.966    15639486.46149  12071802.56149  24585850.2104   24585859.4924
 97  3 13 17 21 29.9990000  0  8 19 18 10  3 27  2 31 16
  20463282.901    -5117275.72749  -3978193.69849  20463282.9744   20463288.2134
  20448530.447     1114888.86349    877240.30149  20448530.3674   20448535.8564
  23788972.020    -9365770.38849  -7285354.44649  23788970.6184   23788978.5764
  23541263.484     -263331.39249   -192065.15749  23541263.8924   23541268.7034
  21661810.363   -13641834.22449 -10610993.13249  21661810.1714   21661815.8924
  23039673.569   -12902459.39049  -9779498.85649  23039673.3064   23039680.9634
  21509065.722   -11315771.44349  -8794372.84449  21509065.0444   21509070.7884
  24605132.166    15740810.26049  12150756.06849  24605131.3324   24605141.7854
 97  3 13 17 21 59.9990000  0  8 19 18 10  3 27  2 31 16
  20463431.846    -5116492.93949  -3977583.74349  20463431.6414   20463437.0044
  20458683.855     1168245.46049    918816.86549  20458683.7384   20458689.0994
  23785717.254    -9382872.02649  -7298680.41049  23785717.3904   23785722.8844
  23552188.770     -205918.77249   -147328.07649  23552188.9594   23552194.2434
  21651280.283   -13697170.00049 -10654111.90949  21651280.3514   21651285.8674
  23026575.845   -12971288.18649  -9833131.63949  23026575.5834   23026583.4434
  21508401.150   -11319263.07749  -8797093.59249  21508400.9744   21508406.2674
  24624394.934    15842036.59649  12229633.59649  24624394.7364   24624404.8114
 97  3 13 17 22 29.9990000  0  7 19 18 10  3 27  2 31
  20463635.326    -5115423.81049  -3976750.66349  20463635.4404   20463640.6284
  20468941.627     1222150.75149    960820.97849  20468941.6174   20468947.0964
  23782567.305    -9399426.87749  -7311580.32049  23782566.1524   23782573.1354
  23563219.915     -147950.49449   -102158.01649  23563220.2424   23563225.3714
  21640777.915   -13752360.48649 -10697117.46849  21640778.2014   21640783.5944
  23013534.606   -13039819.99349  -9886533.00349  23013534.4324   23013541.3744
  21507866.665   -11322071.55949  -8799282.01849  21507866.5944   21507872.2414
 97  3 13 17 22 59.9990000  0  7 19 18 10  3 27  2 31
  20463893.044    -5114069.80849  -3975695.60249  20463893.2024   20463898.4234
  20479306.518     1276618.56749   1003263.41949  20479306.4614   20479311.9424
  23779522.218    -9415426.58449  -7324047.65249  23779521.5804   23779528.5484
  23574358.408      -89417.96549    -56548.28549  23574357.7724   23574364.6984
  21630307.803   -13807381.27449 -10739990.80649  21630307.8294   21630313.2484
  23000552.882   -13108039.43149  -9939690.97549  23000552.4294   23000558.6274
  21507460.234   -11324207.66449  -8800946.50249  21507460.4054   21507466.2464
 97  3 13 17 23 29.9990000  0  7 19 18 10  3 27  2 31
  20464199.848    -5112457.60349  -3974439.35049  20464199.7394   20464204.9864
  20489770.867     1331609.11949   1046113.18449  20489771.0174   20489776.2754
  23776577.555    -9430899.36349  -7336104.40649  23776578.1874   23776584.9504
  23585596.758      -30360.74049    -10529.69849  23585595.9124   23585602.9214
  21619868.766   -13862238.79849 -10782736.92949  21619868.6964   21619874.1624
  22987628.813   -13175955.34849  -9992612.41549  22987628.5264   22987635.0394
  21507172.778   -11325718.31449  -8802123.61649  21507171.9454   21507178.0134
 97  3 13 17 23 59.9990000  0  7 19 18 10  3 27  2 31
  20464560.528    -5110562.11149  -3972962.34949  20464560.5404   20464565.9384
  20500339.111     1387145.42249   1089388.21949  20500339.3004   20500344.6014
  23773743.201    -9445794.75049  -7347711.20349  23773744.4294   23773750.3444
  23596938.706       29241.93449     35913.88349  23596939.0094   23596945.8754
  21609466.359   -13916904.07549 -10825333.24549  21609466.3484   21609471.5564
  22974767.988   -13243539.44849 -10045275.30849  22974767.0704   22974774.0014
  21507009.704   -11326574.63449  -8802790.87249  21507009.5774   21507015.3414
 97  3 13 17 24 29.9990000  0  7 19 18 10  3 27  2 31
  20464973.007    -5108394.64949  -3971273.43149  20464973.1444   20464978.5154
  20511009.971     1443220.92549   1133083.41049  20511010.1734   20511015.2694
  23771022.401    -9460094.71749  -7358854.05049  23771023.0034   23771027.8544
  23608380.832       89370.89049     82767.57749  23608379.7494   23608387.0744
  21599100.196   -13971378.59649 -10867780.92149  21599100.3044   21599105.6324
  22961969.772   -13310794.44849 -10097681.76649  22961968.8404   22961976.0304
  21506971.755   -11326774.18349  -8802946.35049  21506971.7434   21506976.7854
 97  3 13 17 24 59.9990000  0  7 19 18 10  3 27  2 31
  20465437.123    -5105955.73749  -3969372.98849  20465437.2234   20465442.5944
  20521783.541     1499836.29649   1177199.27249  20521783.4254   20521788.8934
  23768417.210    -9473787.46049  -7369523.71349  23768417.2974   23768423.5314
  23619922.624      150024.30349    130029.92349  23619922.3884   23619930.4204
  21588770.377   -14025662.19349 -10910079.82949  21588770.2354   21588775.6844
  22949234.401   -13377718.24849 -10149830.12849  22949234.4064   22949241.0874
  21507059.486   -11326313.53949  -8802587.39849  21507059.5524   21507064.5684
 97  3 13 17 25 29.9990000  0  7 19 18 10  3 27  2 31
  20465952.796    -5103245.80249  -3967261.35149  20465952.7464   20465957.9874
  20532660.926     1556997.09849   1221740.14149  20532661.0054   20532666.2094
  23765929.754    -9486860.75749  -7379710.71249  23765929.4094   23765935.5004
  23631562.858      211194.48349    177694.93349  23631563.7194   23631568.7354
  21578474.399   -14079767.85049 -10952240.07749  21578474.3734   21578480.1954
  22936562.086   -13444312.03249 -10201721.34049  22936561.5794   22936568.4644
  21507276.216   -11325174.77949  -8801700.04049  21507276.3324   21507281.2344
 97  3 13 17 25 59.9990000  0  7 19 18 10  3 27  2 31
  20466518.352    -5100273.81049  -3964945.51349  20466518.4544   20466523.7294
  20543643.580     1614711.36549   1266712.28649  20543643.7214   20543649.0294
  23763560.985    -9499310.41149  -7389411.74949  23763558.0814   23763567.5004
  23643300.696      272875.97149    225758.40149  23643301.3434   23643306.9814
  21568209.712   -14133709.30849 -10994272.37549  21568209.6894   21568214.8484
  22923949.686   -13510590.41849 -10253366.79449  22923949.4304   22923956.4944
  21507625.571   -11323339.28049  -8800269.76949  21507625.8304   21507630.9564
 97  3 13 17 26 29.9990000  0  7 19 18 10  3 27  2 31
  20467129.403    -5097062.75749  -3962443.39749  20467129.3114   20467134.7544
  20554728.870     1672964.71049   1312104.49549  20554728.8774   20554733.9854
  23761301.469    -9511179.74349  -7398660.61549  23761299.1454   23761309.6094
  23655131.440      335046.06349    274202.58849  23655132.3534   23655137.5854
  21557970.986   -14187514.31449 -11036198.35149  21557970.9974   21557976.3684
  22911389.710   -13576593.58349 -10304797.79349  22911389.1454   22911396.2574
  21508102.359   -11320834.27149  -8798317.80249  21508102.3214   21508107.8844
 97  3 13 17 26 59.9990000  0  7 19 18 10  3 27  2 31
  20467787.369    -5093605.06749  -3959749.09649  20467787.1764   20467792.7674
  20565919.351     1731771.35249   1357927.83949  20565919.5004   20565924.8324
  23759150.846    -9522477.88049  -7407464.40249  23759152.1514   23759160.1684
  23667059.565      397728.05049    323045.64349  23667059.3564   23667066.3404
  21547757.107   -14241188.50649 -11078022.39249  21547757.0684   21547762.5414
  22898882.610   -13642318.53549 -10356011.99649  22898881.6544   22898889.0924
  21508708.077   -11317651.71649  -8795837.87549  21508708.2314   21508713.4334
 97  3 13 17 27 29.9990000  0  7 19 18 10  3 27  2 31
  20468494.183    -5089890.74949  -3956854.83749  20468494.2364   20468499.6644
  20577213.250     1791120.78049   1404174.12849  20577213.2824   20577218.5014
  23757108.633    -9533213.54449  -7415829.84949  23757109.4854   23757115.8234
  23679083.221      460912.66049    372280.34549  23679081.4834   23679090.3264
  21537568.821   -14294728.41049 -11119741.78849  21537568.6814   21537574.3334
  22886428.572   -13707764.52049 -10407008.82349  22886428.3354   22886435.6974
  21509442.248   -11313794.18049  -8792832.00049  21509442.1534   21509447.4934
 97  3 13 17 27 59.9990000  0  7 19 18 10  3 27  2 31
  20469249.509    -5085921.63349  -3953762.03249  20469249.5034   20469254.9214
  20588606.860     1850994.41649   1450828.88749  20588606.9544   20588612.1674
  23755170.299    -9543403.02049  -7423769.70649  23755170.0084   23755175.9284
  23691203.007      524602.31949    421908.60149  23691203.0214   23691209.0034
  21527406.447   -14348131.85149 -11161354.85549  21527406.6764   21527411.9704
  22874026.259   -13772938.93349 -10457794.03449  22874025.3224   22874032.9064
  21510301.697   -11309278.31049  -8789313.13449  21510301.8984   21510307.3204
 97  3 13 17 28 29.9990000  0  7 19 18 10  3 27  2 31
  20470057.443    -5081675.88749  -3950453.66549  20470057.3244   20470062.7454
  20600099.944     1911390.88649   1497891.06349  20600100.0084   20600105.2204
  23753334.747    -9553047.91649  -7431285.21849  23753333.6594   23753339.9814
  23703420.091      588803.55449    471935.48749  23703420.2544   23703426.3174
  21517271.755   -14401390.14249 -11202854.81149  21517271.6834   21517277.1054
  22861679.396   -13837821.92549 -10508352.16949  22861678.7894   22861685.6414
  21511284.849   -11304111.78949  -8785287.27249  21511284.6184   21511289.6774
 97  3 13 17 28 59.9990000  0  7 19 18 10  3 27  2 31
  20470918.106    -5077153.21649  -3946929.50749  20470917.9984   20470923.3754
  20611688.989     1972292.02649   1545346.48349  20611689.1154   20611694.2844
  23751605.586    -9562131.88849  -7438363.66649  23751605.4164   23751612.7054
  23715733.195      653508.71849    522355.08649  23715732.4304   23715739.3014
  21507165.722   -14454497.75949 -11244237.36449  21507165.7394   21507171.0574
  22849392.058   -13902391.93149 -10558666.40249  22849392.1554   22849398.9594
  21512391.485   -11298296.08349  -8780755.54249  21512391.0624   21512396.6814
 97  3 13 17 29 29.9990000  0  7 19 18 10  3 27  2 31
  20471830.342    -5072359.48949  -3943194.13549  20471830.2974   20471835.6314
  20623373.654     2033695.38749   1593193.23949  20623373.8254   20623378.9314
  23749986.199    -9570642.07949  -7444994.99749  23749987.1964   23749994.0334
  23728139.024      718701.92649    573154.93349  23728138.2024   23728146.4754
  21497091.979   -14507435.69349 -11285487.70049  21497092.0234   21497097.6924
  22837165.425   -13966642.93649 -10608732.07949  22837164.8804   22837172.4434
  21513622.508   -11291827.24149  -8775714.88749  21513622.2194   21513627.9144
 97  3 13 17 29 59.9990000  0  7 19 18 10  3 27  2 31
  20472793.677    -5067296.83249  -3939249.20649  20472793.6504   20472799.2434
  20635158.614     2095625.36749   1641450.35749  20635158.7574   20635163.9034
  23748477.705    -9578572.54649  -7451174.60149  23748477.6814   23748484.9134
  23740638.657      784388.67749    624339.36249  23740638.0784   23740646.0444
  21487050.629   -14560203.30349 -11326605.30249  21487050.4454   21487056.1444
  22824997.103   -14030588.01949 -10658559.37349  22824996.6644   22825003.4614
  21514978.807   -11284699.89749  -8770161.11149  21514978.5404   21514984.0464
 97  3 13 17 30 29.9990000  0  7 19 18 10  3 27  2 31
  20473804.096    -5061987.01449  -3935111.70049  20473804.1904   20473809.5434
  20647039.923     2158062.00149   1690102.26649  20647040.0124   20647045.2334
  23747076.086    -9585940.61849  -7456915.96149  23747075.2524   23747082.5564
  23753225.315      850532.52949    675879.95949  23753225.0154   23753231.7474
  21477037.247   -14612823.91849 -11367608.37349  21477037.3464   21477042.5684
  22812880.524   -14094260.82349 -10708174.49849  22812879.9524   22812886.7604
  21516458.379   -11276925.05449  -8764102.80449  21516458.2564   21516463.3204
 97  3 13 17 30 59.9990000  0  7 19 18 10  3 27  2 31
  20474867.189    -5056400.55249  -3930758.61949  20474867.2844   20474872.7934
  20659022.928     2221033.34649   1739170.83049  20659022.9864   20659028.1394
  23745786.435    -9592718.51749  -7462197.45449  23745785.6354   23745790.4844
  23765905.234      917166.05749    727802.14649  23765905.0064   23765911.9864
  21467058.431   -14665263.14049 -11408470.10249  21467058.2754   21467063.7154
  22800816.946   -14157655.21649 -10757572.68549  22800816.9634   22800823.4094
  21518069.299   -11268459.57749  -8757506.33049  21518068.8014   21518074.4034
 97  3 13 17 31 29.9990000  0  7 19 18 10  3 27  2 31
  20475984.999    -5050526.73849  -3926181.62949  20475985.0014   20475990.5864
  20671109.137     2284546.49249   1788661.57549  20671109.2394   20671114.3644
  23744605.054    -9598927.06549  -7467035.27549  23744605.1724   23744611.1464
  23778678.947      984292.28249    780108.26749  23778679.1034   23778685.4464
  21457113.318   -14717525.01849 -11449193.63049  21457113.0804   21457118.8014
  22788801.603   -14220796.52649 -10806773.66149  22788801.5814   22788808.3274
  21519810.488   -11259309.09149  -8750376.07649  21519810.2054   21519815.9324
 97  3 13 17 31 59.9990000  0  7 19 18 10  3 27  2 31
  20477148.923    -5044410.14949  -3921415.46549  20477149.0954   20477154.3174
  20683288.618     2348549.90749   1838534.34649  20683288.6074   20683293.7184
  23743521.212    -9604623.37449  -7471473.95449  23743519.5034   23743527.3764
  23791539.759     1051876.62649    832771.34649  23791540.2294   23791546.1624
  21447191.458   -14769664.65949 -11489821.92049  21447191.4484   21447196.6844
  22776824.816   -14283734.88049 -10855816.50249  22776824.5134   22776831.6694
  21521670.893   -11249532.64849  -8742758.06849  21521670.2084   21521676.2114
 97  3 13 17 32 29.9990000  0  7 19 18 10  3 27  2 31
  20478364.994    -5038019.56449  -3916435.80249  20478365.1134   20478370.3594
  20695564.726     2413061.14149   1888802.82149  20695564.6294   20695569.9474
  23742539.760    -9609776.10249  -7475489.11649  23742537.9234   23742545.5074
  23804494.942     1119956.51749    885820.55949  23804495.8804   23804500.6414
  21437300.279   -14821643.34649 -11530324.78949  21437300.2464   21437305.6574
  22764898.623   -14346407.63949 -10904652.37549  22764898.3194   22764904.8584
  21523658.116   -11239089.19949  -8734620.31749  21523657.8024   21523663.3804
 97  3 13 17 32 59.9990000  0  7 19 18 10  3 27  2 31
  20479633.495    -5031353.74049  -3911241.66749  20479633.5354   20479638.8934
  20707939.573     2478091.49049   1939475.79949  20707939.5524   20707944.6674
  23741664.156    -9614376.31049  -7479073.72049  23741665.8874   23741670.9494
  23817546.963     1188545.52749    939266.50349  23817546.4164   23817555.1164
  21427441.653   -14873450.91449 -11570694.31249  21427441.5114   21427446.9254
  22753029.610   -14408779.70849 -10953253.93949  22753029.0864   22753036.4344
  21525771.561   -11227982.58049  -8725965.81149  21525771.0394   21525776.7724
 97  3 13 17 33 29.9990000  0  7 19 18 10  3 27  2 31
  20480955.415    -5024407.14449  -3905828.75149  20480955.3504   20480960.9444
  20720417.757     2543664.86649   1990571.91049  20720417.6934   20720423.1604
  23740900.692    -9618392.24749  -7482203.01449  23740900.8464   23740905.3074
  23830698.974     1257659.29049    993121.32549  23830699.4204   23830705.9564
  21417618.237   -14925073.23649 -11610919.49249  21417618.2414   21417623.4374
  22741227.017   -14470802.77149 -11001583.56749  22741226.7064   22741232.7644
  21528013.863   -11216199.05249  -8716783.84449  21528013.0974   21528019.5354
 97  3 13 17 33 59.9990000  0  7 19 18 10  3 27  2 31
  20482319.872    -5017236.69149  -3900241.40049  20482319.9454   20482325.3974
  20732988.287     2609723.30849   2042045.99949  20732988.2614   20732993.5984
  23740242.587    -9621852.70349  -7484899.47349  23740240.7934   23740247.4684
  23843940.862     1327245.54549   1047344.31949  23843941.4934   23843948.0154
  21407820.737   -14976559.36749 -11651038.54549  21407820.5444   21407826.0894
  22729485.582   -14532504.44749 -11049662.75549  22729485.0054   22729491.9634
  21530378.936   -11203769.69749  -8707098.62449  21530378.6694   21530385.0764
 97  3 13 17 34 29.9990000  0  7 19 18 10  3 27  2 31
  20483730.361    -5009824.77249  -3894465.89349  20483730.4384   20483735.6564
  20745654.359     2676283.99449   2093911.45649  20745654.4024   20745659.7524
  23739693.026    -9624738.90149  -7487148.49649  23739692.8034   23739699.1414
  23857272.660     1397304.20849   1101935.43849  23857272.5744   23857278.2114
  21398052.013   -15027894.31849 -11691039.79649  21398051.8674   21398057.3544
  22717807.923   -14593870.37349 -11097480.32449  22717807.4294   22717814.2104
  21532873.491   -11190660.16249  -8696883.39849  21532873.1824   21532878.9904
 97  3 13 17 34 59.9990000  0  7 19 18 10  3 27  2 31
  20485186.044    -5002175.18449  -3888505.18749  20485186.1414   20485191.4734
  20758415.646     2743344.70949   2146166.55049  20758415.9084   20758420.9744
  23739252.162    -9627055.10649  -7488953.34649  23739252.2884   23739256.3234
  23870691.202     1467818.95849   1156881.93049  23870691.5244   23870698.4004
  21388310.439   -15079086.54549 -11730929.84149  21388310.5314   21388315.8504
  22706188.381   -14654931.26649 -11145060.20549  22706188.0734   22706194.8124
  21535494.698   -11176885.96049  -8686150.25049  21535494.9574   21535499.8874
 97  3 13 17 35 29.9990000  0  7 19 18 10  3 27  2 31
  20486689.867    -4994272.82149  -3882347.50749  20486689.9004   20486695.1934
  20771273.873     2810914.94149   2198818.65849  20771273.6164   20771279.0654
  23738921.280    -9628793.10249  -7490307.66049  23738921.2874   23738926.5914
  23884197.368     1538793.95049   1212187.07649  23884197.9244   23884203.8834
  21378596.402   -15130134.22849 -11770707.25449  21378596.4164   21378601.6354
  22694625.040   -14715697.00049 -11192410.08149  22694624.5984   22694631.3584
  21538246.910   -11162423.52149  -8674880.82049  21538247.0224   21538251.8274
 97  3 13 17 35 59.9990000  0  7 19 18 10  3 27  2 31
  20488242.266    -4986114.88749  -3875990.68949  20488242.4354   20488247.7654
  20784228.097     2878990.06649   2251864.19349  20784228.1584   20784233.4444
  23738699.394    -9629961.11949  -7491217.79549  23738698.5714   23738705.6294
  23897790.453     1610226.54549   1267848.77149  23897790.8444   23897797.9054
  21368912.749   -15181022.05149 -11810360.10349  21368912.6104   21368917.9334
  22683115.313   -14776180.99149 -11239540.43149  22683114.6364   22683121.5174
  21541129.042   -11147278.42449  -8663079.43849  21541128.9874   21541134.2574
 97  3 13 17 36 29.9990000  0  7 19 18 10  3 27  2 31
  20489842.214    -4977707.16449  -3869439.23549  20489842.4874   20489847.7624
  20797277.942     2947567.33149   2305301.00049  20797277.7344   20797283.4334
  23738579.823    -9630588.15949  -7491706.43249  23738578.2344   23738587.7554
  23911466.765     1682095.12849   1323850.18549  23911468.4554   23911473.9414
  21359258.145   -15231757.38449 -11849894.12849  21359257.9734   21359263.3984
  22671655.901   -14836400.34149 -11286464.56149  22671655.0704   22671662.5894
  21544134.897   -11131482.64349  -8650771.03349  21544135.0664   21544140.4334
 97  3 13 17 36 59.9990000  0  7 19 18 10  3 27  2 31
  20491493.560    -4969029.54849  -3862677.46249  20491493.4744   20491499.2094
  20810424.917     3016655.18649   2359135.67149  20810425.1624   20810430.5034
  23738566.691    -9630654.46249  -7491758.14549  23738566.6024   23738572.9084
  23925230.885     1754424.44949   1380210.64049  23925232.1064   23925237.1954
  21349634.247   -15282331.30849 -11889302.38449  21349634.0964   21349639.5004
  22660249.834   -14896339.47549 -11333170.35349  22660249.5564   22660256.4304
  21547264.372   -11115036.92849  -8637956.18849  21547263.9704   21547269.4524
 97  3 13 17 37 29.9990000  0  7 19 18 10  3 27  2 31
  20493191.876    -4960105.01349  -3855723.29549  20493191.7994   20493197.1774
  20823664.465     3086229.18349   2413349.15249  20823664.5074   20823670.1684
  23738655.855    -9630186.27849  -7491393.33049  23738656.9604   23738660.9494
  23939077.805     1827189.14049   1436910.35049  23939077.2724   23939084.3824
  21340037.766   -15332761.08049 -11928598.31349  21340037.7094   21340042.9484
  22648893.797   -14956015.37549 -11379671.02949  22648893.4774   22648900.2754
  21550513.259   -11097963.80949  -8624652.46249  21550512.9104   21550518.7924
 97  3 13 17 37 59.9990000  0  7 19 18 10  3 27  2 31
  20494940.379    -4950916.68649  -3848563.57449  20494940.4884   20494945.9234
  20836996.648     3156290.12449   2467942.07049  20836996.6674   20837002.1014
  23738849.339    -9629174.42549  -7490604.84449  23738847.8384   23738856.8724
  23953009.033     1900397.76749   1493955.99949  23953007.3984   23953016.2154
  21330473.160   -15383023.38749 -11967763.74249  21330473.0414   21330478.2734
  22637591.697   -15015408.14449 -11425951.08749  22637590.9424   22637598.0714
  21553883.297   -11080254.09749  -8610852.68249  21553882.5484   21553888.6164
 97  3 13 17 38 29.9990000  0  7 19 18 10  3 27  2 31
  20496741.700    -4941450.66449  -3841187.45949  20496741.5814   20496747.0534
  20850421.978     3226840.57349   2522916.42649  20850421.9134   20850427.4294
  23739146.728    -9627608.14549  -7489384.41449  23739145.3824   23739154.6364
  23967025.753     1974057.28549   1551352.94549  23967025.6934   23967033.5934
  21320938.776   -15433127.00349 -12006805.52349  21320938.6814   21320944.1024
  22626346.339   -15074502.39649 -11471998.52049  22626345.0974   22626352.6764
  21557378.398   -11061886.51849  -8596540.28549  21557378.1584   21557384.0704
 97  3 13 17 38 59.9990000  0  7 19 18 10  3 27  2 31
  20498590.700    -4931734.21349  -3833616.20449  20498590.7314   20498596.2384
  20863933.128     3297842.06749   2578242.24649  20863933.3494   20863938.7934
  23739548.317    -9625496.97649  -7487739.38749  23739548.9324   23739554.8364
  23981126.429     2048157.70149   1609093.46149  23981126.8814   23981132.8974
  21311431.824   -15483086.28849 -12045734.83449  21311431.7834   21311437.0644
  22615153.499   -15133320.59249 -11517830.85949  22615153.0654   22615160.2964
  21560994.539   -11042883.33149  -8581732.60249  21560994.5844   21561000.2234
 97  3 13 17 39 29.9990000  0  7 19 18 10  3 27  2 31
  20500486.986    -4921769.09349  -3825851.18649  20500486.9184   20500492.1594
  20877527.592     3369281.30049   2633909.16649  20877527.6484   20877532.8744
  23740051.952    -9622852.20449  -7485678.52849  23740051.2644   23740056.7094
  23995308.688     2122684.79249   1667166.48749  23995309.4034   23995315.1884
  21301954.605   -15532889.36149 -12084542.42149  21301954.4444   21301959.8204
  22604015.555   -15191850.85849 -11563438.83749  22604014.7264   22604022.1224
  21564731.541   -11023245.47649  -8566430.37449  21564731.7974   21564736.7104
 97  3 13 17 39 59.9990000  0  7 19 18 10  3 27  2 31
  20502435.644    -4911528.76649  -3817871.71549  20502435.6294   20502441.0374
  20891205.908     3441161.33449   2689919.56449  20891206.0394   20891211.4054
  23740658.258    -9619664.06649  -7483194.29149  23740657.8054   23740665.8324
  24009576.267     2197660.24749   1725588.88849  24009575.8374   24009583.9864
  21292508.248   -15582530.25649 -12123223.63849  21292508.1634   21292513.7174
  22592935.934   -15250074.29749 -11608807.72249  22592935.5364   22592942.3204
  21568592.304   -11002957.14349  -8550621.29249  21568592.5244   21568597.6214
 97  3 13 17 40 29.9990000  0  7 19 18 10  3 27  2 31
  20504436.874    -4901012.21349  -3809677.00649  20504437.0744   20504442.5794
  20904972.048     3513502.97349   2746289.64649  20904971.6994   20904977.3754
  23741369.292    -9615927.95149  -7480283.07749  23741369.7524   23741376.0904
  24023928.553     2273081.60149   1784358.76149  24023927.6814   24023935.3104
  21283092.494   -15632010.33949 -12161779.55449  21283092.4624   21283097.9644
  22581915.132   -15307988.99449 -11653936.04449  22581914.9864   22581922.1344
  21572574.884   -10982029.16249  -8534313.77749  21572575.3274   21572580.1444
 97  3 13 17 40 59.9990000  0  7 19 18 10  3 27  2 31
  20506489.819    -4890224.00349  -3801270.62449  20506489.9324   20506495.2474
  20918826.795     3586309.93149   2803022.32149  20918826.9674   20918832.1814
  23742180.564    -9611667.06849  -7476962.94049  23742179.7314   23742186.5884
  24038361.016     2348926.10149   1843458.32549  24038360.2004   24038368.8234
  21273706.412   -15681334.45949 -12200213.94149  21273706.2304   21273711.4194
  22570947.699   -15365623.17449 -11698845.77649  22570947.1984   22570954.4764
  21576676.373   -10960476.51149  -8517519.51149  21576676.0984   21576681.3474
 97  3 13 17 41 29.9990000  0  7 19 18 10  3 27  2 31
  20508595.488    -4879158.66749  -3792648.29449  20508595.6154   20508601.0064
  20932774.799     3659607.06549   2860136.94749  20932774.8424   20932780.4744
  23743089.689    -9606889.03949  -7473239.82349  23743089.6914   23743093.6994
  24052870.759     2425176.50549   1902874.13349  24052871.6534   24052878.9704
  21264347.119   -15730517.92249 -12238538.72449  21264347.1894   21264352.5694
  22560034.507   -15422972.22249 -11743533.32049  22560033.8244   22560040.9244
  21580899.868   -10938282.35249  -8500225.37549  21580899.9644   21580904.6154
 97  3 13 17 41 59.9990000  0  7 19 18 10  3 27  2 31
  20510754.258    -4867814.53549  -3783808.72349  20510754.1804   20510759.6104
  20946822.403     3733427.59049   2917659.40249  20946822.3674   20946827.9224
  23744100.368    -9601578.77549  -7469101.99049  23744100.1424   23744106.9094
  24067460.716     2501845.90949   1962616.49549  24067461.5634   24067467.6964
  21255017.137   -15779547.39449 -12276743.50349  21255017.3784   21255022.5014
  22549174.648   -15480040.88349 -11788002.38849  22549174.4114   22549181.0224
  21585249.371   -10915426.14649  -8482415.35049  21585248.8434   21585254.3044
 97  3 13 17 42 29.9990000  0  7 19 18 10  3 27  2 31
  20512967.573    -4856183.41749  -3774745.52249  20512967.3684   20512972.9614
  20960974.563     3807797.78949   2975610.18049  20960974.4894   20960979.9724
  23745217.610    -9595708.97649  -7464528.11849  23745215.7594   23745223.3104
  24082132.799     2578947.12649   2022695.33449  24082133.2864   24082139.4314
  21245720.550   -15828401.41449 -12314811.57249  21245720.5744   21245725.7604
  22538370.903   -15536815.17949 -11832242.07149  22538371.0304   22538377.4014
  21589728.052   -10891890.00449  -8464075.50149  21589727.9824   21589733.0364
 97  3 13 17 42 59.9990000  0  7 19 18 10  3 27  2 31
  20515223.493    -4844328.37949  -3765507.84349  20515223.4864   20515228.9654
  20975214.011     3882626.68349   3033918.37949  20975214.2114   20975219.6014
  23746426.702    -9589352.33249  -7459574.96449  23746426.5614   23746433.5764
  24096877.199     2656429.16249   2083070.91249  24096876.9594   24096884.1374
  21236447.137   -15877133.56149 -12352784.67249  21236447.0644   21236452.4234
  22527611.545   -15593355.95149 -11876299.80349  22527611.2094   22527618.4814
  21594325.522   -10867730.20449  -8445249.68849  21594325.3904   21594330.1634
 97  3 13 17 43 29.9990000  0  7 19 18 10  3 27  2 31
  20517530.607    -4832204.59449  -3756060.74949  20517530.5394   20517535.9494
  20989546.527     3957944.57649   3092607.62049  20989546.5094   20989552.0154
  23747741.598    -9582444.40449  -7454192.17349  23747741.3614   23747746.7244
  24111707.043     2734360.53649   2143796.62149  24111706.0734   24111714.2704
  21227208.510   -15925682.92549 -12390615.34149  21227208.4194   21227213.6894
  22516908.699   -15649599.55949 -11920125.96449  22516908.2894   22516915.6484
  21599049.365   -10842906.00749  -8425906.17049  21599049.4594   21599054.5174
 97  3 13 17 43 59.9990000  0  7 19 18 10  3 27  2 31
  20519873.910    -4819890.53549  -3746465.39349  20519873.8974   20519879.4244
  21003954.983     4033661.39749   3151607.72449  21003955.1344   21003960.4014
  23749147.216    -9575057.91649  -7448436.49449  23749146.9384   23749154.4804
  24126609.941     2812675.79549   2204821.43449  24126610.4954   24126616.9604
  21217992.142   -15974115.51449 -12428355.01149  21217991.9604   21217997.4744
  22506247.420   -15705624.65549 -11963781.86049  22506247.1894   22506254.3274
  21603885.240   -10817493.77749  -8406104.44249  21603884.9924   21603890.1554
 97  3 13 17 44 29.9990000  0  7 19 18 10  3 27  2 31
  20522262.723    -4807336.99049  -3736683.42649  20522262.8834   20522268.0934
  21018442.254     4109792.10649   3210930.33749  21018442.0054   21018447.5894
  23750648.422    -9567168.33949  -7442288.81549  23750647.3994   23750655.7214
  24141592.796     2891410.30649   2266172.95449  24141592.5334   24141599.8734
  21208802.852   -16022405.49149 -12465983.55849  21208802.8714   21208808.0764
  22495636.861   -15761383.25149 -12007230.08849  22495636.7554   22495643.1804
  21608837.821   -10791467.90549  -8385824.55049  21608837.6534   21608843.1594
 97  3 13 17 44 59.9990000  0  7 19 18 10  3 27  2 31
  20524708.552    -4794484.30449  -3726668.36049  20524708.7104   20524714.1084
  21033019.841     4186397.58149   3270622.89449  21033020.0434   21033025.4724
  23752256.326    -9558719.57649  -7435705.37849  23752255.5764   23752261.1994
  24156667.373     2970627.54649   2327900.62849  24156666.6984   24156674.3904
  21199654.616   -16070479.63749 -12503443.93149  21199654.4954   21199659.8244
  22485089.368   -15816810.63949 -12050420.25049  22485089.0074   22485096.1824
  21613919.310   -10764764.62849  -8365016.80949  21613919.0454   21613924.7214
 97  3 13 17 45 29.9990000  0  7 19 18 10  3 27  2 31
  20527193.064    -4781428.26949  -3716494.83149  20527193.3304   20527198.8194
  21047674.290     4263407.12049   3330630.30649  21047674.4084   21047679.6834
  23753954.874    -9549791.90449  -7428748.79149  23753953.8404   23753962.9864
  24171814.013     3050224.46849   2389924.15249  24171813.4724   24171821.0434
  21190528.673   -16118436.59649 -12540812.98749  21190528.5424   21190533.9504
  22474587.757   -15871996.76349 -12093422.40549  22474587.7274   22474594.5054
  21619114.616   -10737462.85349  -8343742.71449  21619114.2994   21619119.4704
 97  3 13 17 45 59.9990000  0  7 19 18 10  3 27  2 31
  20529730.318    -4768094.95949  -3706105.25449  20529730.3534   20529735.8534
  21062418.790     4340889.86949   3391006.45349  21062418.5914   21062424.4564
  23755756.410    -9540325.15149  -7421372.13749  23755757.2414   23755763.1254
  24187043.847     3130257.99449   2452287.85749  24187043.6184   24187050.3934
  21181437.378   -16166211.71549 -12578040.35549  21181437.1264   21181442.7624
  22464144.769   -15926875.36049 -12136184.93549  22464144.3964   22464151.4544
  21624437.902   -10709488.04449  -8321944.17549  21624437.7134   21624442.9954
 97  3 13 17 46 29.9990000  0  7 19 18 10  3 27  2 31
  20532311.294    -4754531.58649  -3695536.40549  20532311.0874   20532316.8244
  21077241.449     4418783.33249   3451702.63249  21077241.7394   21077246.9984
  23757652.350    -9530364.51649  -7413610.61649  23757650.8514   23757658.8354
  24202346.866     3210675.50349   2514950.83849  24202347.4244   24202353.8164
  21172374.264   -16213838.70249 -12615152.29249  21172374.1604   21172379.7014
  22453749.688   -15981502.10549 -12178751.21749  22453749.3034   22453756.3324
  21629877.168   -10680904.64049  -8299671.40649  21629877.0884   21629882.6904
 97  3 13 17 46 59.9990000  0  7 19 18 10  3 27  2 31
  20534939.273    -4740721.43449  -3684775.26349  20534939.3974   20534944.7594
  21092148.111     4497118.22449   3512742.77649  21092148.2304   21092153.6134
  23759648.182    -9519873.69349  -7405436.00049  23759648.8474   23759653.3604
  24217727.320     3291499.72649   2577930.69649  24217727.4364   24217733.8144
  21163345.425   -16261285.79849 -12652124.05749  21163345.2514   21163350.6374
  22443405.003   -16035863.66349 -12221110.86149  22443404.3944   22443411.9814
  21635437.108   -10651686.99849  -8276904.42349  21635437.0694   21635442.5684
 97  3 13 17 47 29.9990000  0  7 19 18 10  3 27  2 31
  20537615.295    -4726659.13949  -3673817.64949  20537615.3754   20537620.9414
  21107134.601     4575872.84449   3574109.98249  21107134.7954   21107140.3854
  23761746.354    -9508849.89149  -7396846.03949  23761746.6454   23761753.5884
  24233182.395     3372716.54949   2641216.48149  24233181.6174   24233189.9914
  21154347.372   -16308570.55749 -12688969.31649  21154347.4004   21154352.8104
  22433109.162   -16089968.86049 -12263270.73849  22433108.8024   22433115.4624
  21641115.380   -10621847.52249  -8253652.90249  21641115.3784   21641120.8214
 97  3 13 17 47 59.9990000  0  7 19 18 10  3 27  2 31
  20540348.539    -4712295.92849  -3662625.55549  20540348.7324   20540354.3104
  21122209.108     4655089.79649   3635837.43649  21122209.4394   21122214.5204
  23763955.100    -9497243.90749  -7387802.46149  23763954.4374   23763962.7674
  24248720.791     3454371.83449   2704843.91149  24248721.0004   24248728.0754
  21145390.147   -16355641.04549 -12725647.62049  21145390.1114   21145395.4154
  22422871.998   -16143765.74749 -12305190.37649  22422871.5494   22422878.1154
  21646917.414   -10591357.98949  -8229894.84349  21646917.5314   21646923.1664
 97  3 13 17 48 29.9990000  0  7 19 18 10  3 27  2 31
  20543126.538    -4697697.64549  -3651250.28249  20543126.6394   20543131.9084
  21137360.336     4734709.80649   3697878.96849  21137360.4104   21137365.7274
  23766261.839    -9485121.62849  -7378356.54249  23766260.8304   23766268.5174
  24264328.326     3536389.52849   2768753.76549  24264328.3154   24264334.7174
  21136459.854   -16402570.15949 -12762215.75749  21136459.7434   21136464.9324
  22412682.627   -16197311.24549 -12346914.12149  22412682.5634   22412689.1074
  21652830.756   -10560284.35349  -8205681.63849  21652830.6674   21652836.3934
 97  3 13 17 48 59.9990000  0  7 19 18 10  3 27  2 31
  20545954.150    -4682838.48249  -3639671.72949  20545954.2524   20545959.6634
  21152595.693     4814772.12049   3760265.15849  21152596.1024   21152601.4924
  23768667.963    -9472474.27549  -7368501.51249  23768667.9844   23768673.7034
  24280006.870     3618780.89649   2832954.75849  24280007.0414   24280014.0104
  21127554.856   -16449366.21249 -12798680.21149  21127554.9784   21127560.0964
  22402548.506   -16250566.66249 -12388411.83649  22402548.2894   22402554.5994
  21658862.030   -10528589.99949  -8180984.75449  21658861.5024   21658867.1134
 97  3 13 17 49 29.9990000  0  7 19 18 10  3 27  2 31
  20548818.288    -4667787.47649  -3627943.68349  20548818.1994   20548823.7704
  21167904.005     4895217.74649   3822950.03349  21167904.0454   21167909.4664
  23771160.306    -9459379.74649  -7358297.97649  23771161.4174   23771167.0004
  24295741.201     3701466.03349   2897384.68049  24295741.4684   24295749.0984
  21118661.631   -16496100.60949 -12835096.62649  21118661.7854   21118667.1484
  22392459.210   -16303586.34949 -12429725.85949  22392459.0734   22392465.3574
  21664999.053   -10496339.73149  -8155854.70049  21664999.1534   21665004.0334
 97  3 13 17 49 59.9990000  0  7 19 18 10  3 27  2 31
  20551740.115    -4652433.02549  -3615979.19149  20551740.2164   20551745.8114
  21183309.595     4976174.46949   3886033.16949  21183309.8404   21183315.0454
  23773757.339    -9445731.79649  -7347663.24549  23773755.5224   23773765.6214
  24311553.321     3784559.26849   2962132.55349  24311554.0514   24311560.2414
  21109806.233   -16542636.16649 -12871358.10049  21109806.4854   21109811.6284
  22382437.224   -16356252.05549 -12470764.05949  22382436.8014   22382443.4794
  21671264.565   -10463414.30049  -8130198.54149  21671264.3964   21671269.2054
 97  3 13 17 50 29.9990000  0  7 19 18 10  3 27  2 31
  20554711.749    -4636817.12249  -3603810.96749  20554711.7594   20554717.4834
  21198798.051     5057566.71249   3949455.66649  21198798.2874   21198803.8774
  23776445.965    -9431600.60249  -7336651.97449  23776446.2794   23776451.9424
  24327431.931     3868000.14449   3027151.35249  24327432.8594   24327439.2364
  21100977.499   -16589031.71649 -12907510.47149  21100977.4174   21100982.7094
  22372469.714   -16408631.43449 -12511579.14449  22372469.4524   22372475.8184
  21677648.315   -10429867.14049  -8104057.90849  21677647.6374   21677653.6224
 97  3 13 17 50 59.9990000  0  7 19 18 10  3 27  2 31
  20557730.723    -4620952.35549  -3591448.82649  20557730.7294   20557736.3724
  21214366.562     5139379.43449   4013205.81449  21214366.5704   21214371.7134
  23779226.493    -9416991.11549  -7325267.95149  23779225.9844   23779232.8624
  24343375.337     3951782.35549   3092436.13649  24343376.1214   24343381.6714
  21092178.507   -16635270.56449 -12943540.74749  21092178.5394   21092183.9104
  22362551.800   -16460750.29849 -12552191.23449  22362551.2084   22362557.8564
  21684148.926   -10395706.28349  -8077439.07149  21684148.4864   21684154.3934
 97  3 13 17 51 29.9990000  0  7 19 18 10  3 27  2 31
  20560802.450    -4604810.26149  -3578870.58549  20560802.6434   20560808.1964
  21230017.162     5221624.05049   4077292.50449  21230017.2054   21230022.6384
  23782104.334    -9401866.25949  -7313482.39649  23782104.3524   23782111.5594
  24359390.370     4035941.93149   3158014.93449  24359389.9854   24359396.6514
  21083420.785   -16681292.80049 -12979402.23249  21083420.7024   21083426.1284
  22352684.477   -16512603.46449 -12592596.28549  22352683.8094   22352690.6114
  21690768.419   -10360920.01049  -8050332.90049  21690768.3844   21690773.9584
 97  3 13 17 51 59.9990000  0  7 19 18 10  3 27  2 31
  20563930.792    -4588370.67249  -3566060.52749  20563930.8574   20563936.1874
  21245747.936     5304289.90149   4141707.43049  21245748.3054   21245753.5894
  23785082.185    -9386217.97449  -7301288.94049  23785081.4714   23785091.0164
  24375479.331     4120490.43549   3223896.79749  24375479.8764   24375487.0364
  21074704.534   -16727096.94149 -13015093.77249  21074704.4464   21074709.6714
  22342864.359   -16564208.58049 -12632808.05749  22342863.9274   22342870.7974
  21697506.900   -10325509.11549  -8022740.00449  21697506.8794   21697511.9724
 97  3 13 17 52 29.9990000  0  7 19 18 10  3 27  2 31
  20567119.337    -4571614.78649  -3553004.01249  20567119.3304   20567125.0494
  21261563.991     5387403.57849   4206471.30849  21261563.9764   21261569.4104
  23788165.645    -9370012.79249  -7288661.58649  23788165.9454   23788171.5994
  24391647.130     4205452.59449   3290101.00249  24391647.2044   24391654.6024
  21066030.126   -16772681.36449 -13050614.10349  21066030.1014   21066035.3054
  22333096.928   -16615536.83949 -12672804.08049  22333096.3894   22333103.2324
  21704370.989   -10289438.56149  -7994633.09249  21704370.8374   21704376.6574
 97  3 13 17 52 59.9990000  0  7 19 18 10  3 27  2 31
  20570355.796    -4554607.06549  -3539751.24849  20570355.8894   20570361.5334
  21277459.438     5470934.75449   4271560.51449  21277459.4814   21277465.1204
  23791348.267    -9353291.02449  -7275631.61649  23791349.9214   23791355.4174
  24407884.818     4290782.53749   3356591.80649  24407885.7624   24407891.6804
  21057387.866   -16818096.78549 -13086002.73849  21057387.9544   21057393.1424
  22323373.596   -16666633.28449 -12712619.48049  22323373.1304   22323380.1654
  21711352.996   -10252747.91049  -7966042.98149  21711352.8834   21711358.4174
 97  3 13 17 53 29.9990000  0  7 19 18 10  3 27  2 31
  20573636.220    -4537368.31049  -3526318.45849  20573636.0684   20573641.8474
  21293430.609     5554863.81149   4336959.75249  21293430.7754   21293435.9914
  23794624.123    -9336076.25149  -7262217.55349  23794622.1564   23794632.5254
  24424188.063     4376456.82349   3423350.89449  24424188.8964   24424195.7054
  21048769.891   -16863384.59149 -13121291.93449  21048769.8204   21048774.9724
  22313692.678   -16717506.59249 -12752261.00649  22313692.2024   22313699.0464
  21718447.963   -10215463.58249  -7936990.27449  21718447.6224   21718453.0304
 97  3 13 17 53 59.9990000  0  7 19 18 10  3 27  2 31
  20576970.318    -4519847.57749  -3512665.95949  20576970.3304   20576975.8244
  21309489.221     5639252.29849   4402716.98449  21309489.4574   21309495.1784
  23798003.848    -9318314.37049  -7248377.16249  23798004.9244   23798010.4724
  24440567.697     4462531.58849   3490422.08149  24440569.1364   24440576.1594
  21040187.381   -16908485.91049 -13156435.82149  21040187.3614   21040192.6964
  22304069.474   -16768076.63349 -12791666.22449  22304069.0744   22304075.5374
  21725670.227   -10177510.05549  -7907416.11249  21725669.8324   21725675.2504
 97  3 13 17 54 29.9990000  0  7 19 18 10  3 27  2 31
  20580346.408    -4502106.03549  -3498841.38849  20580346.5034   20580352.1054
  21325626.398     5724053.54749   4468795.85149  21325626.7164   21325632.0404
  23801476.744    -9300066.20449  -7234157.81249  23801475.8914   23801483.2594
  24457013.515     4548954.29349   3557764.37349  24457014.4014   24457020.7184
  21031634.371   -16953432.29749 -13191458.97449  21031634.2234   21031639.6654
  22294500.423   -16818362.37249 -12830849.89849  22294499.9994   22294506.8384
  21733010.420   -10138936.46549  -7877358.78149  21733009.6504   21733015.7014
 97  3 13 17 54 59.9990000  0  7 19 18 10  3 27  2 31
  20583767.160    -4484129.95449  -3484834.06649  20583767.1054   20583772.7964
  21341841.552     5809264.49749   4535193.96549  21341841.5914   21341846.9084
  23805038.026    -9281350.37149  -7219574.10049  23805036.9464   23805044.4154
  24473526.110     4635727.85149   3625380.07349  24473524.7214   24473532.8384
  21023114.562   -16998203.99249 -13226346.01149  21023114.6614   21023119.8844
  22284985.303   -16868364.26849 -12869812.40249  22284984.9764   22284991.6784
  21740466.667   -10099753.50549  -7846826.62049  21740466.4484   21740472.4474
 97  3 13 17 55 29.9990000  0  7 19 18 10  3 27  2 31
  20587237.509    -4465893.11949  -3470623.55949  20587237.5324   20587243.1334
  21358137.727     5894901.55049   4601924.11349  21358138.1294   21358143.4304
  23808690.917    -9262154.08549  -7204615.99449  23808691.3864   23808697.7434
  24490109.878     4722875.89349   3693287.58149  24490110.8894   24490118.0674
  21014632.727   -17042776.43549 -13261077.78649  21014632.6934   21014637.9454
  22275528.520   -16918059.99549 -12908536.33549  22275528.2034   22275535.0094
  21748041.408   -10059948.04849  -7815809.39049  21748041.1244   21748046.7064
 97  3 13 17 55 59.9990000  0  7 19 18 10  3 27  2 31
  20590749.243    -4447438.79149  -3456243.58049  20590749.1814   20590754.8274
  21374505.950     5980916.90849   4668949.03949  21374505.9874   21374511.5154
  23812425.277    -9242530.97749  -7189325.27049  23812424.5814   23812432.6704
  24506756.711     4810354.41849   3761452.60449  24506757.3454   24506763.1914
  21006179.409   -17087198.88449 -13295692.67749  21006179.5054   21006184.7174
  22266122.631   -16967488.17049 -12947051.78249  22266122.3644   22266128.9424
  21755725.923   -10019565.66449  -7784342.60949  21755725.4054   21755731.3574
 97  3 13 17 56 29.9990000  0  7 19 18 10  3 27  2 31
  20594311.319    -4428720.02049  -3441657.53349  20594311.5554   20594317.0184
  21390954.137     6067352.59249   4736301.48749  21390954.0114   21390959.6454
  23816249.485    -9222435.01349  -7173666.11149  23816248.3144   23816256.8094
  24523472.752     4898197.31449   3829901.58749  24523473.2334   24523480.2084
  20997757.660   -17131455.61949 -13330178.43949  20997757.6754   20997763.0244
  22256773.898   -17016616.41949 -12985333.52249  22256773.3664   22256780.2404
  21763524.784    -9978582.12049  -7752407.39049  21763524.5954   21763530.4014
 97  3 13 17 56 59.9990000  0  7 19 18 10  3 27  2 31
  20597930.713    -4409700.11049  -3426836.83649  20597930.9494   20597936.4054
  21407487.116     6154233.82349   4804001.11349  21407486.9354   21407492.8554
  23820171.990    -9201823.49349  -7157605.21749  23820171.1894   23820178.5654
  24540262.528     4986427.37049   3898652.22349  24540262.2404   24540270.0494
  20989370.114   -17175532.38749 -13364523.96849  20989369.9624   20989375.5324
  22247483.960   -17065435.17049 -13023374.09849  22247483.9374   22247490.0384
  21771441.983    -9936976.91349  -7719987.76849  21771442.3844   21771447.6544
 97  3 13 17 57 29.9990000  0  7 19 18 10  3 27  2 31
  20601601.172    -4390412.02049  -3411807.16749  20601601.2184   20601606.8194
  21424097.000     6241519.24149   4872015.69149  21424096.8164   21424102.4504
  23824189.278    -9180712.76549  -7141155.33149  23824187.5984   23824195.8904
  24557117.014     5074998.75149   3967668.81649  24557116.8424   24557124.5364
  20981009.692   -17219466.59249 -13398758.41649  20981009.7094   20981015.0064
  22238247.039   -17113975.58449 -13061197.78449  22238246.6424   22238253.2904
  21779469.417    -9894792.97749  -7687117.18549  21779469.4174   21779474.2844
 97  3 13 17 57 59.9990000  0  7 19 18 10  3 27  2 31
  20605329.500    -4370819.67449  -3396540.41649  20605329.3774   20605334.9744
  21440785.710     6329219.13849   4940353.24449  21440785.8134   21440791.6684
  23828305.867    -9159076.10049  -7124295.65449  23828306.2074   23828312.0804
  24574038.629     5163921.58449   4036959.32949  24574038.4474   24574045.6974
  20972683.814   -17263219.36249 -13432851.47849  20972683.9034   20972689.2774
  22229067.881   -17162212.54549 -13098785.01449  22229067.8974   22229074.5004
  21787610.136    -9852013.18849  -7653782.30549  21787610.2514   21787615.4104
 97  3 13 17 58 29.9990000  0  6 19 18 10 27  2 31
  20609114.517    -4350929.14649  -3381041.32249  20609114.4674   20609120.2564
  21457548.324     6417307.23649   5008993.28949  21457548.6784   21457554.2764
  23832522.201    -9136922.19249  -7107032.86249  23832521.7094   23832529.2484
  20964395.344   -17306775.75649 -13466791.52049  20964395.4814   20964400.8254
  22219941.512   -17210171.84049 -13136155.86849  22219941.1354   22219948.0134
  21795862.341    -9808648.12549  -7619991.36949  21795862.7584   21795867.6944
 97  3 13 17 58 59.9990000  0  6 19 18 10 27  2 31
  20612953.645    -4330754.66449  -3365320.95949  20612953.6094   20612959.3874
  21474380.144     6505758.67549   5077916.45649  21474380.3764   21474385.8524
  23836832.696    -9114270.13349  -7089381.94749  23836830.1164   23836838.5994
  20956146.898   -17350121.73049 -13500567.60149  20956146.7224   20956152.2724
  22210863.934   -17257874.62649 -13173326.84949  22210863.4494   22210870.2234
  21804225.005    -9764702.59349  -7585748.12049  21804225.1094   21804230.6264
 97  3 13 17 59 29.9990000  0  6 19 18 10 27  2 31
  20616842.770    -4310317.13349  -3349395.62449  20616842.8174   20616848.4534
  21491276.659     6594550.64949   5147104.97449  21491276.7094   21491282.2524
  23841232.318    -9091149.55749  -7071365.95649  23841233.8574   23841241.1704
  20947936.752   -17393266.33349 -13534186.76549  20947936.6354   20947942.1444
  22201832.057   -17305337.31749 -13210310.74149  22201831.3924   22201838.0724
  21812697.405    -9720180.42249  -7551055.54149  21812697.5444   21812702.8044
 97  3 13 17 59 59.9990000  0  6 19 18 10 27  2 31
  20620781.086    -4289621.03549  -3333268.81449  20620781.1604   20620786.7394
  21508238.581     6683686.03549   5216561.08749  21508238.7564   21508244.4544
  23845719.102    -9067572.29849  -7052994.10049  23845717.5834   23845724.2054
  20939766.155   -17436202.93149 -13567643.85049  20939766.2124   20939771.6304
  22192845.342   -17352562.42449 -13247109.50049  22192845.0834   22192851.4974
  21821283.262    -9675061.93349  -7515898.30649  21821284.0794   21821288.4704
 97  3 13 18  0 29.9990000  0  6 19 18 10 27  2 31
  20624767.760    -4268670.95349  -3316944.09049  20624767.9804   20624773.4364
  21525268.783     6773180.37849   5286296.90849  21525268.8264   21525274.3224
  23850292.391    -9043538.90349  -7034266.78849  23850292.7764   23850298.8214
  20931631.418   -17478951.31949 -13600954.27749  20931631.2534   20931636.8724
  22183902.569   -17399557.04949 -13283728.66749  22183902.5144   22183909.0514
  21829985.066    -9629334.56049  -7480266.61849  21829985.2264   21829990.3134
 97  3 13 18  0 59.9990000  0  6 19 18 10 27  2 31
  20628804.669    -4247457.05349  -3300413.78549  20628804.7164   20628810.3104
  21542371.480     6863055.17149   5356329.17949  21542371.4474   21542376.7974
  23854953.969    -9019042.25949  -7015178.53949  23854952.2104   23854963.9504
  20923530.188   -17521523.46149 -13634127.36749  20923530.2014   20923535.5824
  22175007.424   -17446301.31549 -13320152.74049  22175007.0724   22175013.5204
  21838804.773    -9582987.08349  -7444151.72449  21838804.7004   21838810.1054
 97  3 13 18  1 29.9990000  0  6 19 18 10 27  2 31
  20632895.613    -4225959.33449  -3283662.33049  20632895.5944   20632901.4664
  21559551.048     6953334.06349   5426676.33749  21559551.3234   21559556.9994
  23859705.133    -8994076.64849  -6995724.84849  23859706.0194   23859711.4184
  20915462.872   -17563917.50649 -13667161.67849  20915462.8464   20915468.1334
  22166163.672   -17492775.63449 -13356366.47549  22166163.0754   22166169.8774
  21847744.179    -9536010.02149  -7407546.25049  21847744.0914   21847749.7334
 97  3 13 18  1 59.9990000  0  6 19 18 10 27  2 31
  20637031.869    -4204223.20449  -3266725.10449  20637032.0104   20637037.8744
  21576800.321     7043979.33149   5497308.98349  21576800.5724   21576806.2344
  23864538.970    -8968675.64649  -6975931.87849  23864536.4254   23864543.9814
  20907422.894   -17606167.89149 -13700084.05349  20907422.7424   20907428.3544
  22157364.528   -17539015.45349 -13392397.47149  22157364.2864   22157370.2644
  21856795.191    -9488446.37649  -7370483.69949  21856794.7064   21856800.5474
 97  3 13 18  2 29.9990000  0  6 19 18 10 27  2 31
  20641225.366    -4182186.26349  -3249553.47849  20641225.4474   20641231.3274
  21594129.709     7135045.54749   5568269.63949  21594130.0154   21594135.3824
  23869469.794    -8942761.74249  -6955739.27549  23869470.8294   23869477.2234
  20899422.866   -17648208.30449 -13732842.81349  20899422.7814   20899428.3444
  22148623.587   -17584949.52549 -13428190.22649  22148623.4174   22148629.5284
  21865966.781    -9440249.42049  -7332927.66049  21865966.4964   21865972.3874
 97  3 13 18  2 59.9990000  0  6 19 18 10 27  2 31
  20645465.345    -4159904.90249  -3232191.39649  20645465.5924   20645471.4254
  21611527.785     7226472.71849   5639511.55549  21611528.3504   21611533.5774
  23874490.559    -8916378.52949  -6935180.96049  23874488.6054   23874496.3014
  20891456.925   -17690069.29049 -13765461.76349  20891456.9654   20891462.3704
  22139932.820   -17630619.52549 -13463777.21149  22139932.6444   22139938.9104
  21875247.226    -9391480.35649  -7294925.81749  21875247.3514   21875252.9314
 97  3 13 18  3 29.9990000  0  6 19 18 10 27  2 31
  20649750.467    -4137386.81449  -3214644.84149  20649750.4054   20649756.3234
  21628995.012     7318263.59349   5711036.88049  21628995.0384   21629000.4994
  23879600.057    -8889528.18449  -6914258.62249  23879600.3974   23879607.5574
  20883528.130   -17731735.31049 -13797928.79149  20883528.0544   20883533.6114
  22131293.097   -17676021.63149 -13499155.44849  22131292.6254   22131298.9204
  21884634.760    -9342148.44549  -7256485.39549  21884634.3934   21884640.4954
 97  3 13 18  3 59.9990000  0  6 19 18 10 27  2 31
  20654082.482    -4114621.40749  -3196905.57949  20654082.3164   20654088.2234
  21646534.093     7410432.05549   5782856.42449  21646534.1264   21646539.9834
  23884802.737    -8862187.57249  -6892954.30149  23884801.2264   23884810.1294
  20875639.749   -17773189.05449 -13830230.40749  20875639.8254   20875645.1114
  22122708.607   -17721133.10549 -13534307.21749  22122708.2784   22122714.7184
  21894131.920    -9292240.79949  -7217596.35049  21894131.4284   21894137.5574
 97  3 13 18  4 29.9990000  0  6 19 18 10 27  2 31
  20658464.760    -4091592.68549  -3178961.13149  20658464.8924   20658470.5354
  21664146.445     7502985.79749   5854976.18849  21664146.3644   21664152.1484
  23890098.400    -8834357.34649  -6871268.44749  23890098.8894   23890104.6304
  20867789.332   -17814443.24049 -13862376.52649  20867789.1604   20867794.7084
  22114180.569   -17765948.26749 -13569228.08949  22114180.1424   22114186.8304
  21903737.142    -9241765.20549  -7178264.74349  21903736.9884   21903743.0634
 97  3 13 18  4 59.9990000  0  6 19 18 10 27  2 31
  20662900.588    -4068282.11849  -3160797.06949  20662900.6224   20662906.1984
  21681837.116     7595950.89949   5927416.48849  21681837.3564   21681842.9024
  23895484.787    -8806052.55849  -6849212.79949  23895486.4894   23895492.8954
  20859977.064   -17855497.09649 -13894366.54149  20859977.0184   20859982.3424
  22105708.835   -17810467.45649 -13603918.33049  22105708.4274   22105715.0474
  21913453.688    -9190704.43449  -7138477.16049  21913453.2324   21913459.1364
 97  3 13 18  5 29.9990000  0  6 19 18 10 27  2 31
  20667388.583    -4044697.69049  -3142419.60949  20667388.6654   20667394.6124
  21699600.890     7689300.14549   6000156.12849  21699600.9894   21699606.8274
  23900954.606    -8777311.49849  -6826817.20149  23900952.4554   23900960.3404
  20852197.732   -17896377.77849 -13926221.61549  20852197.7044   20852203.3444
  22097287.913   -17854719.49449 -13638400.41449  22097287.3764   22097294.0124
  21923278.651    -9139073.34649  -7098245.16849  21923278.3304   21923284.2194
 97  3 13 18  5 59.9990000  0  6 19 18 10 27  2 31
  20671934.589    -4020808.53249  -3123804.69249  20671934.6574   20671940.4874
  21717437.154     7783030.11249   6073192.42849  21717437.3214   21717443.1354
  23906511.052    -8748111.27149  -6804063.80549  23906510.8474   23906517.8224
  20844451.737   -17937083.29049 -13957940.19149  20844451.5764   20844457.0754
  22088918.558   -17898700.67449 -13672671.43849  22088918.1304   22088924.6404
  21933215.442    -9086855.11449  -7057555.65749  21933214.7714   21933221.3054
 97  3 13 18  6 29.9990000  0  6 19 18 10 27  2 31
  20676550.370    -3996552.72149  -3104904.07549  20676550.3824   20676556.3194
  21735352.481     7877175.84449   6146552.69449  21735352.4394   21735358.4424
  23912163.740    -8718406.05049  -6780916.93949  23912163.7934   23912171.3554
  20836750.993   -17977550.89449 -13989473.38949  20836750.9274   20836756.6844
  22080608.826   -17942368.18949 -13706698.03849  22080608.0634   22080615.0734
  21943273.572    -9033998.82349  -7016368.96849  21943273.0484   21943279.4194
 97  3 13 18  6 59.9990000  0  6 19 18 10 27  2 31
  20681220.034    -3972013.39949  -3085782.54149  20681220.2494   20681226.0624
  21753328.829     7971642.30549   6220162.88449  21753329.0144   21753335.0804
  23917897.141    -8688278.21349  -6757440.71549  23917896.1554   23917903.0554
  20829082.194   -18017850.65849 -14020875.79649  20829082.2364   20829087.5724
  22072340.539   -17985817.90049 -13740554.92749  22072339.9674   22072346.6324
  21953437.582    -8980585.96549  -6974748.57849  21953437.1224   21953443.4594
 97  3 13 18  7 29.9990000  0  6 19 18 10 27  2 31
  20685947.363    -3947171.20049  -3066425.00149  20685947.4674   20685953.4194
  21771367.486     8066435.44149   6294027.62149  21771367.5564   21771373.2864
  23923718.055    -8657687.36849  -6733603.75949  23923717.6154   23923727.0464
  20821451.348   -18057951.12749 -14052122.91749  20821451.3494   20821456.6994
  22064120.039   -18029016.72349 -13774216.33149  22064119.6884   22064126.2224
  21963710.197    -8926602.85249  -6932683.84249  21963710.3504   21963716.1274
 97  3 13 18  7 59.9990000  0  6 19 18 10 27  2 31
  20690724.814    -3922065.80649  -3046862.37649  20690724.8094   20690730.6334
  21789463.318     8161529.32249   6368126.70849  21789463.4184   21789469.3374
  23929624.058    -8626651.40149  -6709419.90749  23929622.2974   23929629.6654
  20813854.507   -18097872.93749 -14083230.82049  20813854.4584   20813859.7994
  22055945.120   -18071975.92949 -13807691.02049  22055944.8274   22055950.9384
  21974085.123    -8872083.18049  -6890201.00449  21974085.3274   21974091.2314
 97  3 13 18  8 29.9990000  0  6 19 18 10 27  2 31
  20695560.120    -3896656.28849  -3027062.76649  20695560.2524   20695566.0014
  21807628.428     8256987.37649   6442509.56549  21807628.4134   21807634.1084
  23935623.664    -8595121.94249  -6684851.53149  23935624.4424   23935631.7064
  20806305.105   -18137545.40249 -14114144.43049  20806305.2654   20806310.2754
  22047825.841   -18114642.95749 -13840938.02949  22047825.6084   22047831.8944
  21984571.135    -8816979.02049  -6847262.71549  21984570.8384   21984577.2794
 97  3 13 18  8 59.9990000  0  7 19 18 10  7 27  2 31
  20700442.542    -3870998.87949  -3007069.99649  20700442.6124   20700448.5604
  21825855.953     8352773.47349   6517148.04349  21825856.1544   21825861.8974
  23941708.698    -8563146.77249  -6659935.86349  23941709.1804   23941715.9664
  24465415.112    -4433203.30949  -3173752.16449  24465415.0664   24465424.1814
  20798794.009   -18177016.64249 -14144901.23949  20798793.9954   20798799.2864
  22039756.233   -18157049.12649 -13873981.76649  22039755.8554   22039762.7844
  21995159.922    -8761334.71549  -6803903.54249  21995160.0484   21995165.6774
 97  3 13 18  9 29.9990000  0  7 19 18 10  7 27  2 31
  20705375.269    -3845077.35849  -2986871.42349  20705375.3374   20705381.0794
  21844150.017     8448909.20149   6592058.95649  21844150.3294   21844155.7334
  23947879.978    -8530715.15249  -6634664.52649  23947878.8484   23947886.7084
  24445855.870    -4535987.46149  -3253843.60349  24445856.2164   24445865.0974
  20791326.816   -18216256.75349 -14175477.95249  20791326.7644   20791332.0444
  22031741.753   -18199165.50149 -13906799.67849  22031741.1734   22031747.8044
  22005856.031    -8705126.69049  -6760105.09649  22005856.3134   22005861.8734
 97  3 13 18  9 59.9990000  0  7 19 18 10  7 27  2 31
  20710362.546    -3818869.09649  -2966449.41849  20710362.3844   20710368.4554
  21862513.362     8545409.25349   6667253.75549  21862513.6974   21862519.3604
  23954139.080    -8497824.45749  -6609035.42249  23954138.9354   23954145.5934
  24426304.210    -4638731.63049  -3333903.90049  24426303.2124   24426313.2084
  20783908.067   -18255242.62649 -14205856.55349  20783907.9504   20783913.2724
  22023783.640   -18240985.64549 -13939386.76949  22023783.2124   22023789.6734
  22016664.034    -8648330.45649  -6715848.31149  22016663.7114   22016669.8394
 97  3 13 18 10 29.9990000  0  7 19 18 10  7 27  2 31
  20715408.159    -3792353.94449  -2945788.27449  20715408.3714   20715414.1004
  21880948.145     8642284.57549   6742740.97749  21880948.2354   21880953.7744
  23960484.438    -8464478.49949  -6583051.62049  23960484.5524   23960492.0024
  24406760.216    -4741434.73849  -3413932.18349  24406760.6714   24406769.0974
  20776539.666   -18293963.84549 -14236028.93249  20776539.5314   20776545.0524
  22015880.330   -18282517.69449 -13971749.37049  22015880.2334   22015886.5574
  22027584.498    -8590942.67349  -6671130.57149  22027584.5514   22027590.6024
 97  3 13 18 10 59.9990000  0  7 19 18 10  7 27  2 31
  20720503.970    -3765575.37549  -2924921.86549  20720504.0344   20720509.9904
  21899442.702     8739473.93349   6818472.90349  21899442.7314   21899448.8164
  23966905.977    -8430734.36749  -6556757.47949  23966904.0084   23966912.1404
  24387216.979    -4844134.86349  -3493958.12449  24387217.0514   24387226.5364
  20769210.452   -18332479.00149 -14266040.74049  20769210.2954   20769215.8364
  22008022.707   -18323809.57249 -14003924.83849  22008022.2834   22008029.1154
  22038609.400    -8533006.66749  -6625985.65149  22038609.7184   22038615.3694
 97  3 13 18 11 29.9990000  0  7 19 18 10  7 27  2 31
  20725654.578    -3738508.77149  -2903831.01449  20725654.6484   20725660.4874
  21917998.122     8836983.26749   6894454.15449  21917998.5354   21918004.2534
  23973406.632    -8396571.82549  -6530137.40549  23973407.1364   23973414.0164
  24367676.486    -4946821.09049  -3573973.23549  24367676.2794   24367686.3404
  20761923.936   -18370770.02649 -14295877.90249  20761923.8694   20761929.3294
  22000211.193   -18364859.19649 -14035911.53349  22000211.0714   22000217.3914
  22049739.807    -8474516.05549  -6580408.56849  22049739.8434   22049745.4444
 97  3 13 18 11 59.9990000  0  7 19 18 10  7 27  2 31
  20730858.601    -3711161.51649  -2882521.47949  20730858.8054   20730864.6304
  21936615.000     8934815.20649   6970686.79149  21936615.1974   21936620.9334
  23979989.017    -8361981.56949  -6503183.99149  23979988.6894   23979995.6444
  24348135.436    -5049510.23349  -3653990.63549  24348134.7274   24348144.0004
  20754675.535   -18408860.57949 -14325558.84949  20754675.5774   20754680.9574
  21992444.742   -18405672.03849 -14067713.72649  21992444.0784   21992450.5574
  22060973.559    -8415482.18449  -6534408.16349  22060973.1864   22060979.4194
 97  3 13 18 12 29.9990000  0  7 19 18 10  7 27  2 31
  20736127.618    -3683472.52549  -2860945.65549  20736128.0174   20736133.8734
  21955305.626     9033034.87549   7047221.55349  21955305.8184   21955311.3344
  23986667.291    -8326888.31449  -6475838.62649  23986663.8684   23986675.9574
  24328607.723    -5152128.78749  -3733953.01049  24328608.0754   24328615.4594
  20747474.021   -18446704.67249 -14355047.75149  20747473.9034   20747479.4494
  21984737.762   -18446172.21649 -14099272.27349  21984737.5534   21984743.9914
  22072323.479    -8355838.36849  -6487932.48049  22072323.4184   22072329.4174
 97  3 13 18 12 59.9990000  0  7 19 18 10  7 27  2 31
  20741456.993    -3655466.95949  -2839123.14449  20741457.2784   20741463.1884
  21974064.973     9131615.79549   7124037.80949  21974065.3914   21974071.0994
  23993438.106    -8291306.46349  -6448112.55949  23993438.0684   23993446.5644
  24309091.231    -5254688.66749  -3813869.67549  24309091.0764   24309099.4784
  20740313.548   -18484333.13849 -14384368.63549  20740313.4804   20740318.8784
  21977089.469   -18486364.08649 -14130590.60549  21977089.2484   21977095.5464
  22083786.617    -8295599.52349  -6440993.13649  22083787.0624   22083792.7164
 97  3 13 18 13 29.9990000  0  7 19 18 10  7 27  2 31
  20746831.854    -3627221.82149  -2817113.95749  20746831.8974   20746837.5424
  21992881.680     9230498.15449   7201088.95349  21992881.6254   21992887.8264
  24000287.952    -8255311.89549  -6420064.88949  24000287.3674   24000294.3054
  24289570.683    -5357269.35849  -3893802.53049  24289569.8214   24289579.6264
  20733180.566   -18521817.04049 -14413576.87249  20733180.5184   20733186.0254
  21969486.317   -18526319.16649 -14161724.41049  21969486.1514   21969492.3514
  22095348.564    -8234841.56049  -6393649.27649  22095348.6184   22095354.2034
 97  3 13 18 13 59.9990000  0  7 19 18 10  7 27  2 31
  20752254.354    -3598726.40249  -2794909.73649  20752254.4234   20752260.0554
  22011757.454     9329691.02049   7278382.04849  22011757.6674   22011763.4564
  24007215.994    -8218904.43649  -6391695.46249  24007214.3714   24007223.2164
  24270048.324    -5459858.98449  -3973742.32349  24270048.2654   24270057.1534
  20726077.339   -18559144.70749 -14442663.36649  20726077.3854   20726082.8494
  21961931.945   -18566017.65249 -14192658.27549  21961931.8614   21961938.0134
  22107011.541    -8173552.28849  -6345891.41949  22107011.3554   22107017.5294
 97  3 13 18 14 29.9990000  0  7 19 18 10  7 27  2 31
  20757726.578    -3569969.80549  -2772502.01049  20757726.9554   20757732.6124
  22030689.276     9429178.35949   7355904.59949  22030689.2314   22030695.0794
  24014220.183    -8182095.72449  -6363013.41449  24014220.7014   24014228.3354
  24250528.268    -5562437.20249  -4053673.23749  24250527.6394   24250536.3764
  20719010.980   -18596278.76949 -14471599.00049  20719011.1274   20719016.4594
  21954427.173   -18605455.31249 -14223388.88749  21954427.0364   21954433.3764
  22118775.233    -8111734.05549  -6297721.37849  22118775.3304   22118781.1434
 97  3 13 18 14 59.9990000  0  7 19 18 10  7 27  2 31
  20763250.427    -3540941.97349  -2749882.92649  20763250.4514   20763256.4404
  22049678.989     9528969.81749   7433664.13649  22049679.2854   22049685.0624
  24021302.297    -8144880.28349  -6334014.39949  24021303.4484   24021310.9514
  24231013.155    -5664988.85549  -4133583.44049  24231012.9794   24231022.1424
  20711989.098   -18633179.14049 -14500352.54349  20711989.1784   20711994.5904
  21946972.743   -18644628.83049 -14253913.68249  21946972.3074   21946978.6114
  22130639.154    -8049389.30349  -6249141.05949  22130638.7184   22130644.7734
 97  3 13 18 15 29.9990000  0  7 19 18 10  7 27  2 31
  20768829.106    -3511626.08449  -2727039.38349  20768829.0794   20768835.1244
  22068729.746     9629081.68849   7511673.34049  22068730.1064   22068735.8054
  24028464.516    -8107244.28549  -6304687.69749  24028461.5624   24028472.0954
  24211506.681    -5767495.12049  -4213458.27249  24211506.9534   24211515.2854
  20705017.541   -18669815.09949 -14528900.04949  20705017.6854   20705023.0864
  21939569.808   -18683531.30249 -14284227.26549  21939569.3524   21939575.7554
  22142605.201    -7986507.99449  -6200142.64549  22142604.9344   22142610.9064
 97  3 13 18 15 59.9990000  0  7 19 18 10  7 27  2 31
  20774465.114    -3482008.57549  -2703960.81649  20774465.3274   20774471.1264
  22087842.610     9729520.03249   7589936.94049  22087842.2954   22087848.4754
  24035709.775    -8069168.91649  -6275018.60149  24035709.1954   24035717.8394
  24192015.096    -5869923.82449  -4293272.68649  24192015.2864   24192022.9894
  20698099.757   -18706168.31049 -14557227.22649  20698099.9144   20698105.1894
  21932222.391   -18722142.13349 -14314313.59649  21932222.0394   21932228.4984
  22154675.035    -7923080.22549  -6150718.42949  22154674.6084   22154680.9214
 97  3 13 18 16 29.9990000  0  7 19 18 10  7 27  2 31
  20780152.774    -3452119.82249  -2680670.88849  20780152.8404   20780158.8364
  22107016.092     9830277.36449   7668449.10049  22107016.1814   22107021.9774
  24043034.005    -8030678.91849  -6245026.47449  24043035.1934   24043039.8634
  24172537.214    -5972280.47049  -4373030.97549  24172537.2314   24172544.1034
  20691229.347   -18742272.64449 -14585360.47549  20691229.4504   20691234.7304
  21924925.996   -18760485.13849 -14344191.22749  21924925.5704   21924931.9094
  22166847.357    -7859114.17749  -6100874.76649  22166846.9614   22166852.2604
 97  3 13 18 16 59.9990000  0  7 19 18 10  7 27  2 31
  20785895.386    -3421942.17549  -2657155.85149  20785895.4244   20785901.3244
  22126256.876     9931388.07249   7747236.61749  22126256.6514   22126262.3554
  24050441.168    -7991755.11249  -6214696.26149  24050438.7784   24050450.3924
  24153075.520    -6074552.41249  -4452723.24649  24153074.7944   24153083.3124
  20684404.027   -18778140.06249 -14613309.11649  20684403.9554   20684409.4834
  21917684.730   -18798537.99549 -14373842.78249  21917684.0834   21917690.5574
  22179126.423    -7794587.44149  -6050594.20149  22179126.7004   22179131.4964
 97  3 13 18 17 29.9990000  0  7 19 18 10  7 27  2 31
  20791688.218    -3391500.77549  -2633435.28949  20791688.1644   20791694.1654
  22145558.197    10032817.04549   7826272.13949  22145558.2794   22145564.4324
  24057922.844    -7952438.98449  -6184060.34849  24057923.5164   24057929.7334
  24133623.290    -6176774.25949  -4532376.49549  24133623.0904   24133631.6914
  20677615.114   -18813816.04549 -14641108.58049  20677615.1254   20677620.5314
  21910492.135   -18836334.90549 -14403294.90849  21910491.5224   21910498.4484
  22191506.571    -7729528.80949  -5999899.17949  22191506.6004   22191511.9584
 97  3 13 18 17 59.9990000  0  7 19 18 10  7 27  2 31
  20797532.280    -3360790.02749  -2609504.85349  20797532.5884   20797538.4024
  22164917.546    10134551.17449   7905545.43949  22164917.6774   22164923.9844
  24065477.862    -7912737.84149  -6153124.47649  24065479.0954   24065486.6214
  24114177.274    -6278963.30149  -4612004.17349  24114175.3144   24114184.3114
  20670860.606   -18849311.23149 -14668767.16049  20670860.5314   20670866.0354
  21903347.009   -18873882.53049 -14432552.78049  21903346.5394   21903352.9964
  22203987.493    -7663940.03149  -5948791.05549  22203987.3794   22203993.2324
 97  3 13 18 18 29.9990000  0  7 19 18 10  7 27  2 31
  20803423.276    -3329832.69449  -2585382.27349  20803423.3304   20803429.2044
  22184325.809    10236541.78649   7985018.59849  22184325.6714   22184331.9534
  24073097.778    -7872695.50349  -6121922.67049  24073095.8034   24073105.1064
  24094727.239    -6381173.50249  -4691648.33649  24094726.8484   24094736.2574
  20664134.277   -18884658.32749 -14696310.35249  20664134.2684   20664139.7564
  21896239.227   -18911234.06549 -14461657.85549  21896238.9994   21896245.3254
  22216561.418    -7597863.48649  -5897302.86149  22216561.6944   22216567.9354
 97  3 13 18 18 59.9990000  0  7 19 18 10  7 27  2 31
  20809390.306    -3298475.71149  -2560948.27349  20809390.4594   20809396.2314
  22203805.455    10338908.04449   8064784.45449  22203806.1254   22203811.5234
  24080808.581    -7832174.14549  -6090347.66149  24080809.8824   24080816.2234
  24075297.394    -6483277.13549  -4771209.48849  24075295.9794   24075304.5294
  20657464.305   -18919709.12849 -14723622.66949  20657464.3354   20657469.6974
  21889191.679   -18948269.23049 -14490516.39749  21889191.3284   21889197.4424
  22229249.096    -7531190.24549  -5845349.70549  22229249.0614   22229254.7344
 97  3 13 18 19 29.9990000  0  7 19 18 10  7 27  2 31
  20815410.532    -3266839.05449  -2536296.34849  20815410.8914   20815416.6984
  22223330.809    10441514.39649   8144737.41449  22223331.1284   22223337.0294
  24088587.941    -7791293.96549  -6058493.00949  24088588.8974   24088596.0764
  24055864.911    -6585395.38949  -4850782.01949  24055864.9314   24055871.9024
  20650832.340   -18954560.18249 -14750779.33849  20650832.3264   20650837.9194
  21882180.577   -18985112.42249 -14519225.35349  21882180.3524   21882186.7064
  22242027.393    -7464040.66949  -5793025.37049  22242026.8454   22242032.0794
 97  3 13 18 19 59.9990000  0  7 19 18 10  7 27  2 31
  20821490.486    -3234889.30649  -2511400.45649  20821490.6824   20821496.4584
  22242909.509    10544400.98649   8224908.73749  22242910.1244   22242915.6344
  24096443.505    -7750013.37349  -6026326.37749  24096441.3314   24096451.6974
  24036438.264    -6687483.23649  -4930330.87849  24036438.2904   24036445.2494
  20644248.351   -18989159.31349 -14777739.70549  20644248.2544   20644253.5564
  21875215.232   -19021715.52349 -14547747.25049  21875214.7344   21875221.2654
  22254902.054    -7396382.85549  -5740305.02449  22254901.3724   22254907.3344
 97  3 13 18 20 29.9990000  0  7 19 18 10  7 27  2 31
  20827622.826    -3202663.36049  -2486289.34849  20827622.9374   20827628.7374
  22262536.157    10647539.25549   8305276.16649  22262536.4274   22262542.4144
  24104368.346    -7708367.70349  -5993875.21749  24104368.0834   24104375.7874
  24017013.818    -6789558.90749  -5009870.25349  24017013.8074   24017021.7194
  20637708.056   -19023528.97049 -14804521.26349  20637707.9824   20637713.3884
  21868289.477   -19058110.70149 -14576107.12749  21868289.2284   21868295.5274
  22267864.894    -7328262.27849  -5687224.08649  22267865.2384   22267870.5814
 97  3 13 18 20 59.9990000  0  7 19 18 10  7 27  2 31
  20833812.907    -3170134.39649  -2460942.11549  20833813.0514   20833818.7374
  22282218.834    10750972.39649   8385873.36149  22282219.1814   22282225.0394
  24112371.111    -7666313.31049  -5961105.63749  24112371.5834   24112377.8314
  23997600.144    -6891577.71049  -5089365.29949  23997599.3984   23997607.6614
  20631218.113   -19057633.74049 -14831096.41349  20631218.1654   20631223.5044
  21861413.996   -19094241.47049 -14604260.96949  21861413.6384   21861420.2794
  22280924.392    -7259634.75649  -5633748.11949  22280924.6174   22280929.6474
 97  3 13 18 21 29.9990000  0  7 19 18 10  7 27  2 31
  20840053.723    -3137339.10449  -2435387.35849  20840053.7714   20840059.5864
  22301953.690    10854679.35449   8466683.92849  22301953.7394   22301959.5954
  24120447.773    -7623870.21349  -5928033.10949  24120446.2834   24120455.4794
  23978194.549    -6993554.02649  -5168827.24149  23978193.1124   23978201.1934
  20624774.259   -19091496.40249 -14857482.90949  20624774.0364   20624779.6694
  21854587.051   -19130116.94449 -14632215.88249  21854586.8844   21854593.7224
  22294079.186    -7190506.41749  -5579881.91449  22294078.8504   22294084.7274
 97  3 13 18 21 59.9990000  0  7 19 18 10  7 27  2 31
  20846353.388    -3104234.09249  -2409591.26149  20846353.4004   20846359.3534
  22321749.374    10958706.18849   8547743.74749  22321749.5444   22321755.7934
  24128605.502    -7581000.82549  -5894628.44549  24128606.5434   24128612.1324
  23958806.776    -7095436.63049  -5248216.18149  23958805.9544   23958814.6454
  20618381.168   -19125092.34749 -14883661.56949  20618381.2024   20618386.6864
  21847814.778   -19165705.53449 -14659947.24849  21847814.5134   21847821.1724
  22307336.017    -7120840.98949  -5525597.19949  22307335.7334   22307341.2774
 97  3 13 18 22 29.9990000  0  7 19 18 10  7 27  2 31
  20852709.230    -3070834.05349  -2383565.27049  20852709.3004   20852714.9594
  22341601.329    11063028.47249   8629033.79049  22341601.5014   22341607.3434
  24136843.793    -7537709.62449  -5860895.06549  24136842.7114   24136850.6714
  23939435.151    -7197234.39349  -5327539.00949  23939435.0444   23939443.6614
  20612033.342   -19158450.33249 -14909654.80749  20612033.4264   20612038.7884
  21841093.584   -19201025.82349 -14687469.54149  21841093.3464   21841100.1414
  22320695.332    -7050637.34649  -5470893.08949  22320696.1044   22320700.8284
 97  3 13 18 22 59.9990000  0  7 19 18 10  7 27  2 31
  20859108.409    -3037206.23549  -2357361.79149  20859108.4904   20859114.4864
  22361496.591    11167578.73949   8710501.47749  22361496.8084   22361503.1314
  24145148.645    -7494067.10649  -5826887.97449  24145146.8734   24145155.3604
  23920068.613    -7299005.97549  -5406841.45849  23920068.4814   23920075.8264
  20605717.856   -19191638.43649 -14935515.67649  20605717.8484   20605723.2204
  21834412.589   -19236134.67049 -14714827.07949  21834412.5314   21834418.7774
  22334147.040    -6979949.29849  -5415811.52149  22334147.5214   22334152.3674
 97  3 13 18 23 29.9990000  0  7 19 18 10  7 27  2 31
  20865569.066    -3003254.94249  -2330906.25649  20865569.2274   20865575.1014
  22381449.637    11272432.15749   8792205.38649  22381449.7954   22381456.0524
  24153535.557    -7449993.14649  -5792544.66749  24153535.0064   24153543.1394
  23900725.268    -7400654.58249  -5486048.05049  23900724.6734   23900732.2634
  20599452.715   -19224562.14449 -14961170.52249  20599452.9054   20599457.9294
  21827786.962   -19270952.62249 -14741957.93849  21827786.6984   21827793.3044
  22347706.007    -6908696.68149  -5360290.02449  22347705.3364   22347711.9744
 97  3 13 18 23 59.9990000  0  7 19 18 10  7 27  2 31
  20872092.155    -2968975.71749  -2304195.18849  20872092.2614   20872098.1044
  22401457.707    11377575.14849   8874134.94249  22401458.0634   22401464.2464
  24162001.826    -7405503.55049  -5757877.47649  24162001.9244   24162010.4004
  23881405.800    -7502178.37449  -5565157.37949  23881405.8974   23881413.2704
  20593238.934   -19257216.01249 -14986615.10449  20593239.0474   20593244.3814
  21821216.567   -19305480.21849 -14768862.54549  21821216.1464   21821222.8334
  22361368.568    -6836898.85449  -5304343.71249  22361367.5974   22361374.8434
 97  3 13 18 24 29.9990000  0  7 19 18 10  7 27  2 31
  20878658.795    -2934468.07949  -2277306.13649  20878658.7354   20878665.1074
  22421501.121    11482903.73949   8956209.11749  22421501.3784   22421507.5834
  24170526.491    -7360705.92749  -5722970.29149  24170526.1634   24170533.8684
  23862091.383    -7603675.86749  -5644246.22949  23862090.9284   23862097.8084
  20587059.221   -19289690.73749 -15011920.09249  20587059.2454   20587064.4624
  21814685.130   -19339803.24849 -14795607.73649  21814684.8084   21814691.2884
  22375114.652    -6764662.90749  -5248055.98849  22375114.2514   22375120.2294
 97  3 13 18 24 59.9990000  0  7 19 18 10  7 27  2 31
  20885285.348    -2899645.40749  -2250171.60049  20885285.4384   20885291.6254
  22441597.520    11588510.88649   9038500.34549  22441597.7554   22441604.1634
  24179121.228    -7315540.28149  -5687776.34449  24179120.8534   24179129.7054
  23842798.169    -7705063.33449  -5723249.37849  23842797.9044   23842805.8284
  20580930.531   -19321897.12249 -15037015.98349  20580930.4684   20580936.0504
  21808208.261   -19373839.30949 -14822129.31749  21808207.8224   21808214.5444
  22388954.911    -6691931.34449  -5191382.06349  22388954.7394   22388961.0244
 97  3 13 18 25 30.0000000  0  7 19 18 10  7 27  2 31
  20891966.893    -2864533.65449  -2222811.81249  20891967.0624   20891972.9304
  22461741.824    11694369.07349   9120987.19549  22461742.0104   22461747.2684
  24187781.051    -7270033.09649  -5652316.23349  24187781.1384   24187788.5534
  23823520.856    -7806366.04649  -5802186.47249  23823521.0704   23823528.0994
  20574848.537   -19353858.38049 -15061920.85949  20574848.5494   20574853.7494
  21801778.671   -19407626.89949 -14848457.28849  21801778.3834   21801784.5594
  22402883.471    -6618736.95749  -5134347.48649  22402883.5464   22402889.0624
 97  3 13 18 26  0.0000000  0  7 19 18 10  7 27  2 31
  20898702.005    -2829140.39049  -2195232.65749  20898701.8404   20898707.6574
  22481934.567    11800482.77549   9203673.14349  22481935.1604   22481940.6814
  24196505.453    -7224187.25849  -5616592.20349  24196504.2894   24196512.5874
  23804261.544    -7907573.86549  -5881049.62949  23804261.8324   23804269.0354
  20568812.537   -19385577.90149 -15086637.37049  20568812.5274   20568817.8764
  21795396.383   -19441166.21849 -14874591.81549  21795395.8314   21795402.3674
  22416899.926    -6545081.39949  -5076953.56049  22416900.0734   22416904.6804
 97  3 13 18 26 30.0000000  0  7 19 18 10  7 27  2 31
  20905497.515    -2793429.61749  -2167406.10149  20905497.3854   20905503.5334
  22502183.718    11906892.74749   9286589.94549  22502183.4434   22502189.7214
  24205301.852    -7177960.18149  -5580571.19649  24205301.9984   24205310.9684
  23785023.861    -8008668.34749  -5959824.47149  23785023.6714   23785030.9834
  20562827.398   -19417029.97549 -15111145.48849  20562827.2614   20562832.8184
  21789066.740   -19474428.60049 -14900510.53149  21789066.1034   21789072.8814
  22431010.993    -6470927.73149  -5019171.47149  22431010.9444   22431015.3464
 97  3 13 18 27  0.0000000  0  7 19 18 10  7 27  2 31
  20912353.905    -2757398.71249  -2139330.08949  20912354.0894   20912359.7634
  22522488.666    12013595.95649   9369735.25049  22522488.8054   22522494.6714
  24214172.525    -7131345.72449  -5544248.25349  24214172.1074   24214178.7674
  23765808.676    -8109644.47049  -6038507.08549  23765808.4734   23765816.5234
  20556895.196   -19448203.92449 -15135436.88649  20556895.1184   20556900.3834
  21782788.285   -19507421.88649 -14926219.56749  21782787.8804   21782794.4174
  22445217.989    -6396268.70749  -4960995.62449  22445216.5504   22445223.2114
 97  3 13 18 27 30.0000000  0  7 19 18 10  7 27  2 31
  20919269.358    -2721057.68149  -2111012.41949  20919269.4914   20919275.3954
  22542843.080    12120559.41049   9453083.34249  22542843.4844   22542849.0544
  24223116.010    -7084348.56649  -5507627.12849  24223114.0474   24223123.9044
  23746611.275    -8210527.00349  -6117116.78649  23746610.8734   23746619.1284
  20551015.180   -19479103.44449 -15159514.44349  20551015.1384   20551020.8834
  21776555.910   -19540173.19849 -14951740.07349  21776555.3144   21776561.7794
  22459519.580    -6321111.84749  -4902431.86849  22459518.0294   22459525.2324
 97  3 13 18 28  0.0000000  0  7 19 18 10  7 27  2 31
  20926249.187    -2684378.66949  -2082431.39149  20926249.2294   20926255.4204
  22563253.063    12227814.19549   9536658.44049  22563253.0254   22563259.5244
  24232137.821    -7036937.17449  -5470683.21749  24232138.9394   24232145.3124
  23727434.553    -8311301.45349  -6195642.27049  23727434.1694   23727443.0404
  20545192.430   -19509702.50849 -15183357.87849  20545192.6894   20545197.8084
  21770376.615   -19572645.41849 -14977043.10049  21770376.3824   21770382.7944
  22473920.620    -6245432.51349  -4843461.00449  22473920.6584   22473926.7534
 97  3 13 18 28 30.0000000  0  7 19 18 10  7 27  2 31
  20933286.909    -2647395.61249  -2053613.44449  20933287.0374   20933293.3094
  22583710.961    12335320.80549   9620429.76149  22583710.7124   22583717.2654
  24241232.167    -6989147.75949  -5433444.76449  24241233.0244   24241239.8514
  23708271.951    -8412001.05649  -6274109.42249  23708271.4954   23708278.7274
  20539421.188   -19540030.47749 -15206990.06249  20539421.2054   20539426.6124
  21764243.986   -19604872.94849 -15002155.45849  21764243.6784   21764250.1934
  22488413.425    -6169272.80849  -4784115.80049  22488413.6754   22488420.0434
 97  3 13 18 29  0.0000000  0  7 19 18 10  7 27  2 31
  20940380.067    -2610120.86949  -2024568.21149  20940380.2164   20940386.1094
  22604216.091    12443076.21449   9704394.96149  22604215.9774   22604222.3494
  24250398.115    -6940980.42349  -5395911.80649  24250396.1804   24250404.9194
  23689124.569    -8512621.28549  -6352514.72849  23689124.0214   23689131.8064
  20533702.773   -19570080.93949 -15230406.01149  20533702.9034   20533708.1034
  21758157.464   -19636857.76449 -15027078.69449  21758157.1114   21758163.2794
  22502998.996    -6092625.06149  -4724390.30649  22502999.6874   22503004.8004
 97  3 13 18 29 30.0000000  0  7 19 18 10  7 27  2 31
  20947522.060    -2572589.47049  -1995322.98349  20947522.2024   20947528.1474
  22624763.673    12551054.11049   9788533.52249  22624764.0524   22624770.3044
  24259630.413    -6892464.68849  -5358107.35549  24259630.1484   24259638.1904
  23669988.028    -8613183.98549  -6430875.21849  23669988.7184   23669995.9434
  20528030.334   -19599889.72949 -15253633.64149  20528030.2904   20528035.6224
  21752113.392   -19668619.63949 -15051828.18949  21752113.0264   21752119.5994
  22517671.797    -6015520.25149  -4664308.66849  22517671.5304   22517676.8394
 97  3 13 18 30  0.0000000  0  7 19 18 10  7 27  2 31
  20954710.976    -2534811.69549  -1965885.77949  20954710.9554   20954717.2654
  22645355.185    12659263.24549   9872852.26849  22645355.7464   22645362.1254
  24268928.958    -6843601.07949  -5320031.87049  24268927.7014   24268937.6734
  23650866.024    -8713669.78449  -6509175.77949  23650866.5764   23650873.6134
  20522402.428   -19629464.70949 -15276679.08449  20522402.5564   20522407.8384
  21746113.882   -19700147.31749 -15076395.19849  21746113.6094   21746119.9254
  22532432.502    -5937953.40549  -4603866.98749  22532432.7114   22532438.0354
 97  3 13 18 30 30.0000000  0  7 19 18 10  7 27  2 31
  20961951.415    -2496763.11849  -1936237.55849  20961951.8134   20961957.7964
  22665992.507    12767712.93449   9957358.46049  22665992.6204   22665998.8704
  24278295.254    -6794380.95149  -5281678.56549  24278294.4464   24278302.8504
  23631764.326    -8814050.03549  -6587394.11849  23631763.9804   23631771.4814
  20516821.786   -19658791.20149 -15299530.90249  20516821.7404   20516827.1564
  21740160.738   -19731431.15549 -15100772.20449  21740160.3904   21740166.8644
  22547284.116    -5859907.98649  -4543052.42349  22547283.3214   22547290.0114
 97  3 13 18 31  0.0000000  0  7 19 18 10  7 27  2 31
  20969238.644    -2458468.43849  -1906397.56949  20969238.5984   20969244.8034
  22686668.657    12876366.46549  10042023.49149  22686669.0364   22686675.3774
  24287721.656    -6744845.10049  -5243079.25949  24287721.0014   24287729.3904
  23612678.567    -8914346.46849  -6665547.14349  23612678.3534   23612685.6604
  20511284.282   -19687890.91349 -15322206.00449  20511284.3334   20511289.6594
  21734248.965   -19762497.59549 -15124979.81649  21734248.6934   21734255.1224
  22562220.829    -5781412.59349  -4481887.23449  22562220.4504   22562226.3704
 97  3 13 18 31 30.0000000  0  7 19 18 10  7 27  2 31
  20976579.016    -2419894.55349  -1876340.02849  20976578.9874   20976585.0864
  22707386.856    12985241.08149  10126860.79549  22707386.9134   22707392.9064
  24297209.398    -6694987.19649  -5204228.96449  24297209.3724   24297215.3944
  23593615.307    -9014524.47549  -6743607.89549  23593615.1204   23593622.2994
  20505792.985   -19716747.90249 -15344691.97449  20505793.0054   20505798.4404
  21728380.381   -19793337.25049 -15149010.70449  21728380.1054   21728386.2434
  22577244.375    -5702462.95349  -4420368.08149  22577245.1184   22577251.0384
 97  3 13 18 32  0.0000000  0  7 19 18 10  7 27  2 31
  20983986.001    -2380970.53649  -1846009.64749  20983985.8994   20983992.3744
  22728157.608    13094391.75549  10211913.20949  22728157.7044   22728164.1074
  24306767.252    -6644759.71349  -5165090.72549  24306767.0554   24306775.1144
  23574585.414    -9114526.46649  -6821531.46549  23574585.2544   23574593.0454
  20500358.398   -19745306.77249 -15366945.64749  20500358.4574   20500363.8774
  21722565.692   -19823893.32849 -15172820.61849  21722565.3914   21722571.7534
  22592363.610    -5623011.92249  -4358458.22149  22592363.9224   22592370.2864
 97  3 13 18 32 30.0000000  0  7 19 18 10  7 27  2 31
  20991458.730    -2341701.04949  -1815410.07649  20991458.8254   20991464.8564
  22748976.110    13203793.38549  10297161.16449  22748976.3414   22748982.7724
  24316392.480    -6594178.99049  -5125677.20549  24316390.4534   24316400.0584
  23555586.898    -9214364.15249  -6899327.03849  23555585.8774   23555593.8224
  20494978.092   -19773580.48649 -15388977.12049  20494978.0524   20494983.5804
  21716801.591   -19854183.85049 -15196423.60749  21716801.1914   21716807.5874
  22607572.235    -5543090.89949  -4296182.14349  22607572.9034   22607579.0854
 97  3 13 18 33  0.0000000  0  7 19 18 10  7 27  2 31
  20998993.562    -2302105.16949  -1784556.16549  20998993.8094   20998999.6474
  22769836.945    13313417.40949  10382582.42149  22769837.7894   22769843.2894
  24326080.713    -6543266.88449  -5086005.47449  24326080.7954   24326088.9574
  23536616.500    -9314053.85549  -6977007.29449  23536616.1504   23536623.8714
  20489650.407   -19801577.61049 -15410793.06849  20489650.2604   20489655.8304
  21711082.950   -19884235.50749 -15219840.47349  21711082.7104   21711088.8994
  22622864.834    -5462728.55249  -4233562.17249  22622865.5264   22622870.2814
 97  3 13 18 33 30.0000000  0  7 19 18 10  7 27  2 31
  21006591.385    -2262178.70449  -1753444.65849  21006591.2694   21006598.0104
  22790740.154    13423264.38549  10468177.40749  22790740.1594   22790746.6094
  24335832.733    -6492020.19249  -5046073.01949  24335832.9834   24335840.0684
  23517671.518    -9413610.39649  -7054583.78949  23517671.8454   23517679.0734
  20484373.850   -19829306.03849 -15432399.64449  20484373.6734   20484379.1754
  21705408.659   -19914054.02549 -15243075.67449  21705408.2994   21705414.6984
  22638241.356    -5381925.33449  -4170598.65249  22638240.0534   22638246.5104
 97  3 13 18 34  0.0000000  0  7 19 18 10  7 27  2 31
  21014250.254    -2221931.18149  -1722082.98149  21014250.3374   21014256.6464
  22811681.958    13533313.80349  10553930.13449  22811682.4014   22811688.6124
  24345647.968    -6440440.76549  -5005881.29549  24345647.5294   24345655.4454
  23498746.890    -9513059.43949  -7132076.50949  23498746.3664   23498754.5484
  20479147.914   -19856768.27349 -15453798.79849  20479147.9614   20479153.2214
  21699776.977   -19943648.73149 -15266136.49449  21699776.9374   21699783.1204
  22653699.394    -5300691.49749  -4107299.60249  22653698.3714   22653704.8914
 97  3 13 18 34 30.0000000  0  7 19 18 10  7 27  2 31
  21021961.405    -2181409.07849  -1690507.33349  21021961.4794   21021967.7864
  22832656.022    13643533.21249  10639815.32549  22832656.3914   22832662.5434
  24355518.826    -6388568.37749  -4965461.34549  24355519.6654   24355526.1334
  23479834.188    -9612445.45549  -7209520.12749  23479833.9594   23479841.7734
  20473970.059   -19883978.21849 -15475001.35349  20473970.0354   20473975.3014
  21694179.779   -19973062.24449 -15289056.11449  21694179.6024   21694186.0134
  22669233.398    -5219058.61849  -4043689.60749  22669233.7064   22669239.6704
 97  3 13 18 35  0.0000000  0  7 19 18 10  7 27  2 31
  21029732.857    -2140569.84549  -1658684.57649  21029732.9694   21029739.1614
  22853673.341    13753979.41349  10725877.22849  22853673.4914   22853680.1944
  24365453.371    -6336364.28449  -4924782.80949  24365452.3284   24365460.9444
  23460940.504    -9711732.37449  -7286886.53049  23460940.3194   23460947.7504
  20468851.177   -19910878.01649 -15495962.24249  20468851.0794   20468856.5684
  21688628.440   -20002234.67749 -15311787.87749  21688628.0754   21688634.4664
  22684855.342    -5136966.47149  -3979721.72449  22684856.3714   22684860.8504
 97  3 13 18 35 30.0000000  0  7 19 18 10  7 27  2 31
  21037561.989    -2099427.42249  -1626625.56849  21037561.9894   21037568.7134
  22874732.520    13864645.65549  10812110.60349  22874732.4424   22874739.4064
  24375449.496    -6283832.64149  -4883849.15749  24375449.8074   24375456.2934
  23442066.872    -9810914.00249  -7364170.89449  23442066.2854   23442074.2414
  20463790.864   -19937470.11449 -15516683.36549  20463790.9724   20463796.3244
  21683124.564   -20031157.80249 -15334325.36049  21683124.3654   21683130.6184
  22700564.376    -5054415.56249  -3915396.36849  22700564.3864   22700570.3794
 97  3 13 18 36  0.0000000  0  7 19 18 10  7 27  2 31
  21045448.153    -2057985.18449  -1594332.94449  21045448.3894   21045454.5754
  22895833.669    13975532.80249  10898516.10149  22895834.6834   22895840.3814
  24385508.489    -6230972.17349  -4842659.18749  24385508.4144   24385517.0384
  23423217.796    -9909966.56849  -7441354.67949  23423217.5844   23423225.5324
  20458790.994   -19963744.68149 -15537157.06049  20458791.0344   20458796.5664
  21677672.675   -20059807.69849 -15356649.94049  21677672.3104   21677678.8354
  22716359.078    -4971414.03049  -3850719.87449  22716359.0424   22716365.0374
 97  3 13 18 36 30.0000000  0  7 19 18 10  7 27  2 31
  21053389.364    -2016253.91049  -1561815.09349  21053389.8614   21053396.1504
  22916977.450    14086643.90949  10985096.10949  22916978.0564   22916984.8074
  24395627.753    -6177795.84049  -4801223.15249  24395627.0394   24395635.6024
  23404396.424   -10008873.34649  -7518424.86949  23404395.2644   23404404.3474
  20453849.578   -19989711.99949 -15557391.33949  20453849.7944   20453855.1644
  21672274.903   -20088173.12849 -15378752.85949  21672274.5774   21672281.1614
  22732239.488    -4887961.69849  -3785692.11449  22732238.9284   22732245.7034
 97  3 13 18 37  0.0000000  0  7 19 18 10  7 27  2 31
  21061389.207    -1974214.95249  -1529057.48749  21061389.4334   21061395.7014
  22938162.125    14197969.43049  11071843.20949  22938162.2614   22938168.5514
  24405809.724    -6124288.28149  -4759529.00449  24405809.1604   24405818.2564
  23385608.551   -10107604.24549  -7595358.02449  23385607.8114   23385616.3644
  20448964.279   -20015384.54049 -15577395.92649  20448964.4364   20448969.7434
  21666931.680   -20116251.88549 -15400632.39649  21666931.3464   21666937.7944
  22748206.848    -4804051.90649  -3720307.90449  22748206.1454   22748212.5264
 97  3 13 18 37 30.0000000  0  7 19 18 10  7 27  2 31
  21069445.002    -1931881.82149  -1496070.65349  21069445.2174   21069451.3684
  22959382.718    14309484.18449  11158737.75149  22959382.7404   22959390.4574
  24416052.572    -6070461.72649  -4717586.29249  24416052.5594   24416058.9404
  23366852.867   -10206165.72749  -7672159.16249  23366852.1654   23366859.9894
  20444128.620   -20040796.42949 -15597197.40149  20444128.6644   20444134.2534
  21661635.755   -20144082.15049 -15422318.32449  21661635.3024   21661641.8584
  22764253.419    -4719725.91649  -3654599.37649  22764254.1854   22764258.3174
 97  3 13 18 38  0.0000000  0  7 19 18 10  7 27  2 31
  21077558.661    -1889244.90649  -1462847.10649  21077558.5304   21077564.7044
  22980643.569    14421210.82949  11245797.39449  22980643.7514   22980651.2044
  24426357.128    -6016312.06949  -4675391.75249  24426356.8454   24426365.9884
  23348128.690   -10304561.88649  -7748831.48649  23348128.5974   23348136.4164
  20439342.741   -20065946.45349 -15616794.82849  20439342.8074   20439348.3964
  21656386.184   -20171668.64049 -15443814.29249  21656385.7264   21656392.2064
  22780380.557    -4634978.74849  -3588562.64549  22780380.5914   22780385.8744
 97  3 13 18 38 30.0000000  0  7 19 18 10  7 27  2 31
  21085727.903    -1846315.29349  -1429395.48249  21085727.6644   21085734.2064
  23001941.979    14533134.82949  11333010.83049  23001942.2074   23001948.8694
  24436720.650    -5961850.53049  -4632954.28349  24436717.9724   24436728.1744
  23329431.134   -10402818.38949  -7825394.97149  23329431.6214   23329438.9504
  20434605.049   -20090843.06249 -15636194.78849  20434605.0974   20434610.6654
  21651174.818   -20199054.63949 -15465154.03949  21651174.4644   21651180.8994
  22796585.805    -4549819.82849  -3522205.08949  22796585.7224   22796591.8804
 97  3 13 18 39  0.0000000  0  7 19 18 10  7 27  2 31
  21093956.780    -1803072.11449  -1395699.52849  21093956.7884   21093962.9244
  23023276.950    14645250.64549  11420373.72949  23023277.3874   23023284.0804
  24447143.819    -5907076.54949  -4590273.29849  24447144.8444   24447152.1614
  23310760.088   -10500935.25349  -7901849.64849  23310759.6774   23310768.4964
  20429919.142   -20115467.71849 -15655382.84349  20429919.2814   20429924.7734
  21646000.785   -20226244.41649 -15486340.88949  21646000.4964   21646006.9994
  22812870.457    -4464243.82349  -3455522.51849  22812869.8794   22812876.2994
 97  3 13 18 39 30.0000000  0  7 19 18 10  7 27  2 31
  21102239.158    -1759547.99949  -1361784.65449  21102239.5744   21102245.4494
  23044644.546    14757537.85249  11507870.18949  23044644.3454   23044651.7134
  24457619.496    -5852027.70749  -4547378.15749  24457618.9934   24457626.8104
  23292107.183   -10598957.18049  -7978230.37549  23292107.0704   23292115.0804
  20425283.803   -20139826.89049 -15674364.02349  20425283.9504   20425289.5584
  21640860.925   -20253254.50949 -15507387.71849  21640860.8844   21640867.1984
  22829229.542    -4378275.06049  -3388533.94449  22829229.5834   22829235.9624
 97  3 13 18 40  0.0000000  0  7 19 18 10  7 27  2 31
  21110576.138    -1715736.85849  -1327646.12849  21110576.3224   21110582.2704
  23066044.863    14869997.23849  11595500.80849  23066044.2504   23066052.3274
  24468147.409    -5796703.49149  -4504268.36249  24468147.4944   24468156.9044
  23273472.759   -10696881.44749  -8054534.98049  23273472.2104   23273481.0574
  20420703.261   -20163898.01949 -15693120.75849  20420703.2714   20420708.8654
  21635759.009   -20280065.22349 -15528279.19149  21635758.5964   21635765.0684
  22845669.925    -4291880.22049  -3321213.34049  22845670.3224   22845675.6914
 97  3 13 18 40 30.0000000  0  7 19 18 10  7 27  2 31
  21118976.222    -1671594.02849  -1293249.13949  21118976.3874   21118982.6614
  23087481.331    14982646.22349  11683279.16149  23087481.3894   23087488.0604
  24478732.579    -5741077.38349  -4460923.46849  24478731.9374   24478741.4524
  23254866.077   -10794660.26649  -8130726.25749  23254866.6714   23254872.9084
  20416185.021   -20187641.57849 -15711622.24049  20416185.1294   20416190.6054
  21630703.130   -20306634.12249 -15548982.24149  21630702.8964   21630709.2674
  22862197.827    -4205026.89749  -3253535.48149  22862198.0304   22862203.6304
 97  3 13 18 41  0.0000000  0  7 19 18 10  7 27  2 31
  21127435.862    -1627138.05949  -1258608.14849  21127435.9604   21127442.3864
  23108950.864    15095469.42549  11771193.26349  23108950.8764   23108958.1734
  24489370.034    -5685177.37849  -4417365.06049  24489369.5624   24489377.9574
  23236287.818   -10892289.85749  -8206801.24549  23236288.2924   23236295.7384
  20411724.347   -20211082.57949 -15729887.96649  20411724.3374   20411729.9814
  21625694.783   -20332953.34549 -15569490.73449  21625694.4734   21625700.9434
  22878810.318    -4117727.73149  -3185510.21249  22878810.2194   22878816.0304
 97  3 13 18 41 30.0000000  0  7 19 18 10  7 27  2 31
  21135951.897    -1582386.09449  -1223736.51249  21135951.8954   21135958.7104
  23130454.185    15208469.47749  11859245.17349  23130454.6594   23130461.5594
  24500062.397    -5628988.77249  -4373581.74649  24500062.7694   24500070.1414
  23217738.988   -10989765.07349  -8282755.94649  23217738.9344   23217745.8364
  20407321.425   -20234219.96849 -15747917.10749  20407321.6154   20407327.0894
  21620735.593   -20359014.01049 -15589797.75849  21620735.3064   21620741.7164
  22895505.250    -4029995.50649  -3117147.49949  22895505.4514   22895511.7594
 97  3 13 18 42  0.0000000  0  7 19 18 10  7 27  2 31
  21144523.449    -1537342.20849  -1188637.41049  21144523.5914   21144530.0344
  23151989.892    15321640.08349  11947429.98149  23151990.4314   23151996.3964
  24510806.908    -5572526.98249  -4329585.60049  24510805.7124   24510814.2014
  23199221.067   -11087077.36849  -8358583.68949  23199221.1434   23199228.8744
  20402971.956   -20257076.80449 -15765727.64849  20402972.0464   20402977.6174
  21615823.110   -20384829.24049 -15609913.53449  21615822.7274   21615829.3884
  22912277.618    -3941855.44849  -3048467.00349  22912277.6404   22912283.9044
 97  3 13 18 42 30.0000000  0  7 19 18 10  7 27  2 31
  21153154.768    -1491984.43149  -1153293.71249  21153154.9464   21153161.1414
  23173558.656    15434984.31049  12035750.08249  23173558.8794   23173565.6214
  24521603.112    -5515791.82649  -4285376.44049  24521603.6374   24521611.2684
  23180738.621   -11184202.80249  -8434265.83149  23180739.1784   23180745.3434
  20398676.751   -20279648.27149 -15783315.81749  20398676.8904   20398682.3444
  21610959.448   -20410387.85949 -15629829.34649  21610959.1644   21610965.5714
  22929124.898    -3853321.98049  -2979479.94549  22929125.9164   22929132.1584
 97  3 13 18 43  0.0000000  0  7 19 18 10  7 27  2 31
  21161847.421    -1446304.14449  -1117698.71149  21161847.6084   21161854.3294
  23195162.044    15548510.26549  12124211.79349  23195162.3734   23195169.5064
  24532454.919    -5458767.43049  -4240941.88949  24532455.3454   24532462.4154
  23162291.804   -11281141.85149  -8509802.74349  23162291.8394   23162299.1564
  20394437.004   -20301928.57349 -15800677.10049  20394437.1954   20394442.7084
  21606144.748   -20435689.25149 -15649544.72349  21606144.3484   21606150.7154
  22946048.762    -3764388.28849  -2910181.01849  22946049.2614   22946054.9524
 97  3 13 18 43 30.0000000  0  7 19 18 10  7 27  2 31
  21170601.220    -1400302.86049  -1081853.57949  21170601.5484   21170607.8824
  23216797.145    15662203.65349  12212803.95549  23216796.8664   23216805.2934
  24543360.163    -5401458.98449  -4196286.03549  24543358.5564   24543367.2224
  23143875.423   -11377920.97749  -8585215.02549  23143874.8994   23143883.2254
  20390251.390   -20323924.37449 -15817816.68949  20390251.3434   20390257.0324
  21601374.288   -20460758.25149 -15669079.00449  21601374.0204   21601380.6144
  22963044.009    -3675077.45349  -2840588.21249  22963043.4764   22963050.8204
 97  3 13 18 44  0.0000000  0  7 19 18 10  7 27  2 31
  21179417.819    -1353971.42749  -1045751.18749  21179418.1444   21179424.4794
  23238463.324    15776059.74849  12301522.92249  23238463.7664   23238470.5204
  24554316.045    -5343886.59349  -4151424.44749  24554316.0614   24554322.9684
  23125489.749   -11474538.40949  -8660501.30549  23125489.2574   23125496.2494
  20386116.862   -20345651.42549 -15834746.86949  20386116.9654   20386122.2644
  21596646.938   -20485600.74749 -15688436.78749  21596646.8334   21596653.2804
  22980110.618    -3585391.55749  -2770703.15949  22980110.3314   22980117.0264
 97  3 13 18 44 30.0000000  0  7 19 18 10  7 27  2 31
  21188298.335    -1307304.26649  -1009387.20349  21188298.5964   21188304.8644
  23260162.345    15890087.95149  12390375.98349  23260162.2954   23260169.3704
  24565324.998    -5286034.10449  -4106344.65049  24565323.7204   24565332.8354
  23107138.705   -11570973.48949  -8735645.49049  23107138.3614   23107145.2704
  20382038.488   -20367083.58049 -15851447.26449  20382038.6184   20382044.0034
  21591964.424   -20510207.49249 -15707610.87149  21591964.1944   21591970.5624
  22997251.913    -3495312.71149  -2700511.90449  22997252.6134   22997258.5914
 97  3 13 18 45  0.0000000  0  7 19 18 10  7 27  2 31
  21197236.533    -1260333.80949   -972786.87449  21197236.6684   21197243.3604
  23281895.821    16004297.98749  12479370.73149  23281896.4984   23281902.6824
  24576388.263    -5227895.78349  -4061042.11849  24576386.4224   24576397.1644
  23088822.162   -11667227.41949  -8810648.50949  23088822.5414   23088829.4784
  20378019.167   -20388205.24049 -15867905.71249  20378019.1214   20378024.5894
  21587325.345   -20534586.16649 -15726607.23449  21587325.1464   21587331.5214
  23014465.833    -3404853.42149  -2630024.19449  23014466.7864   23014472.1584
 97  3 13 18 45 30.0000000  0  7 19 18 10  7 27  2 31
  21206227.621    -1213085.61249   -935970.12149  21206227.6844   21206234.0304
  23303661.893    16118679.34449  12568498.97649  23303661.4314   23303669.4114
  24587501.591    -5169494.97549  -4015535.05049  24587502.1264   24587509.2644
  23070540.843   -11763296.66749  -8885507.62949  23070540.2074   23070548.0964
  20374058.329   -20409019.62149 -15884124.71949  20374058.2934   20374063.7494
  21582729.554   -20558737.24549 -15745426.25049  21582729.2374   21582735.6114
  23031746.391    -3314043.86749  -2559263.54149  23031746.7344   23031752.5054
 97  3 13 18 46  0.0000000  0  7 19 18 10  7 27  2 31
  21215269.387    -1165570.94349   -898945.73849  21215269.6344   21215275.8874
  23325459.938    16233228.33349  12657757.83449  23325459.6104   23325467.1604
  24598663.655    -5110839.76249  -3969829.71249  24598663.3704   24598671.6164
  23052297.891   -11859163.68549  -8960209.14049  23052297.3874   23052304.4784
  20370159.023   -20429510.79549 -15900091.87449  20370159.0724   20370164.5324
  21578177.802   -20582656.94149 -15764064.97649  21578177.4894   21578183.8934
  23049094.070    -3222881.89949  -2488228.29649  23049093.8344   23049099.8714
 97  3 13 18 46 30.0000000  0  7 19 18 10  7 27  2 31
  21224360.986    -1117794.16049   -861717.10849  21224361.1114   21224367.9584
  23347288.917    16347940.43049  12747143.79549  23347288.9984   23347296.0094
  24609873.151    -5051932.08249  -3923927.70249  24609873.1494   24609879.9824
  23034091.955   -11954836.47749  -9034759.31549  23034091.8904   23034098.5774
  20366325.301   -20449657.27649 -15915790.44149  20366325.2964   20366330.8634
  21573668.407   -20606354.08549 -15782530.28049  21573668.0404   21573674.4154
  23066509.487    -3131363.25449  -2416915.12449  23066509.6784   23066515.8304
 97  3 13 18 47  0.0000000  0  7 19 18 10  7 27  2 31
  21233504.282    -1069745.93849   -824276.96649  21233504.8104   21233510.7994
  23369146.050    16462799.56249  12836644.33249  23369145.7574   23369153.5844
  24621130.887    -4992773.04749  -3877829.75849  24621131.0164   24621138.0964
  23015920.030   -12050330.52449  -9109170.21949  23015919.9104   23015926.6524
  20362555.756   -20469466.41549 -15931226.14349  20362555.6764   20362561.3124
  21569201.444   -20629828.18349 -15800821.78549  21569200.9234   21569207.4504
  23083994.604    -3039478.47549  -2345316.63849  23083995.4624   23084000.7334
 97  3 13 18 47 30.0000000  0  7 19 18 10  7 27  2 31
  21242709.445    -1021372.99049   -786583.79549  21242709.5784   21242715.8634
  23391032.017    16577811.43949  12926263.88949  23391032.0154   23391039.6934
  24632438.206    -4933352.87449  -3831528.40649  24632436.6994   24632445.8294
  22997785.422   -12145627.92049  -9183427.87949  22997784.5354   22997791.8914
  20358850.608   -20488936.86949 -15946397.93649  20358850.6014   20358856.0854
  21564779.693   -20653064.58249 -15818928.06949  21564779.3744   21564785.7834
  23101558.860    -2947178.47049  -2273394.59849  23101560.0634   23101565.1894
 97  3 13 18 48  0.0000000  0  8 19 18 10 26  7 27  2 31
  21251976.820     -972672.60249   -748635.47649  21251977.3024   21251983.7424
  23412944.155    16692960.00849  13015989.95549  23412944.6564   23412951.7934
  24643793.355    -4873680.92049  -3785030.80449  24643793.4374   24643802.9164
  24872666.443    -3628718.62149  -2805431.37049  24872667.9204   24872673.6744
  22979685.755   -12240741.66449  -9257542.41649  22979685.4654   22979693.0634
  20355208.857   -20508074.53749 -15961310.41249  20355208.7824   20355214.4124
  21560396.091   -20676100.63049 -15836878.23849  21560395.9284   21560402.3374
  23119203.221    -2854457.29549  -2201144.38049  23119203.2994   23119209.6164
 97  3 13 18 48 30.0000000  0  8 19 18 10 26  7 27  2 31
  21261311.602     -923618.46549   -710411.51049  21261311.8204   21261318.2184
  23434885.033    16808260.49049  13105834.38049  23434885.3864   23434893.3974
  24655201.503    -4813730.87049  -3738316.53049  24655200.4204   24655210.3214
  24856217.786    -3715155.36549  -2872784.64549  24856218.4584   24856224.6514
  22961625.281   -12335649.87049  -9331496.78749  22961624.9484   22961632.9324
  20351630.108   -20526881.08349 -15975964.87249  20351630.2204   20351635.8674
  21556052.220   -20698927.87849 -15854665.71549  21556051.9964   21556058.3094
  23136929.318    -2761305.28449  -2128558.46949  23136930.0574   23136936.0084
 97  3 13 18 49  0.0000000  0  8 19 18 10 26  7 27  2 31
  21270707.466     -874243.18749   -671937.30449  21270707.5264   21270714.0104
  23456848.240    16923677.06749  13195769.27449  23456849.3514   23456855.5604
  24666657.033    -4753531.59949  -3691408.03849  24666656.9894   24666664.4424
  24839800.920    -3801426.21149  -2940008.64849  24839800.8044   24839810.0214
  22943601.705   -12430364.35449  -9405300.22949  22943601.5754   22943608.8464
  20348107.461   -20545392.75549 -15990389.55749  20348107.6584   20348113.1984
  21551743.076   -20721572.64649 -15872310.98249  21551742.5994   21551749.1104
  23154728.821    -2667769.54849  -2055673.51949  23154728.7954   23154734.7624
 97  3 13 18 49 30.0000000  0  8 19 18 10 26  7 27  2 31
  21280159.592     -824572.18149   -633232.65449  21280159.9224   21280166.0894
  23478833.595    17039209.67249  13285794.59049  23478833.8524   23478840.7794
  24678158.130    -4693093.91049  -3644313.78049  24678156.2784   24678166.7944
  24823414.640    -3887537.17749  -3007108.08749  24823415.8274   24823420.7874
  22925615.588   -12524881.64849  -9478950.01149  22925615.3774   22925623.4384
  20344642.277   -20563602.46649 -16004578.94449  20344642.1174   20344647.7174
  21547465.987   -20744048.68249 -15889824.76949  21547465.7304   21547472.0214
  23172595.512    -2573880.09849  -1982512.96049  23172596.1264   23172601.6824
 97  3 13 18 50  0.0000000  0  8 19 18 10 26  7 27  2 31
  21289665.821     -774616.64949   -594306.29949  21289665.8314   21289672.3544
  23500839.349    17154850.52149  13375904.25149  23500840.2074   23500847.4114
  24689703.952    -4632419.10649  -3597034.79649  24689705.3634   24689711.4844
  24807062.904    -3973466.49549  -3074065.97349  24807063.7974   24807069.6504
  22907667.266   -12619199.85649  -9552444.65149  22907667.9414   22907674.8674
  20341236.649   -20581499.13649 -16018524.41249  20341236.7154   20341242.4114
  21543223.584   -20766342.62449 -15907196.66049  21543223.1874   21543229.6234
  23190524.846    -2479661.10449  -1909095.61349  23190525.1544   23190531.9974
 97  3 13 18 50 30.0000000  0  8 19 18 10 26  7 27  2 31
  21299232.482     -724343.26349   -555132.26749  21299232.5684   21299239.0834
  23522870.293    17270623.13249  13466116.58649  23522870.7554   23522877.9404
  24701298.755    -4571489.24949  -3549556.95049  24701297.6474   24701305.4634
  24790753.839    -4059171.13749  -3140848.78149  24790754.5184   24790761.8844
  22889762.308   -12713291.03449  -9625762.38549  22889762.4474   22889769.4584
  20337896.937   -20599049.54349 -16032200.06249  20337897.0874   20337902.6594
  21539028.058   -20788390.12449 -15924376.52949  21539027.4124   21539033.9644
  23208521.104    -2385089.91649  -1835403.83549  23208521.0654   23208527.9274
 97  3 13 18 51  0.0000000  0  8 19 18 10 26  7 27  2 31
  21308859.871     -673751.20649   -515709.92149  21308859.8934   21308866.6384
  23544926.383    17386527.93449  13556431.92149  23544926.6064   23544933.5734
  24712938.616    -4510320.74749  -3501893.27549  24712938.8884   24712947.8834
  24774491.086    -4144632.46249  -3207441.99749  24774492.3064   24774497.7244
  22871898.973   -12807163.14349  -9698909.43249  22871898.9544   22871906.1494
  20334627.202   -20616232.14449 -16045589.11249  20334627.2804   20334632.9334
  21534883.224   -20810171.38749 -15941348.94149  21534882.9614   21534889.3364
  23226585.974    -2290158.43349  -1761431.30549  23226587.0084   23226592.7764
 97  3 13 18 51 30.0000000  0  8 19 18 10 26  7 27  2 31
  21318546.955     -622844.92149   -476042.72749  21318547.2074   21318553.5094
  23567005.281    17502552.80649  13646840.83249  23567005.7214   23567012.7634
  24724620.176    -4448935.03649  -3454060.26849  24724620.6314   24724628.5604
  24758273.293    -4229857.67949  -3273851.24149  24758273.5044   24758281.3114
  22854071.785   -12900845.13449  -9771908.33249  22854071.1064   22854079.0584
  20331421.688   -20633077.17649 -16058715.12349  20331421.8104   20331427.4184
  21530787.000   -20831697.27549 -15958122.34549  21530786.7464   21530793.0934
  23244718.610    -2194871.56149  -1687181.84049  23244718.9364   23244723.9674
 97  3 13 18 52  0.0000000  0  8 19 18 10 26  7 27  2 31
  21328295.008     -571618.55149   -436126.10649  21328295.4384   21328301.7744
  23589103.605    17618680.04749  13737329.49749  23589103.4244   23589111.6754
  24736338.157    -4387357.14449  -3406077.53149  24736338.3794   24736344.9204
  24742098.000    -4314859.28449  -3340086.23749  24742100.5104   24742104.7364
  22836276.182   -12994361.37249  -9844778.07549  22836275.7554   22836283.0324
  20328273.390   -20649621.82449 -16071607.06649  20328273.3894   20328278.9494
  21526738.150   -20852974.14849 -15974701.71749  21526737.6304   21526744.2514
  23262914.500    -2099251.42849  -1612672.69449  23262914.7794   23262921.1744
 97  3 13 18 52 30.0000000  0  8 19 18 10 26  7 27  2 31
  21338104.675     -520068.46349   -395957.24149  21338104.7074   21338111.8394
  23611225.777    17734932.41149  13827915.66149  23611225.7994   23611233.3814
  24748096.298    -4325567.25849  -3357929.61049  24748096.4194   24748105.1384
  24725967.049    -4399628.15949  -3406139.87349  24725968.4384   24725973.6474
  22818514.653   -13087698.55149  -9917508.29349  22818514.6714   22818521.9324
  20325181.506   -20665870.05649 -16084268.03149  20325181.5404   20325187.1534
  21522735.929   -20874005.79349 -15991090.00749  21522735.4604   21522741.8194
  23281175.258    -2003291.19249  -1537898.53549  23281175.1384   23281182.2274
 97  3 13 18 53  0.0000000  0  8 19 18 10 26  7 27  2 31
  21347976.114     -468193.86349   -355535.51249  21347976.5734   21347982.8614
  23633374.701    17851325.06749  13918611.13949  23633374.9754   23633381.5604
  24759898.753    -4263545.28549  -3309600.85749  24759898.5894   24759906.2724
  24709883.656    -4484147.48849  -3471999.04949  24709883.4044   24709892.2744
  22800788.203   -13180851.68749  -9990095.10749  22800787.7034   22800795.6884
  20322143.724   -20681833.69949 -16096707.24949  20322143.7434   20322149.3974
  21518778.520   -20894802.05149 -16007294.87949  21518778.0504   21518784.7134
  23299501.226    -1906987.79849  -1462856.99249  23299501.8414   23299506.3304
 97  3 13 18 53 30.0000000  0  8 19 18 10 26  7 27  2 31
  21357907.860     -416002.41649   -314866.89249  21357908.1584   21357914.4184
  23655548.001    17967846.49349  14009406.95649  23655548.9144   23655554.8624
  24771745.396    -4201291.73649  -3261091.62949  24771743.9594   24771753.4584
  24693847.540    -4568417.79449  -3537664.23049  24693847.2654   24693853.0704
  22783096.109   -13273823.93849 -10062540.96449  22783096.5304   22783103.6894
  20319156.425   -20697532.05149 -16108939.74749  20319156.4914   20319161.9524
  21514861.248   -20915387.36049 -16023335.38349  21514860.9024   21514867.6334
  23317889.848    -1810355.07749  -1387558.80649  23317890.7204   23317895.9144
 97  3 13 18 54  0.0000000  0  8 19 18 10 26  7 27  2 31
  21367898.477     -363501.80249   -273957.36049  21367898.5324   21367905.0834
  23677746.629    18084501.05249  14100306.51749  23677746.3574   23677754.6414
  24783637.094    -4138800.00149  -3212396.78249  24783637.2954   24783644.8844
  24677860.135    -4652432.99449  -3603130.63249  24677861.3124   24677868.9514
  22765442.123   -13366596.46649 -10134831.20449  22765441.6934   22765448.7404
  20316225.156   -20712935.93949 -16120942.78549  20316225.0904   20316230.7584
  21510984.402   -20935760.37449 -16039210.45549  21510984.1964   21510990.5974
  23336341.270    -1713391.97149  -1312003.18849  23336341.0274   23336347.2284
 97  3 13 18 54 30.0000000  0  8 19 18 10 26  7 27  2 31
  21377946.672     -310698.65949   -232812.08149  21377946.6754   21377953.3314
  23699970.790    18201288.94749  14191309.96349  23699970.6624   23699978.3624
  24795576.177    -4076059.75149  -3163508.35449  24795576.4104   24795585.8084
  24661922.293    -4736186.82249  -3668393.32549  24661922.9664   24661927.6634
  22747831.762   -13459139.51249 -10206942.64049  22747831.5844   22747838.1604
  20313355.998   -20728013.46049 -16132691.51449  20313356.0464   20313361.5324
  21507149.884   -20955910.84749 -16054912.11649  21507149.5204   21507155.9944
  23354861.759    -1616066.27549  -1236165.02349  23354861.6664   23354868.5034
 97  3 13 18 55  0.0000000  0  8 19 18 10 26  7 27  2 31
  21388052.182     -257594.01149   -191431.86749  21388052.2304   21388059.0394
  23722215.319    18318185.07149  14282397.75549  23722215.6524   23722222.5184
  24807558.040    -4013095.46449  -3114445.30949  24807557.9154   24807565.4684
  24646031.455    -4819693.54649  -3733463.47649  24646031.3884   24646041.1174
  22730265.728   -13551449.62749 -10278872.55549  22730264.9454   22730272.2954
  20310553.412   -20742741.26649 -16144167.73949  20310553.7064   20310559.3394
  21503357.034   -20975842.61149 -16070443.35549  21503356.8164   21503363.0474
  23373451.378    -1518377.34049  -1160043.83449  23373452.1864   23373458.0634
 97  3 13 18 55 30.0000000  0  7 19 18 26  7 27  2 31
  21398212.775     -204199.68549   -149825.93549  21398212.9754   21398219.8724
  23744477.643    18435174.40249  14373558.15749  23744478.2104   23744485.2114
  24630185.568    -4902963.74349  -3798349.33649  24630185.5874   24630193.7804
  22712747.515   -13643508.42149 -10350606.62749  22712747.3524   22712754.5574
  20307821.474   -20757097.65349 -16155354.54649  20307821.5784   20307827.0164
  21499601.446   -20995578.26749 -16085821.78949  21499601.2264   21499607.6604
  23392107.413    -1420340.23149  -1083651.31549  23392107.4914   23392114.7754
 97  3 13 18 56  0.0000000  0  7 19 18 26  7 27  2 31
  21408427.346     -150521.91949   -107999.14249  21408427.6844   21408433.8624
  23766757.167    18552253.02149  14464788.13849  23766756.9274   23766765.2684
  24614384.661    -4985997.42249  -3863050.88749  24614384.5164   24614392.2334
  22695279.073   -13735305.50449 -10422136.78949  22695278.7754   22695286.2914
  20305160.442   -20771081.48449 -16166251.04849  20305160.5304   20305166.1434
  21495882.984   -21015118.75149 -16101048.13349  21495882.4504   21495889.2834
  23410826.935    -1321967.70849  -1006997.47849  23410825.9324   23410832.8484
 97  3 13 18 56 30.0000000  0  7 19 18 26  7 27  2 31
  21418698.444      -96546.80449    -65940.64849  21418698.6334   21418704.9854
  23789051.859    18669412.51649  14556081.13849  23789051.3824   23789060.4304
  24598632.132    -5068778.18549  -3927555.35649  24598631.7424   24598639.2604
  22677859.607   -13826845.45649 -10493466.58149  22677858.8554   22677866.4584
  20302568.957   -20784699.85449 -16176862.77449  20302568.8844   20302574.4794
  21492200.436   -21034470.65549 -16116127.54349  21492200.1594   21492206.6574
  23429607.531    -1223275.08149   -930094.17449  23429608.0504   23429614.4114
 97  3 13 18 57  0.0000000  0  8 15 19 18 26  7 27  2 31
  24620824.532    -5019375.39949  -3901363.33449  24620823.4594   24620833.7494
  21429026.917      -42270.60349    -23647.53649  21429026.9934   21429034.1034
  23811361.452    18786649.71149  14647434.67749  23811361.7574   23811369.0914
  24582928.115    -5151303.67149  -3991860.91149  24582928.3434   24582933.2424
  22660486.124   -13918143.39049 -10564607.78849  22660485.3124   22660492.6144
  20300044.191   -20797967.33249 -16187201.07349  20300044.4524   20300050.1524
  21488550.090   -21053653.50149 -16131075.21549  21488549.7674   21488556.2384
  23448441.962    -1124299.87649   -852970.69049  23448441.3424   23448448.6504
 97  3 13 18 57 30.0000000  0  8 15 19 18 26  7 27  2 31
  24609635.008    -5078175.60549  -3947181.53349  24609633.8854   24609643.6614
  21439418.541       12337.61049     18904.28349  21439418.6694   21439424.9044
  23833691.807    18903996.20949  14738873.40849  23833691.9184   23833699.5104
  24567280.673    -5233532.09949  -4055934.99049  24567280.0164   24567287.2234
  22643162.461   -14009179.55449 -10635545.01249  22643162.2554   22643169.8874
  20297586.434   -20810883.10949 -16197265.32349  20297586.6334   20297592.1484
  21484937.486   -21072637.70749 -16145868.10949  21484936.9684   21484943.6394
  23467333.663    -1025022.76749   -775611.94349  23467333.6634   23467340.6364
 97  3 13 18 58  0.0000000  0  8 15 19 18 26  7 27  2 31
  24598487.804    -5136754.25849  -3992827.11549  24598488.0514   24598497.7724
  21449872.668       67274.04949     61711.85949  21449873.3324   21449879.1614
  23856039.690    19021435.10049  14830384.12349  23856040.4574   23856048.3534
  24551686.996    -5315477.63249  -4119788.64049  24551686.4614   24551694.2064
  22625882.658   -14099985.35549 -10706302.73449  22625881.6184   22625889.3794
  20295190.054   -20823476.38949 -16207078.27749  20295190.1524   20295195.9364
  21481365.670   -21091407.45649 -16160493.88649  21481365.3604   21481371.8254
  23486282.648     -925445.77049   -698019.53849  23486282.3754   23486289.7424
 97  3 13 18 58 30.0000000  0  8 15 19 18 26  7 27  2 31
  24587380.863    -5195121.68249  -4038308.10449  24587380.7704   24587389.9824
  21460388.469      122534.90349    104772.23549  21460389.0024   21460395.4764
  23878401.227    19138945.21149  14921950.33349  23878401.4974   23878408.4964
  24536141.417    -5397170.42349  -4183445.36549  24536142.2824   24536147.0204
  22608642.957   -14190580.47549 -10776896.29949  22608642.3534   22608650.1284
  20292854.773   -20835748.61149 -16216641.05749  20292854.7394   20292860.4434
  21477831.260   -21109981.06449 -16174966.82549  21477831.1374   21477837.3324
  23505286.271     -825581.03949   -620202.90749  23505286.7294   23505293.0834
 97  3 13 18 59  0.0000000  0  8 15 19 18 26  7 27  2 31
  24576315.603    -5253269.21349  -4083617.75349  24576315.0714   24576324.5874
  21470965.131      178115.36349    148081.64449  21470965.0504   21470971.5554
  23900778.019    19256535.68649  15013579.15149  23900778.3954   23900786.2874
  24520640.644    -5478627.10049  -4246918.07149  24520641.1534   24520648.7414
  22591444.735   -14280956.91949 -10847319.46749  22591444.5484   22591451.6984
  20290581.182   -20847696.34749 -16225950.99549  20290581.1734   20290587.1154
  21474334.809   -21128355.08349 -16189284.24049  21474334.4184   21474341.0454
  23524346.736     -725417.91949   -542153.79749  23524346.0044   23524354.4104
 97  3 13 18 59 30.0000000  0  8 15 19 18 26  7 27  2 31
  24565296.189    -5311176.29349  -4128740.03249  24565296.3194   24565305.5034
  21481604.704      234026.40949    191648.66349  21481604.4754   21481611.7174
  23923172.719    19374220.35049  15105281.37149  23923173.0124   23923181.0414
  24505186.453    -5559838.95849  -4310199.98349  24505186.9724   24505192.1644
  22574291.817   -14371096.14649 -10917557.78349  22574291.8634   22574299.3004
  20288371.917   -20859306.15249 -16234997.61749  20288372.1224   20288377.7534
  21470880.543   -21146507.25649 -16203428.79649  21470880.2094   21470886.8594
  23543467.677     -624937.18149   -463857.17349  23543468.5664   23543474.0534
 97  3 13 19  0  0.0000000  0  8 15 19 18 26  7 27  2 31
  24554324.563    -5368831.60349  -4173666.12149  24554323.9154   24554332.9944
  21492308.092      290273.07149    235477.21149  21492307.6354   21492314.8634
  23945585.885    19492001.74249  15197058.97049  23945585.8564   23945593.9814
  24489778.084    -5640810.36649  -4373294.56749  24489779.2894   24489787.2884
  22557185.559   -14460989.96849 -10987604.87549  22557185.1364   22557192.2224
  20286232.746   -20870547.58849 -16243757.19049  20286232.8934   20286238.4624
  21467470.078   -21164429.64449 -16217394.28549  21467469.8304   21467476.2974
  23562648.839     -524139.48549   -385313.57349  23562647.9684   23562655.2064
 97  3 13 19  0 30.0000000  0  8 15 19 18 26  7 27  2 31
  24543397.862    -5426251.53349  -4218408.80649  24543397.9494   24543406.5764
  21503072.163      346838.67249    279554.28049  21503072.4634   21503078.8234
  23968014.590    19609864.28249  15288899.80749  23968014.2294   23968022.3694
  24474413.417    -5721552.49549  -4436210.47549  24474414.1464   24474419.2704
  22540124.886   -14550644.40649 -11057465.44749  22540124.3674   22540131.9654
  20284161.912   -20881429.96049 -16252236.96449  20284162.0174   20284167.9084
  21464097.780   -21182151.19749 -16231203.28449  21464097.4954   21464103.8494
  23581885.153     -423051.91349   -306544.10649  23581886.0104   23581893.3054
 97  3 13 19  1  0.0000000  0  8 15 19 18 26  7 27  2 31
  24532517.540    -5483428.16449  -4262961.92549  24532517.7314   24532527.5264
  21513895.207      403714.51849    323873.08449  21513895.9304   21513902.5944
  23990460.523    19727817.76749  15380811.48849  23990460.4404   23990468.2804
  24459098.947    -5802030.65249  -4498920.71549  24459097.9294   24459106.1224
  22523113.608   -14640039.43649 -11127123.87749  22523113.9634   22523121.0294
  20282157.943   -20891960.89949 -16260442.89949  20282157.9944   20282163.7334
  21460767.910   -21199649.57449 -16244838.39749  21460767.6404   21460774.1464
  23601178.935     -321664.33449   -227540.84049  23601178.3444   23601186.4474
 97  3 13 19  1 30.0000000  0  8 15 19 18 26  7 27  2 31
  24521684.388    -5540357.15649  -4307322.05649  24521683.6824   24521693.4344
  21524775.837      460892.68849    368427.46549  21524776.4474   21524782.7204
  24012919.296    19845839.23449  15472776.15249  24012919.7224   24012927.1654
  24443839.368    -5882220.29549  -4561406.13149  24443839.0324   24443847.6114
  22506153.131   -14729167.09149 -11196573.96349  22506152.6954   22506160.8754
  20280221.514   -20902136.85849 -16268372.22249  20280221.6054   20280227.5054
  21457481.381   -21216920.49949 -16258296.26449  21457480.9254   21457487.6874
  23620530.775     -219968.91849   -148297.75349  23620531.9264   23620537.1994
 97  3 13 19  2  0.0000000  0  8 15 19 18 26  7 27  2 31
  24510898.457    -5597037.37849  -4351488.37049  24510897.6894   24510907.2284
  21535712.946      518367.17849    413212.75749  21535712.7564   21535719.3054
  24035391.232    19963929.39249  15564794.34849  24035391.6554   24035399.3644
  24428636.992    -5962109.38049  -4623657.35849  24428636.9474   24428642.9134
  22489243.677   -14818026.95349 -11265815.38449  22489244.1304   22489250.3594
  20278355.507   -20911942.60849 -16276013.07149  20278355.5474   20278361.2974
  21454238.143   -21233963.51749 -16271576.53449  21454237.8304   21454244.3634
  23639942.956     -117958.71149    -68809.32949  23639941.8094   23639950.1214
 97  3 13 19  2 30.0000000  0  8 15 19 18 26  7 27  2 31
  24500159.460    -5653470.73049  -4395462.32049  24500159.0634   24500169.0074
  21546703.661      576123.53749    458217.68949  21546703.3884   21546711.1174
  24057875.898    20082086.58549  15656864.77049  24057875.5794   24057884.7444
  24413493.661    -6041687.65149  -4685666.35049  24413492.9314   24413501.1944
  22472384.548   -14906622.50349 -11334850.86149  22472384.1924   22472391.3664
  20276557.147   -20921393.29549 -16283377.25149  20276557.3614   20276563.0904
  21451035.886   -21250791.60649 -16284689.33049  21451035.6874   21451042.1274
  23659413.455      -15640.29249     10919.22649  23659413.8694   23659420.9874
 97  3 13 19  3  0.0000000  0  8 15 19 18 26  7 27  2 31
  24489468.636    -5709650.81449  -4439238.95449  24489467.8344   24489477.2504
  21557748.090      634162.41249    503442.76849  21557748.1614   21557754.7894
  24080372.201    20200305.48049  15748983.27649  24080372.3354   24080380.3744
  24398408.180    -6120961.65449  -4747438.26849  24398408.7234   24398415.2254
  22455574.933   -14994957.37749 -11403683.20649  22455575.1594   22455581.8784
  20274826.512   -20930488.04749 -16290464.07049  20274826.5404   20274832.3574
  21447875.163   -21267401.50149 -16297632.10249  21447874.8854   21447881.3354
  23678940.035       86971.45549     90876.39249  23678939.6214   23678946.7664
 97  3 13 19  3 30.0000000  0  8 15 19 18 26  7 27  2 31
  24478829.097    -5765560.93149  -4482805.18649  24478829.4894   24478838.3294
  21568851.829      692512.86249    548910.61849  21568852.5344   21568858.7554
  24102881.407    20318591.37649  15841153.99149  24102881.9524   24102890.4124
  24383379.247    -6199938.22749  -4808978.42349  24383380.1274   24383386.9144
  22438813.253   -15083040.59049 -11472319.45949  22438812.9234   22438819.7384
  20273169.382   -20939196.21249 -16297249.66049  20273169.4674   20273175.1854
  21444757.136   -21283786.83949 -16310399.89249  21444756.8044   21444763.2664
  23698520.925      189870.30449    171057.23749  23698520.7154   23698528.2834
 97  3 13 19  4  0.0000000  0  8 15 19 18 26  7 27  2 31
  24468242.187    -5821195.41149  -4526156.67449  24468241.9894   24468252.3614
  21580020.043      751202.25049    594642.57449  21580021.0624   21580027.4694
  24125405.527    20436955.38749  15933385.57249  24125405.7794   24125413.8614
  24368405.472    -6278625.94849  -4870293.49749  24368405.2844   24368412.3994
  22422099.254   -15170873.33949 -11540760.54849  22422098.9544   22422105.5904
  20271586.358   -20947515.29049 -16303732.06749  20271586.5034   20271592.2834
  21441682.187   -21299945.82349 -16322991.31049  21441681.9524   21441688.3114
  23718150.772      293024.84649    251437.34149  23718150.2864   23718158.5094
 97  3 13 19  4 30.0000000  0  8 15 19 18 26  7 27  2 31
  24457706.187    -5876562.62249  -4569299.90449  24457705.1234   24457714.5024
  21591252.496      810228.74349    640637.21149  21591252.9074   21591259.2254
  24147939.283    20555370.68549  16025657.10349  24147940.0094   24147947.4854
  24353484.111    -6357038.23949  -4931393.97049  24353484.7034   24353491.8624
  22405430.913   -15258465.86449 -11609014.45549  22405430.4934   22405438.3234
  20270073.326   -20955466.55849 -16309927.86749  20270073.3604   20270079.1784
  21438647.090   -21315895.58549 -16335419.70449  21438646.9744   21438653.2784
  23737823.546      396407.01849    331994.77149  23737824.0764   23737830.9174
 97  3 13 19  5  0.0000000  0  8 15 19 18 26  7 27  2 31
  24447218.626    -5931675.07849  -4612244.63449  24447218.1434   24447226.9744
  21602546.224      869577.48849    686882.96349  21602545.7594   21602553.3784
  24170479.680    20673820.81549  16117955.78349  24170480.5644   24170488.5584
  24338613.993    -6435181.24749  -4992284.59049  24338613.6184   24338621.0994
  22388806.738   -15345826.39949 -11677087.58749  22388806.7624   22388813.9554
  20268628.319   -20963060.18849 -16315844.98849  20268628.4514   20268634.1984
  21435648.576   -21331652.89149 -16347698.12449  21435648.2404   21435654.7114
  23757538.440      500008.49349    412723.16449  23757538.8484   23757545.5364
 97  3 13 19  5 30.0000000  0  8 15 19 18 26  7 27  2 31
  24436778.282    -5986539.18949  -4654995.85549  24436778.0214   24436785.6724
  21613896.294      929222.84249    733359.83149  21613896.5914   21613903.0854
  24193026.143    20792302.25149  16210278.86449  24193027.3264   24193034.7894
  24323795.923    -6513051.17549  -5052962.45549  24323797.1264   24323802.7334
  22372227.452   -15432951.18849 -11744977.02449  22372227.1294   22372234.3644
  20267250.153   -20970302.57349 -16321488.41449  20267250.0954   20267255.6694
  21432682.123   -21347241.74049 -16359845.28149  21432681.8834   21432688.3654
  23777297.122      603841.95649    493632.27649  23777297.1804   23777303.9714
 97  3 13 19  6  0.0000000  0  8 15 19 18 26  7 27  2 31
  24426386.554    -6041147.78649  -4697547.95249  24426384.5464   24426394.8644
  21625300.740      989153.69949    780059.15949  21625301.3554   21625307.5894
  24215580.359    20910825.21849  16302634.29649  24215581.5824   24215588.1484
  24309033.200    -6590630.27449  -5113413.65149  24309034.2964   24309040.2984
  22355697.156   -15519818.11649 -11812665.53249  22355697.0834   22355704.2844
  20265937.751   -20977199.22549 -16326862.44349  20265938.0534   20265943.4954
  21429747.419   -21362663.80849 -16371862.47749  21429747.1254   21429753.5954
  23797104.535      707929.81449    574739.65549  23797105.0374   23797111.6824
 97  3 13 19  6 30.0000000  0  8 15 19 18 26  7 27  2 31
  24416041.201    -6095511.63949  -4739909.34449  24416040.8374   24416050.3014
  21636751.857     1049329.39049    826949.27949  21636752.1384   21636759.2684
  24238141.635    21029385.47749  16395018.79249  24238142.1034   24238150.2754
  24294323.981    -6667927.87249  -5173645.52549  24294325.9684   24294329.8344
  22339214.677   -15606433.77449 -11880158.24649  22339214.7334   22339221.5204
  20264688.932   -20983762.03449 -16331976.32049  20264688.9984   20264694.6564
  21426841.579   -21377934.09149 -16383761.39249  21426841.3264   21426847.7954
  23816965.344      812299.68949    656066.75549  23816965.8984   23816971.2824
 97  3 13 19  7  0.0000000  0  8 15 19 18 26  7 27  2 31
  24405749.175    -6149596.06149  -4782052.99449  24405748.7824   24405759.2224
  21648254.850     1109778.04449    874052.08349  21648254.7254   21648261.4584
  24260714.738    21148007.03349  16487451.04449  24260715.0064   24260723.0754
  24279672.734    -6744920.79849  -5233639.97549  24279674.5714   24279679.4634
  22322787.182   -15692760.82549 -11947426.07049  22322787.4264   22322794.2464
  20263510.165   -20989956.45749 -16336803.15249  20263510.1544   20263515.8934
  21423971.026   -21393018.93149 -16395515.81249  21423970.6944   21423976.8684
  23836887.063      916987.99449    737642.01349  23836887.3464   23836894.6794
 97  3 13 19  7 30.0000000  0  8 15 19 18 26  7 27  2 31
  24395515.107    -6203376.48249  -4823959.76349  24395515.1264   24395523.9584
  21659816.586     1170534.95549    921395.10549  21659816.7614   21659823.9094
  24283300.003    21266692.66149  16579933.24949  24283300.1114   24283307.8584
  24265079.213    -6821610.48049  -5293398.13049  24265079.2654   24265084.6574
  22306418.952   -15778776.19449 -12014451.02549  22306418.4584   22306425.8374
  20262406.786   -20995754.81549 -16341321.36249  20262406.9784   20262412.5444
  21421140.096   -21407895.71049 -16407108.11349  21421139.8734   21421146.0094
  23856870.347     1022000.64949    819469.98149  23856869.5034   23856877.1764
 97  3 13 19  8  0.0000000  0  8 15 19 18 26  7 27  2 31
  24385335.358    -6256871.73049  -4865644.31049  24385335.1944   24385345.0904
  21671437.446     1231603.00849    968980.56449  21671438.0664   21671444.3294
  24305890.969    21385409.24549  16672439.56549  24305890.9724   24305898.9364
  24250540.816    -6898010.35049  -5352930.47649  24250541.5494   24250547.5814
  22290106.390   -15864499.11149 -12081248.09449  22290106.0914   22290113.4104
  20261375.070   -21001176.64649 -16345546.16849  20261375.0024   20261380.6234
  21418347.291   -21422572.01049 -16418544.18149  21418347.0074   21418353.3764
  23876908.845     1127303.27049    901523.92049  23876909.5494   23876915.6804
 97  3 13 19  8 30.0000000  0  8 15 19 18 26  7 27  2 31
  24375211.408    -6310073.34849  -4907100.07949  24375211.6224   24375219.8824
  21683120.814     1292999.30849   1016821.79249  21683121.2484   21683127.7294
  24328486.103    21504147.46449  16764962.74149  24328486.1204   24328493.6754
  24236057.074    -6974123.14649  -5412239.11149  24236056.9274   24236063.2654
  22273851.398   -15949919.84249 -12147809.70249  22273851.3144   22273858.2364
  20260416.240   -21006215.22049 -16349472.33349  20260416.4464   20260422.2574
  21415592.699   -21437047.55449 -16429823.82249  21415592.4244   21415598.6624
  23896997.703     1232870.34249    983783.90749  23896996.6634   23897004.0414
 97  3 13 19  9  0.0000000  0  8 15 19 18 26  7 27  2 31
  24365144.796    -6362973.91849  -4948321.25249  24365144.3824   24365152.8824
  21694871.041     1354746.93149   1064936.78949  21694870.9234   21694878.1774
  24351084.550    21622902.28449  16857498.82849  24351085.1654   24351093.8384
  24221628.656    -7049944.40449  -5471320.57449  24221628.6654   24221635.3514
  22257654.170   -16035036.80349 -12214134.59649  22257654.0074   22257661.1604
  20259530.729   -21010868.84949 -16353098.55349  20259530.7394   20259536.5714
  21412875.595   -21451325.96949 -16440949.85949  21412875.1654   21412881.4874
  23917130.823     1338670.69249   1066225.69849  23917132.5244   23917137.0264
 97  3 13 19  9 30.0000000  0  8 15 19 18 26  7 27  2 31
  24355130.377    -6415599.61849  -4989328.21549  24355130.4744   24355140.3984
  21706683.222     1416820.36249   1113305.66049  21706683.4064   21706689.8424
  24373683.921    21741662.54149  16950039.16849  24373684.8094   24373693.0624
  24207254.489    -7125480.61549  -5530179.92249  24207254.4864   24207260.5784
  22241509.151   -16119879.67049 -12280245.90949  22241509.1344   22241516.1554
  20258713.389   -21015164.15049 -16356445.54549  20258713.3854   20258719.1394
  21410189.435   -21465441.75549 -16451949.17149  21410189.1444   21410195.4814
  23937303.535     1444678.44549   1148829.08749  23937302.8604   23937310.6044
 97  3 13 19 10  0.0000000  0  8 15 19 18 26  7 27  2 31
  24345171.441    -6467933.85349  -5030108.11049  24345170.2894   24345179.1374
  21718559.334     1479229.55049   1161936.15749  21718559.4444   21718566.6084
  24396289.931    21860457.88549  17042606.85949  24396290.0004   24396298.2154
  24192941.610    -7200695.21449  -5588788.67949  24192941.9154   24192949.4114
  22225418.795   -16204435.32649 -12346133.42749  22225418.8534   22225425.8474
  20257964.043   -21019101.96849 -16359513.98349  20257964.1134   20257969.7114
  21407536.440   -21479383.23349 -16462812.65549  21407536.1314   21407542.4044
  23957517.982     1550907.22149   1231604.68449  23957519.3054   23957525.2004
 97  3 13 19 10 30.0000000  0  8 15 19 18 26  7 27  2 31
  24335270.178    -6519965.46349  -5070652.15949  24335269.7334   24335278.5144
  21730499.178     1541973.65749   1210827.63149  21730499.5184   21730506.4014
  24418905.594    21979303.65749  17135213.82649  24418906.0434   24418913.9434
  24178691.695    -7275578.48649  -5647139.24849  24178692.5694   24178698.4604
  22209383.055   -16288703.76049 -12411797.11949  22209382.9244   22209390.0474
  20257284.684   -21022671.93649 -16362295.78449  20257284.4844   20257290.3514
  21404916.972   -21493148.52749 -16473538.84849  21404916.8144   21404923.0484
  23977775.335     1657358.64049   1314553.79549  23977774.5724   23977782.0964
 97  3 13 19 11  0.0000000  0  8 15 19 18 26  7 27  2 31
  24325427.188    -6571690.27649  -5110957.16849  24325427.6974   24325436.7574
  21742500.404     1605039.70349   1259969.96749  21742500.6304   21742507.2334
  24441532.822    22098209.96649  17227867.98149  24441532.8194   24441541.5684
  24164509.737    -7350105.23749  -5705212.01349  24164510.1684   24164518.0494
  22193402.584   -16372681.65949 -12477234.42549  22193402.5774   22193409.8364
  20256677.468   -21025862.93549 -16364782.28749  20256677.4644   20256683.0604
  21402333.647   -21506724.09749 -16484117.20649  21402333.4734   21402339.7454
  23998079.406     1764058.55249   1397696.50449  23998078.4964   23998085.2974
 97  3 13 19 11 30.0000000  0  8 15 19 18 26  7 27  2 31
  24315636.741    -6623139.59149  -5151047.47949  24315636.2654   24315645.7054
  21754553.746     1668380.43049   1309326.34249  21754553.8764   21754560.6934
  24464163.592    22217135.34849  17320536.98649  24464164.7514   24464172.4744
  24150391.804    -7424294.73449  -5763021.97449  24150392.1614   24150398.3794
  22177473.207   -16456391.18349 -12542462.60849  22177472.7454   22177480.0054
  20256137.574   -21028700.10649 -16366993.08049  20256137.6584   20256143.3624
  21399782.650   -21520129.66849 -16494563.09449  21399782.2994   21399788.6334
  24018425.786     1870978.42549   1481010.65049  24018426.3094   24018433.0914
 97  3 13 19 12  0.0000000  0  8 15 19 18 26  7 27  2 31
  24305895.420    -6674330.29349  -5190936.25349  24305895.4094   24305904.0014
  21766653.541     1731965.63949   1358873.21449  21766653.8594   21766660.4684
  24486790.385    22336039.06949  17413189.12549  24486790.7484   24486799.1874
  24136334.498    -7498165.56949  -5820583.63449  24136335.1634   24136342.0584
  22161592.784   -16539842.77649 -12607489.80149  22161592.9784   22161599.7684
  20255661.031   -21031204.29949 -16368944.40649  20255661.2874   20255666.8264
  21397262.360   -21533373.66349 -16504883.07849  21397262.0944   21397268.3664
  24038807.179     1978083.00849   1564468.69649  24038806.5614   24038815.0944
 97  3 13 19 12 30.0000000  0  8 15 19 18 26  7 27  2 31
  24296209.830    -6725228.02549  -5230596.72549  24296209.2944   24296218.9724
  21778804.599     1795819.91949   1408629.76149  21778804.0884   21778811.6774
  24509415.815    22454935.37349  17505835.48449  24509416.1144   24509424.0424
  24122341.520    -7571698.77649  -5877882.22049  24122343.1894   24122346.6934
  22145768.353   -16623000.60149 -12672288.08449  22145768.0144   22145775.1714
  20255258.455   -21033320.24649 -16370593.20249  20255258.5764   20255264.2114
  21394781.819   -21546409.15949 -16515040.60149  21394781.4614   21394787.6914
  24059228.307     2085396.08349   1648089.22249  24059228.3334   24059236.2394
 97  3 13 19 13  0.0000000  0  8 15 19 18 26  7 27  2 31
  24286581.291    -6775825.82249  -5270023.45349  24286580.3804   24286590.9634
  21791006.899     1859943.46849   1458596.13449  21791007.1404   21791014.3004
  24532038.076    22573815.34949  17598469.12249  24532038.3634   24532046.7274
  24108411.824    -7644899.81249  -5934921.95549  24108412.4034   24108420.1004
  22130001.869   -16705853.65849 -12736848.88649  22130002.0784   22130008.5994
  20254931.633   -21035037.64149 -16371931.43549  20254931.8324   20254937.2324
  21392341.288   -21559234.28949 -16525034.20149  21392341.0904   21392347.2974
  24079690.586     2192925.72949   1731878.50849  24079689.4684   24079697.5904
 97  3 13 19 13 30.0000000  0  8 15 19 18 26  7 27  2 31
  24277012.621    -6826108.64749  -5309204.74849  24277011.2754   24277021.7624
  21803266.692     1924368.25949   1508797.24249  21803266.7634   21803273.4864
  24554656.760    22692676.91649  17691088.39849  24554657.0754   24554665.1094
  24094543.034    -7717780.96749  -5991712.42549  24094543.7344   24094549.4374
  22114295.237   -16788392.95549 -12801165.20249  22114295.4724   22114301.8644
  20254680.377   -21036357.94849 -16372960.25349  20254680.3374   20254686.0044
  21389940.537   -21571850.16549 -16534864.74549  21389940.0834   21389946.6074
  24100192.962     2300665.12649   1815831.23549  24100192.6944   24100199.4454
 97  3 13 19 14  0.0000000  0  8 15 19 18 26  7 27  2 31
  24267507.226    -6876059.67049  -5348127.52749  24267507.1344   24267516.0704
  21815587.286     1989113.67149   1559248.16749  21815588.0834   21815594.8324
  24577275.792    22811540.75449  17783709.44249  24577275.8764   24577285.4304
  24080734.311    -7790346.72649  -6048257.14549  24080734.9944   24080741.2764
  22098647.385   -16870623.16849 -12865240.66149  22098647.1454   22098654.2694
  20254507.226   -21037268.06249 -16373669.44049  20254507.3564   20254512.9344
  21387580.643   -21584251.46149 -16544528.08249  21387580.4164   21387586.8374
  24120737.034     2408625.85949   1899956.38849  24120736.2724   24120743.9564
 97  3 13 19 14 30.0000000  0  8 15 19 18 26  7 27  2 31
  24258063.646    -6925685.66849  -5386797.03149  24258063.8524   24258072.8704
  21827968.126     2054174.70849   1609945.05649  21827967.8624   21827974.9734
  24599893.600    22930397.94249  17876325.30449  24599893.8684   24599902.1754
  24066980.427    -7862624.42849  -6104577.42349  24066980.7864   24066987.1164
  22083055.079   -16952560.82149 -12929088.16349  22083054.7594   22083061.4494
  20254411.139   -21037772.99249 -16374062.90049  20254411.3334   20254416.8624
  21385257.272   -21596460.83449 -16554041.87149  21385256.8454   21385263.1304
  24141323.631     2516808.89749   1984254.82149  24141323.3504   24141331.2024
 97  3 13 19 15  0.0000000  0  8 15 19 18 26  7 27  2 31
  24248680.456    -6974994.11849  -5425219.11649  24248679.8084   24248689.9974
  21840406.351     2119538.63049   1660877.94249  21840406.5214   21840413.5064
  24622508.688    23049240.60949  17968929.84149  24622508.8924   24622517.5394
  24053281.558    -7934612.43549  -6160671.93949  24053280.9904   24053288.4504
  22067517.267   -17034212.39449 -12992712.75049  22067516.8764   22067523.9564
  20254385.611   -21037907.06949 -16374167.38249  20254385.6114   20254391.5614
  21382964.919   -21608507.34349 -16563428.75449  21382964.6024   21382971.0154
  24161953.212     2625217.48449   2068728.96049  24161952.6684   24161960.1484
 97  3 13 19 15 30.0000000  0  8 15 19 18 26  7 27  2 31
  24239358.788    -7023979.49049  -5463389.45649  24239358.9614   24239367.8654
  21852902.943     2185207.97349   1712048.82349  21852903.3104   21852910.5474
  24645123.708    23168082.66649  18061533.89849  24645122.8964   24645133.5204
  24039640.594    -8006295.54949  -6216528.88949  24039640.5834   24039647.4834
  22052035.293   -17115570.32849 -13056108.51549  22052035.3244   22052041.9324
  20254430.937   -21037668.84749 -16373981.76149  20254431.0294   20254436.7514
  21380705.484   -21620380.66549 -16572680.69149  21380705.1264   21380711.5114
  24182623.895     2733842.77449   2153371.96449  24182624.7674   24182630.6704
 97  3 13 19 16  0.0000000  0  8 15 19 18 26  7 27  2 31
  24230098.467    -7072641.56149  -5501307.85049  24230096.8434   24230106.6784
  21865454.614     2251167.45349   1763445.78549  21865455.1104   21865460.9944
  24667737.826    23286919.46449  18154133.86749  24667737.9504   24667745.8104
  24026060.336    -8077659.70249  -6272137.29349  24026060.3154   24026068.2314
  22036610.625   -17196627.54849 -13119269.96549  22036610.1924   22036617.2684
  20254549.543   -21037045.52149 -16373496.06449  20254549.5674   20254555.0834
  21378479.688   -21632077.13749 -16581794.82149  21378479.2574   21378485.6144
  24203336.340     2842686.93149   2238185.57049  24203335.7794   24203343.9754
 97  3 13 19 16 30.0000000  0  8 15 19 18 26  7 27  2 31
  24220899.744    -7120980.11649  -5538974.15149  24220899.2704   24220908.3034
  21878061.802     2317418.02049   1815069.57049  21878062.0134   21878069.3504
  24690348.596    23405741.01649  18246721.94949  24690348.7474   24690358.6964
  24012544.201    -8148687.60649  -6327483.69849  24012544.2624   24012550.8514
  22021247.081   -17277363.46949 -13182181.05349  22021246.8784   22021253.6704
  20254739.582   -21036047.06249 -16372718.05349  20254739.5164   20254745.3864
  21376286.104   -21643604.74149 -16590777.37849  21376285.7654   21376292.1694
  24224089.616     2951747.45949   2323167.72349  24224090.4714   24224097.9074
 97  3 13 19 17  0.0000000  0  8 15 19 18 26  7 27  2 31
  24211765.601    -7168980.04649  -5576376.60649  24211765.9734   24211773.9524
  21890727.242     2383975.68849   1866932.64649  21890727.7054   21890734.3464
  24712960.367    23524567.21349  18339313.65549  24712960.8634   24712969.6024
  23999096.922    -8219353.99749  -6382548.39049  23999096.9514   23999102.9314
  22005947.892   -17357761.33749 -13244828.71649  22005947.6894   22005954.6664
  20255002.519   -21034665.31249 -16371641.36549  20255002.4344   20255008.2554
  21374126.769   -21654951.82249 -16599619.26049  21374126.4504   21374132.8104
  24244883.406     3061020.02749   2408315.10949  24244883.3574   24244890.3784
 97  3 13 19 17 30.0000000  0  8 15 19 18 26  7 27  2 31
  24202693.546    -7216652.79349  -5613524.11649  24202693.0544   24202703.7514
  21903451.256     2450840.48249   1919035.04949  21903450.9264   21903457.6804
  24735571.166    23643386.08449  18431899.65049  24735571.5704   24735580.4894
  23985714.654    -8289678.23549  -6437346.46849  23985714.8154   23985721.4774
  21990708.780   -17437843.21949 -13307230.15949  21990708.8494   21990715.7664
  20255338.001   -21032902.27549 -16370267.57149  20255338.0814   20255343.7054
  21371999.908   -21666128.69649 -16608328.51649  21371999.6334   21372005.8624
  24265711.573     3170473.01549   2493603.09649  24265711.9474   24265719.7934
 97  3 13 19 18  0.0000000  0  8 15 19 18 26  7 27  2 31
  24193687.684    -7263978.70949  -5650401.35749  24193686.8694   24193696.6624
  21916238.479     2518037.79049   1971396.55949  21916238.7844   21916245.7034
  24758181.650    23762203.97049  18524484.89049  24758181.7974   24758190.7304
  23972402.033    -8359635.98049  -6491858.99049  23972402.9814   23972409.3184
  21975533.099   -17517591.90249 -13369371.97049  21975533.1454   21975539.8364
  20255748.558   -21030744.77549 -16368586.41149  20255748.8274   20255754.2754
  21369906.768   -21677128.25649 -16616899.61349  21369906.6614   21369912.9404
  24286578.503     3280128.25649   2579048.68949  24286578.7614   24286586.6764
 97  3 13 19 18 30.0000000  0  8 15 19 18 26  7 27  2 31
  24184748.088    -7310956.84049  -5687007.61349  24184747.6284   24184757.1334
  21929090.000     2585572.41449   2024020.90449  21929090.1374   21929097.2964
  24780792.539    23881023.83449  18617071.69649  24780793.8834   24780801.5444
  23959159.102    -8429227.08149  -6546085.78149  23959160.0994   23959165.9554
  21960418.231   -17597021.03449 -13431264.77349  21960418.0594   21960424.4754
  20256234.568   -21028190.94449 -16366596.41949  20256234.5814   20256240.3594
  21367847.252   -21687951.25349 -16625333.11949  21367847.0574   21367853.3974
  24307483.480     3389985.05449   2664651.29549  24307483.3194   24307490.9224
 97  3 13 19 19  0.0000000  0  8 15 19 18 26  7 27  2 31
  24175877.144    -7357574.29649  -5723332.85049  24175876.4694   24175886.4714
  21942006.438     2653448.76849   2076911.52549  21942006.2154   21942013.7684
  24803405.600    23999855.80749  18709667.95049  24803406.2094   24803415.0374
  23945986.497    -8498449.67449  -6600025.43949  23945987.3084   23945994.0694
  21945364.391   -17676129.38549 -13492907.62749  21945364.3704   21945371.3394
  20256800.664   -21025216.26949 -16364278.49749  20256800.7394   20256806.4444
  21365825.940   -21698573.47149 -16633610.18149  21365825.7074   21365832.0654
  24328425.713     3500036.94449   2750405.98249  24328427.4804   24328432.9744
 97  3 13 19 19 30.0000000  0  8 15 19 18 26  7 27  2 31
  24167074.401    -7403832.50149  -5759378.12649  24167073.6934   24167084.0994
  21954985.754     2721655.32349   2130059.46749  21954986.4194   21954992.4564
  24826018.619    24118688.24049  18802264.54749  24826019.1954   24826026.9444
  23932884.763    -8567300.46649  -6653675.37949  23932885.2684   23932891.7634
  21930371.566   -17754917.38749 -13554300.84849  21930371.3604   21930378.1504
  20257447.167   -21021818.87449 -16361631.18049  20257447.1814   20257453.0344
  21363843.619   -21708990.81249 -16641727.58749  21363843.4194   21363849.5694
  24349405.143     3610283.66849   2836312.46549  24349404.8884   24349413.1144
 97  3 13 19 20  0.0000000  0  8 15 19 18 26  7 27  2 31
  24158337.684    -7449744.05149  -5795153.29649  24158337.4114   24158347.1514
  21968023.216     2790167.63149   2183445.64149  21968023.4344   21968030.3004
  24848626.998    24237495.33249  18894841.42949  24848627.9834   24848636.2824
  23919850.563    -8635795.64549  -6707048.22049  23919850.3524   23919857.6444
  21915438.818   -17833389.41749 -13615447.86249  21915438.4584   21915445.0714
  20258172.052   -21018009.42749 -16358662.78149  20258172.0794   20258177.9494
  21361895.977   -21719225.72049 -16649702.84149  21361895.5174   21361902.1644
  24370418.221     3720708.11249   2922357.39849  24370418.3904   24370425.8994
 97  3 13 19 20 30.0000000  0  8 15 19 18 26  7 27  2 31
  24149668.045    -7495303.80549  -5830654.33349  24149667.3234   24149676.8654
  21981116.994     2858976.28649   2237062.73149  21981117.3794   21981124.9324
  24871230.701    24356277.63049  18987398.97249  24871230.8054   24871239.7734
  23906879.903    -8703956.78349  -6760160.77049  23906880.2514   23906886.5364
  21900565.248   -17911549.82849 -13676352.05449  21900565.2444   21900572.2664
  20258976.465   -21013782.41949 -16355369.01149  20258976.4824   20258982.3704
  21359983.186   -21729277.42649 -16657535.34849  21359983.0214   21359989.3554
  24391462.750     3831295.95149   3008529.75149  24391463.4014   24391470.2724
 97  3 13 19 21  0.0000000  0  8 15 19 18 26  7 27  2 31
  24141066.478    -7540505.25349  -5865876.15149  24141066.3684   24141075.4884
  21994266.968     2928079.66649   2290909.47949  21994267.8654   21994273.5874
  24893828.446    24475028.71849  19079932.21849  24893829.5204   24893837.5794
  23893972.795    -8771783.72049  -6813012.90849  23893973.1974   23893979.8144
  21885753.769   -17989384.79349 -13737002.65449  21885754.0584   21885760.4124
  20259857.263   -21009153.62449 -16351762.15649  20259857.2434   20259863.3924
  21358104.174   -21739151.87249 -16665229.72249  21358103.7724   21358110.1894
  24412537.361     3942044.90549   3094827.53349  24412537.9424   24412545.8004
 97  3 13 19 21 30.0000000  0  7 15 19 26  7 27  2 31
  24132531.740    -7585356.04949  -5900824.72749  24132531.2764   24132541.2454
  22007471.074     2997466.52749   2344977.14149  22007470.1854   22007478.0324
  23881130.207    -8839271.96649  -6865601.14349  23881130.8374   23881136.3614
  21871002.934   -18066901.31249 -13797405.11249  21871003.0104   21871009.6854
  20260810.483   -21004144.64149 -16347859.05749  20260810.6434   20260816.3594
  21356252.465   -21748882.52149 -16672812.04249  21356252.3144   21356258.4404
  24433644.682     4052963.98549   3181257.94249  24433645.9094   24433651.9764
 97  3 13 19 22  0.0000000  0  7 15 19 26  7 27  2 31
  24124070.485    -7629820.67549  -5935472.39349  24124070.4444   24124079.4024
  22020734.734     3067168.77849   2399290.52649  22020735.1324   22020742.4754
  23868358.280    -8906388.97749  -6917900.07549  23868358.8994   23868364.6744
  21856318.787   -18144066.92749 -13857534.13949  21856318.9054   21856325.5244
  20261842.271   -20998722.55649 -16343634.06149  20261842.2884   20261848.0234
  21354434.014   -21758438.75249 -16680258.45249  21354433.7434   21354440.0144
  24454790.792     4164087.16949   3267847.39449  24454790.9614   24454799.2854
 97  3 13 19 22 30.0000000  0  7 15 19 26  7 27  2 31
  24115676.249    -7673932.40849  -5969845.03949  24115675.9554   24115684.5334
  22034050.726     3137144.16649   2453816.76349  22034051.2844   22034057.8794
  23855653.369    -8973153.77549  -6969924.57349  23855653.7254   23855660.2234
  21841695.127   -18220914.49549 -13917415.32649  21841695.2994   21841701.9484
  20262944.395   -20992930.60049 -16339120.85449  20262944.5654   20262950.3094
  21352644.524   -21767842.33749 -16687585.91749  21352644.0124   21352650.4424
  24475970.344     4275385.46349   3354573.28149  24475970.3084   24475977.3694
 97  3 13 19 23  0.0000000  0  7 15 19 26  7 27  2 31
  24107352.071    -7717676.26849  -6003931.04749  24107351.9184   24107360.6134
  22047420.867     3207403.93549   2508564.61149  22047420.5884   22047427.5214
  23843024.508    -9039518.41349  -7021637.25549  23843025.0874   23843032.1874
  21827137.099   -18297417.57149 -13977028.08649  21827136.8984   21827144.0144
  20264119.552   -20986755.17449 -16334308.83849  20264119.5724   20264125.2924
  21350887.347   -21777076.12049 -16694781.06849  21350887.1384   21350893.4394
  24497186.342     4386875.58849   3441448.66749  24497186.1714   24497194.4724
 97  3 13 19 23 30.0000000  0  7 15 19 26  7 27  2 31
  24099095.643    -7761064.14749  -6037739.64149  24099095.2744   24099103.4294
  22060841.175     3277929.37149   2563519.44749  22060841.2774   22060848.9974
  23830470.931    -9105487.97549  -7073042.08249  23830471.8484   23830477.1674
  21812642.642   -18373586.45049 -14036380.43149  21812642.0824   21812649.5014
  20265369.801   -20980185.04049 -16329189.26349  20265369.7364   20265375.5554
  21349161.347   -21786146.44949 -16701848.84749  21349161.0534   21349167.3674
  24518434.496     4498535.65949   3528456.45649  24518435.4004   24518441.1384
 97  3 13 19 24  0.0000000  0  7 15 19 26  7 27  2 31
  24090907.446    -7804092.43649  -6071268.05049  24090906.1434   24090914.4724
  22074313.471     3348725.77249   2618685.43649  22074315.0304   22074321.8054
  23817989.704    -9171076.87549  -7124150.26649  23817990.1984   23817996.5964
  21798213.231   -18449413.45949 -14095466.38549  21798213.3414   21798219.6894
  20266699.044   -20973199.75549 -16323746.19549  20266699.0164   20266704.9734
  21347469.118   -21795039.29749 -16708778.32949  21347468.6654   21347474.9024
  24539711.043     4610343.65349   3615579.53049  24539710.5624   24539717.7294
 97  3 13 19 24 30.0000000  0  7 15 19 26  7 27  2 31
  24082790.642    -7846745.39549  -6104504.01249  24082788.7824   24082798.7224
  22087840.205     3419807.68149   2674073.90249  22087839.8074   22087846.7334
  23805584.956    -9236264.02649  -7174945.43649  23805585.2964   23805592.2404
  21783851.940   -18524882.24749 -14154273.20249  21783851.7534   21783858.5984
  20268110.400   -20965783.08549 -16317966.97549  20268110.4994   20268116.2414
  21345812.068   -21803747.12449 -16715563.63249  21345811.6824   21345818.0904
  24561016.361     4722303.86549   3702821.20849  24561015.7334   24561022.9504
 97  3 13 19 25  0.0000000  0  7 15 19 26  7 27  2 31
  24074745.145    -7889023.40049  -6137447.76049  24074743.3424   24074753.0514
  22101422.623     3491185.42049   2729692.86849  22101423.3134   22101429.4654
  23793254.873    -9301058.76549  -7225434.82449  23793255.2224   23793261.9934
  21769559.346   -18599990.10049 -14212798.77649  21769559.1484   21769566.1024
  20269605.133   -20957928.31749 -16311846.37949  20269605.2044   20269611.1284
  21344187.834   -21812282.51549 -16722214.56749  21344187.5564   21344193.8184
  24582348.870     4834406.55849   3790173.92849  24582349.1144   24582355.7204
 97  3 13 19 25 30.0000000  0  7 15 19 26  7 27  2 31
  24066771.284    -7930924.56649  -6170097.83749  24066771.0514   24066780.7054
  22115063.775     3562868.91349   2785550.11149  22115064.5594   22115070.9924
  23780995.985    -9365480.27749  -7275633.36649  23780996.6194   23781003.0644
  21755337.294   -18674727.39249 -14271035.60049  21755337.1144   21755344.1274
  20271183.796   -20949632.32149 -16305381.97149  20271183.9714   20271189.7614
  21342597.115   -21820641.91149 -16728728.37049  21342596.9184   21342603.1634
  24603709.032     4946655.26449   3877640.39449  24603708.6374   24603716.4994
 97  3 13 19 26  0.0000000  0  7 15 19 26  7 27  2 31
  24058869.466    -7972449.22149  -6202454.55649  24058869.2414   24058877.8794
  22128763.896     3634862.26049   2841648.79649  22128763.6664   22128770.7904
  23768806.085    -9429538.91349  -7325549.14349  23768806.3384   23768812.4884
  21741185.761   -18749094.46249 -14328983.94449  21741185.7104   21741192.5074
  20272843.140   -20940912.25849 -16298587.12549  20272843.2034   20272849.1754
  21341039.400   -21828827.74549 -16735106.92649  21341038.9564   21341045.3734
  24625096.239     5059045.50249   3965217.16649  24625094.6324   24625104.0654
 97  3 13 19 26 30.0000000  0  6 15 19 26  7 27  2
  24051039.447    -8013597.30049  -6234517.88749  24051039.7424   24051048.2824
  22142521.616     3707161.21949   2897985.59449  22142521.8914   22142528.6994
  23756686.816    -9493225.74749  -7375175.23049  23756687.5274   23756693.6874
  21727101.941   -18823105.26649 -14386654.67349  21727101.5814   21727108.6824
  20274579.336   -20931788.52349 -16291477.72249  20274579.4814   20274585.5204
  21339513.987   -21836843.70249 -16741353.10949  21339513.6424   21339519.9684
 97  3 13 19 27  0.0000000  0  6 15 19 26  7 27  2
  24043280.274    -8054372.70149  -6266290.83349  24043279.9144   24043288.5174
  22156336.927     3779760.44549   2954556.39249  22156337.9764   22156343.8794
  23744633.811    -9556564.29549  -7424529.92449  23744634.7014   23744640.4914
  21713084.307   -18896768.47249 -14444054.54949  21713084.1254   21713091.1704
  20276391.553   -20922265.34849 -16284057.06849  20276391.6364   20276397.6444
  21338019.923   -21844695.04249 -16747471.02649  21338019.6564   21338025.8604
 97  3 13 19 27 30.0000000  0  6 15 19 26  7 27  2
  24035595.196    -8094758.24749  -6297760.00249  24035594.9144   24035602.3764
  22170208.922     3852657.59249   3011359.32049  22170208.5044   22170215.7754
  23732650.693    -9619535.93749  -7473598.70449  23732650.6484   23732657.5314
  21699131.239   -18970092.12049 -14501189.83749  21699130.9144   21699137.8264
  20278282.998   -20912325.67449 -16276311.87849  20278283.1774   20278289.1084
  21336561.644   -21852358.42749 -16753442.48749  21336561.2264   21336567.6844
 97  3 13 19 28  0.0000000  0  6 15 19 26  7 27  2
  24027984.516    -8134751.32349  -6328923.36249  24027983.3934   24027991.8474
  22184134.730     3925838.62949   3068383.47049  22184135.1834   22184141.6494
  23720740.031    -9682126.88249  -7522370.82649  23720741.0034   23720747.0934
  21685237.551   -19043103.93549 -14558082.14249  21685237.5724   21685244.2664
  20280253.633   -20901969.93149 -16268242.47849  20280253.5634   20280259.4884
  21335136.254   -21859848.86149 -16759279.18049  21335135.8034   21335141.9884
 97  3 13 19 28 30.0000000  0  6 15 19 26  7 27  2
  24020448.181    -8174353.35649  -6359782.01549  24020447.8704   24020455.7644
  22198113.006     3999295.08149   3125622.22549  22198113.5764   22198120.2494
  23708902.824    -9744331.46549  -7570841.91749  23708902.7684   23708908.8784
  21671402.376   -19115808.10649 -14614734.71949  21671402.1504   21671409.1684
  20282303.105   -20891199.89649 -16259850.24849  20282303.2144   20282309.1194
  21333742.217   -21867174.56249 -16764987.50749  21333741.9184   21333748.2964
 97  3 13 19 29  0.0000000  0  6 15 19 26  7 27  2
  24012985.720    -8213568.71149  -6390339.36249  24012985.7364   24012994.0014
  22212142.054     4073017.85849   3183068.50949  22212142.2444   22212149.8374
  23697138.233    -9806154.48949  -7619015.68849  23697139.3324   23697145.4084
  21657628.402   -19188190.98449 -14671136.93849  21657628.6064   21657635.2064
  20284432.172   -20880011.72949 -16251132.20449  20284432.3404   20284438.1484
  21332378.003   -21874343.65949 -16770573.79749  21332377.7424   21332384.0424
 97  3 13 19 29 30.0000000  0  6 15 19 26  7 27  2
  24005599.331    -8252384.72949  -6420585.56749  24005598.7604   24005608.1204
  22226224.353     4147020.87249   3240733.14649  22226224.9654   22226231.4194
  23685451.401    -9867569.78449  -7666871.72649  23685452.4324   23685457.8494
  21643919.216   -19260233.47549 -14727273.92349  21643919.1274   21643925.9774
  20286641.575   -20868401.41149 -16242085.21649  20286641.6604   20286647.7484
  21331043.928   -21881354.19849 -16776036.53649  21331043.6064   21331050.0144
 97  3 13 19 30  0.0000000  0  6 15 19 26  7 27  2
  23998286.598    -8290812.98849  -6450529.60649  23998285.7424   23998294.4334
  22240359.747     4221302.47149   3298614.87449  22240359.6094   22240366.4624
  23673836.913    -9928604.43849  -7714431.17849  23673836.9444   23673844.1534
  21630277.811   -19331919.32249 -14783133.00549  21630277.7004   21630284.6924
  20288927.633   -20856387.96649 -16232724.10149  20288927.7284   20288933.5344
  21329733.291   -21888241.63049 -16781403.35249  21329732.9434   21329739.2574
